<?xml version="1.0" encoding="UTF-8" standalone="no" ?>
<gpx xmlns="http://www.topografix.com/GPX/1/1" xmlns:xsi="http://www.w3.org/2001/XMLSchema-instance" xsi:schemaLocation="http://www.topografix.com/GPX/1/1 http://www.topografix.com/GPX/1/1/gpx.xsd" version="1.1" creator="VisuGPX - https://www.visugpx.com">
  <metadata>
    <name>graou</name>
    <desc><![CDATA[sortie vtt dimanche 21/09]]></desc>
  </metadata>
  <trk>
    <name><![CDATA[2015-09-20T07:43:49Z]]></name>
    <trkseg>
      <trkpt lat="44.60471" lon="-0.9393">
        <ele>9.7506104</ele>
        <time>2015-09-20T07:43:50Z</time>
      </trkpt>
      <trkpt lat="44.60455" lon="-0.93937">
        <ele>9.2698975</ele>
        <time>2015-09-20T07:43:56Z</time>
      </trkpt>
      <trkpt lat="44.60436" lon="-0.93945">
        <ele>8.3085938</ele>
        <time>2015-09-20T07:44:03Z</time>
      </trkpt>
      <trkpt lat="44.6042" lon="-0.93945">
        <ele>7.8278809</ele>
        <time>2015-09-20T07:44:07Z</time>
      </trkpt>
      <trkpt lat="44.60393" lon="-0.93933">
        <ele>8.3085938</ele>
        <time>2015-09-20T07:44:13Z</time>
      </trkpt>
      <trkpt lat="44.60385" lon="-0.93929">
        <ele>9.2698975</ele>
        <time>2015-09-20T07:44:15Z</time>
      </trkpt>
      <trkpt lat="44.60361" lon="-0.93909">
        <ele>13.5958252</ele>
        <time>2015-09-20T07:44:21Z</time>
      </trkpt>
      <trkpt lat="44.60337" lon="-0.93866">
        <ele>14.5570068</ele>
        <time>2015-09-20T07:44:29Z</time>
      </trkpt>
      <trkpt lat="44.60315" lon="-0.93822">
        <ele>11.1925049</ele>
        <time>2015-09-20T07:44:37Z</time>
      </trkpt>
      <trkpt lat="44.60306" lon="-0.93805">
        <ele>12.1538086</ele>
        <time>2015-09-20T07:44:40Z</time>
      </trkpt>
      <trkpt lat="44.60294" lon="-0.93792">
        <ele>13.1151123</ele>
        <time>2015-09-20T07:44:43Z</time>
      </trkpt>
      <trkpt lat="44.6028" lon="-0.93768">
        <ele>12.1538086</ele>
        <time>2015-09-20T07:44:48Z</time>
      </trkpt>
      <trkpt lat="44.60263" lon="-0.9373">
        <ele>11.1925049</ele>
        <time>2015-09-20T07:44:57Z</time>
      </trkpt>
      <trkpt lat="44.60262" lon="-0.93729">
        <ele>11.6732178</ele>
        <time>2015-09-20T07:44:58Z</time>
      </trkpt>
      <trkpt lat="44.60258" lon="-0.93708">
        <ele>9.7506104</ele>
        <time>2015-09-20T07:45:04Z</time>
      </trkpt>
      <trkpt lat="44.60247" lon="-0.93696">
        <ele>7.8278809</ele>
        <time>2015-09-20T07:45:09Z</time>
      </trkpt>
      <trkpt lat="44.60246" lon="-0.93684">
        <ele>6.8664551</ele>
        <time>2015-09-20T07:45:12Z</time>
      </trkpt>
      <trkpt lat="44.60242" lon="-0.9367">
        <ele>6.8664551</ele>
        <time>2015-09-20T07:45:16Z</time>
      </trkpt>
      <trkpt lat="44.60228" lon="-0.93662">
        <ele>7.8278809</ele>
        <time>2015-09-20T07:45:20Z</time>
      </trkpt>
      <trkpt lat="44.6022" lon="-0.93648">
        <ele>8.3085938</ele>
        <time>2015-09-20T07:45:23Z</time>
      </trkpt>
      <trkpt lat="44.60197" lon="-0.93593">
        <ele>4.9438477</ele>
        <time>2015-09-20T07:45:34Z</time>
      </trkpt>
      <trkpt lat="44.60176" lon="-0.93548">
        <ele>5.4245605</ele>
        <time>2015-09-20T07:45:43Z</time>
      </trkpt>
      <trkpt lat="44.60153" lon="-0.93496">
        <ele>9.2698975</ele>
        <time>2015-09-20T07:45:52Z</time>
      </trkpt>
      <trkpt lat="44.6015" lon="-0.9349">
        <ele>9.7506104</ele>
        <time>2015-09-20T07:45:53Z</time>
      </trkpt>
      <trkpt lat="44.60135" lon="-0.93434">
        <ele>7.8278809</ele>
        <time>2015-09-20T07:46:02Z</time>
      </trkpt>
      <trkpt lat="44.60119" lon="-0.93392">
        <ele>7.8278809</ele>
        <time>2015-09-20T07:46:09Z</time>
      </trkpt>
      <trkpt lat="44.60116" lon="-0.93385">
        <ele>9.7506104</ele>
        <time>2015-09-20T07:46:10Z</time>
      </trkpt>
      <trkpt lat="44.60099" lon="-0.93345">
        <ele>12.6343994</ele>
        <time>2015-09-20T07:46:17Z</time>
      </trkpt>
      <trkpt lat="44.60081" lon="-0.93301">
        <ele>12.6343994</ele>
        <time>2015-09-20T07:46:25Z</time>
      </trkpt>
      <trkpt lat="44.60076" lon="-0.93289">
        <ele>12.6343994</ele>
        <time>2015-09-20T07:46:27Z</time>
      </trkpt>
      <trkpt lat="44.60052" lon="-0.93239">
        <ele>14.076416</ele>
        <time>2015-09-20T07:46:36Z</time>
      </trkpt>
      <trkpt lat="44.60032" lon="-0.93191">
        <ele>8.3085938</ele>
        <time>2015-09-20T07:46:45Z</time>
      </trkpt>
      <trkpt lat="44.60024" lon="-0.93168">
        <ele>9.2698975</ele>
        <time>2015-09-20T07:46:49Z</time>
      </trkpt>
      <trkpt lat="44.60008" lon="-0.93133">
        <ele>8.7891846</ele>
        <time>2015-09-20T07:46:55Z</time>
      </trkpt>
      <trkpt lat="44.59987" lon="-0.93084">
        <ele>8.3085938</ele>
        <time>2015-09-20T07:47:03Z</time>
      </trkpt>
      <trkpt lat="44.59966" lon="-0.93038">
        <ele>12.6343994</ele>
        <time>2015-09-20T07:47:10Z</time>
      </trkpt>
      <trkpt lat="44.59964" lon="-0.93032">
        <ele>12.6343994</ele>
        <time>2015-09-20T07:47:11Z</time>
      </trkpt>
      <trkpt lat="44.59947" lon="-0.92994">
        <ele>12.1538086</ele>
        <time>2015-09-20T07:47:17Z</time>
      </trkpt>
      <trkpt lat="44.59935" lon="-0.92967">
        <ele>15.0377197</ele>
        <time>2015-09-20T07:47:21Z</time>
      </trkpt>
      <trkpt lat="44.59923" lon="-0.92941">
        <ele>16.4797363</ele>
        <time>2015-09-20T07:47:25Z</time>
      </trkpt>
      <trkpt lat="44.59906" lon="-0.92899">
        <ele>13.5958252</ele>
        <time>2015-09-20T07:47:32Z</time>
      </trkpt>
      <trkpt lat="44.59887" lon="-0.92854">
        <ele>14.5570068</ele>
        <time>2015-09-20T07:47:39Z</time>
      </trkpt>
      <trkpt lat="44.59867" lon="-0.92808">
        <ele>18.4023438</ele>
        <time>2015-09-20T07:47:46Z</time>
      </trkpt>
      <trkpt lat="44.59858" lon="-0.9279">
        <ele>19.3637695</ele>
        <time>2015-09-20T07:47:49Z</time>
      </trkpt>
      <trkpt lat="44.59845" lon="-0.92756">
        <ele>20.8056641</ele>
        <time>2015-09-20T07:47:54Z</time>
      </trkpt>
      <trkpt lat="44.59828" lon="-0.92719">
        <ele>21.7669678</ele>
        <time>2015-09-20T07:48:00Z</time>
      </trkpt>
      <trkpt lat="44.59824" lon="-0.92712">
        <ele>21.286377</ele>
        <time>2015-09-20T07:48:01Z</time>
      </trkpt>
      <trkpt lat="44.59799" lon="-0.92657">
        <ele>22.7282715</ele>
        <time>2015-09-20T07:48:09Z</time>
      </trkpt>
      <trkpt lat="44.59772" lon="-0.92594">
        <ele>22.7282715</ele>
        <time>2015-09-20T07:48:18Z</time>
      </trkpt>
      <trkpt lat="44.59744" lon="-0.9253">
        <ele>25.6123047</ele>
        <time>2015-09-20T07:48:27Z</time>
      </trkpt>
      <trkpt lat="44.59724" lon="-0.92483">
        <ele>20.8056641</ele>
        <time>2015-09-20T07:48:34Z</time>
      </trkpt>
      <trkpt lat="44.59704" lon="-0.92435">
        <ele>17.4411621</ele>
        <time>2015-09-20T07:48:41Z</time>
      </trkpt>
      <trkpt lat="44.59694" lon="-0.92409">
        <ele>18.4023438</ele>
        <time>2015-09-20T07:48:45Z</time>
      </trkpt>
      <trkpt lat="44.59673" lon="-0.92364">
        <ele>26.0928955</ele>
        <time>2015-09-20T07:48:51Z</time>
      </trkpt>
      <trkpt lat="44.59664" lon="-0.92339">
        <ele>23.6895752</ele>
        <time>2015-09-20T07:48:55Z</time>
      </trkpt>
      <trkpt lat="44.59648" lon="-0.92306">
        <ele>26.0928955</ele>
        <time>2015-09-20T07:49:00Z</time>
      </trkpt>
      <trkpt lat="44.59634" lon="-0.92275">
        <ele>24.1702881</ele>
        <time>2015-09-20T07:49:05Z</time>
      </trkpt>
      <trkpt lat="44.59626" lon="-0.92255">
        <ele>21.7669678</ele>
        <time>2015-09-20T07:49:08Z</time>
      </trkpt>
      <trkpt lat="44.59611" lon="-0.92232">
        <ele>23.6895752</ele>
        <time>2015-09-20T07:49:12Z</time>
      </trkpt>
      <trkpt lat="44.59609" lon="-0.92225">
        <ele>22.2475586</ele>
        <time>2015-09-20T07:49:13Z</time>
      </trkpt>
      <trkpt lat="44.59593" lon="-0.92189">
        <ele>18.4023438</ele>
        <time>2015-09-20T07:49:19Z</time>
      </trkpt>
      <trkpt lat="44.59584" lon="-0.92183">
        <ele>24.1702881</ele>
        <time>2015-09-20T07:49:23Z</time>
      </trkpt>
      <trkpt lat="44.5958" lon="-0.92188">
        <ele>21.7669678</ele>
        <time>2015-09-20T07:49:28Z</time>
      </trkpt>
      <trkpt lat="44.59575" lon="-0.92194">
        <ele>21.286377</ele>
        <time>2015-09-20T07:49:31Z</time>
      </trkpt>
      <trkpt lat="44.59567" lon="-0.92216">
        <ele>21.286377</ele>
        <time>2015-09-20T07:49:37Z</time>
      </trkpt>
      <trkpt lat="44.59552" lon="-0.92232">
        <ele>19.8443604</ele>
        <time>2015-09-20T07:49:43Z</time>
      </trkpt>
      <trkpt lat="44.59536" lon="-0.92248">
        <ele>17.9217529</ele>
        <time>2015-09-20T07:49:49Z</time>
      </trkpt>
      <trkpt lat="44.59515" lon="-0.92256">
        <ele>16.9604492</ele>
        <time>2015-09-20T07:49:55Z</time>
      </trkpt>
      <trkpt lat="44.59497" lon="-0.92267">
        <ele>15.9990234</ele>
        <time>2015-09-20T07:50:01Z</time>
      </trkpt>
      <trkpt lat="44.59487" lon="-0.92281">
        <ele>16.4797363</ele>
        <time>2015-09-20T07:50:05Z</time>
      </trkpt>
      <trkpt lat="44.59481" lon="-0.92296">
        <ele>15.9990234</ele>
        <time>2015-09-20T07:50:09Z</time>
      </trkpt>
      <trkpt lat="44.59467" lon="-0.92318">
        <ele>16.9604492</ele>
        <time>2015-09-20T07:50:15Z</time>
      </trkpt>
      <trkpt lat="44.59456" lon="-0.92334">
        <ele>17.9217529</ele>
        <time>2015-09-20T07:50:19Z</time>
      </trkpt>
      <trkpt lat="44.59446" lon="-0.92358">
        <ele>16.9604492</ele>
        <time>2015-09-20T07:50:24Z</time>
      </trkpt>
      <trkpt lat="44.59433" lon="-0.92372">
        <ele>15.9990234</ele>
        <time>2015-09-20T07:50:29Z</time>
      </trkpt>
      <trkpt lat="44.59419" lon="-0.92383">
        <ele>15.5184326</ele>
        <time>2015-09-20T07:50:33Z</time>
      </trkpt>
      <trkpt lat="44.59402" lon="-0.92395">
        <ele>14.5570068</ele>
        <time>2015-09-20T07:50:38Z</time>
      </trkpt>
      <trkpt lat="44.5938" lon="-0.92414">
        <ele>13.5958252</ele>
        <time>2015-09-20T07:50:43Z</time>
      </trkpt>
      <trkpt lat="44.59375" lon="-0.92418">
        <ele>12.6343994</ele>
        <time>2015-09-20T07:50:44Z</time>
      </trkpt>
      <trkpt lat="44.59353" lon="-0.92436">
        <ele>11.6732178</ele>
        <time>2015-09-20T07:50:49Z</time>
      </trkpt>
      <trkpt lat="44.59347" lon="-0.92441">
        <ele>11.1925049</ele>
        <time>2015-09-20T07:50:51Z</time>
      </trkpt>
      <trkpt lat="44.59337" lon="-0.92461">
        <ele>12.1538086</ele>
        <time>2015-09-20T07:50:56Z</time>
      </trkpt>
      <trkpt lat="44.59332" lon="-0.92468">
        <ele>13.1151123</ele>
        <time>2015-09-20T07:50:58Z</time>
      </trkpt>
      <trkpt lat="44.59313" lon="-0.92488">
        <ele>17.9217529</ele>
        <time>2015-09-20T07:51:05Z</time>
      </trkpt>
      <trkpt lat="44.59294" lon="-0.92507">
        <ele>18.4023438</ele>
        <time>2015-09-20T07:51:11Z</time>
      </trkpt>
      <trkpt lat="44.59285" lon="-0.92512">
        <ele>17.4411621</ele>
        <time>2015-09-20T07:51:13Z</time>
      </trkpt>
      <trkpt lat="44.59266" lon="-0.92527">
        <ele>17.4411621</ele>
        <time>2015-09-20T07:51:19Z</time>
      </trkpt>
      <trkpt lat="44.59258" lon="-0.92518">
        <ele>16.4797363</ele>
        <time>2015-09-20T07:51:24Z</time>
      </trkpt>
      <trkpt lat="44.59242" lon="-0.92488">
        <ele>18.4023438</ele>
        <time>2015-09-20T07:51:31Z</time>
      </trkpt>
      <trkpt lat="44.5923" lon="-0.9246">
        <ele>19.8443604</ele>
        <time>2015-09-20T07:51:37Z</time>
      </trkpt>
      <trkpt lat="44.59219" lon="-0.92438">
        <ele>23.2089844</ele>
        <time>2015-09-20T07:51:41Z</time>
      </trkpt>
      <trkpt lat="44.59215" lon="-0.92411">
        <ele>24.651001</ele>
        <time>2015-09-20T07:51:46Z</time>
      </trkpt>
      <trkpt lat="44.59215" lon="-0.92406">
        <ele>23.6895752</ele>
        <time>2015-09-20T07:51:47Z</time>
      </trkpt>
      <trkpt lat="44.59218" lon="-0.92377">
        <ele>20.8056641</ele>
        <time>2015-09-20T07:51:52Z</time>
      </trkpt>
      <trkpt lat="44.59218" lon="-0.92332">
        <ele>24.1702881</ele>
        <time>2015-09-20T07:51:59Z</time>
      </trkpt>
      <trkpt lat="44.5922" lon="-0.92321">
        <ele>23.2089844</ele>
        <time>2015-09-20T07:52:01Z</time>
      </trkpt>
      <trkpt lat="44.59221" lon="-0.92303">
        <ele>23.6895752</ele>
        <time>2015-09-20T07:52:04Z</time>
      </trkpt>
      <trkpt lat="44.59222" lon="-0.92289">
        <ele>22.7282715</ele>
        <time>2015-09-20T07:52:07Z</time>
      </trkpt>
      <trkpt lat="44.59229" lon="-0.92252">
        <ele>21.286377</ele>
        <time>2015-09-20T07:52:15Z</time>
      </trkpt>
      <trkpt lat="44.59236" lon="-0.92237">
        <ele>21.7669678</ele>
        <time>2015-09-20T07:52:19Z</time>
      </trkpt>
      <trkpt lat="44.59248" lon="-0.92223">
        <ele>18.8830566</ele>
        <time>2015-09-20T07:52:23Z</time>
      </trkpt>
      <trkpt lat="44.59256" lon="-0.92209">
        <ele>18.8830566</ele>
        <time>2015-09-20T07:52:27Z</time>
      </trkpt>
      <trkpt lat="44.59267" lon="-0.9219">
        <ele>19.3637695</ele>
        <time>2015-09-20T07:52:31Z</time>
      </trkpt>
      <trkpt lat="44.5928" lon="-0.92169">
        <ele>19.8443604</ele>
        <time>2015-09-20T07:52:36Z</time>
      </trkpt>
      <trkpt lat="44.59303" lon="-0.92143">
        <ele>16.9604492</ele>
        <time>2015-09-20T07:52:42Z</time>
      </trkpt>
      <trkpt lat="44.59314" lon="-0.92129">
        <ele>15.9990234</ele>
        <time>2015-09-20T07:52:45Z</time>
      </trkpt>
      <trkpt lat="44.5934" lon="-0.92102">
        <ele>18.8830566</ele>
        <time>2015-09-20T07:52:51Z</time>
      </trkpt>
      <trkpt lat="44.59355" lon="-0.92081">
        <ele>18.4023438</ele>
        <time>2015-09-20T07:52:56Z</time>
      </trkpt>
      <trkpt lat="44.59362" lon="-0.92073">
        <ele>18.4023438</ele>
        <time>2015-09-20T07:52:58Z</time>
      </trkpt>
      <trkpt lat="44.59376" lon="-0.92054">
        <ele>15.9990234</ele>
        <time>2015-09-20T07:53:02Z</time>
      </trkpt>
      <trkpt lat="44.59405" lon="-0.92026">
        <ele>15.5184326</ele>
        <time>2015-09-20T07:53:09Z</time>
      </trkpt>
      <trkpt lat="44.59424" lon="-0.92003">
        <ele>15.9990234</ele>
        <time>2015-09-20T07:53:14Z</time>
      </trkpt>
      <trkpt lat="44.59449" lon="-0.9197">
        <ele>16.9604492</ele>
        <time>2015-09-20T07:53:22Z</time>
      </trkpt>
      <trkpt lat="44.59454" lon="-0.91963">
        <ele>17.9217529</ele>
        <time>2015-09-20T07:53:24Z</time>
      </trkpt>
      <trkpt lat="44.59455" lon="-0.91956">
        <ele>18.4023438</ele>
        <time>2015-09-20T07:53:28Z</time>
      </trkpt>
      <trkpt lat="44.59449" lon="-0.91945">
        <ele>17.9217529</ele>
        <time>2015-09-20T07:53:34Z</time>
      </trkpt>
      <trkpt lat="44.59434" lon="-0.91924">
        <ele>18.8830566</ele>
        <time>2015-09-20T07:53:39Z</time>
      </trkpt>
      <trkpt lat="44.59419" lon="-0.91905">
        <ele>22.7282715</ele>
        <time>2015-09-20T07:53:43Z</time>
      </trkpt>
      <trkpt lat="44.5941" lon="-0.91886">
        <ele>25.1317139</ele>
        <time>2015-09-20T07:53:47Z</time>
      </trkpt>
      <trkpt lat="44.5939" lon="-0.91859">
        <ele>28.0155029</ele>
        <time>2015-09-20T07:53:52Z</time>
      </trkpt>
      <trkpt lat="44.59358" lon="-0.91821">
        <ele>30.8995361</ele>
        <time>2015-09-20T07:54:00Z</time>
      </trkpt>
      <trkpt lat="44.59355" lon="-0.91818">
        <ele>29.4575195</ele>
        <time>2015-09-20T07:54:01Z</time>
      </trkpt>
      <trkpt lat="44.59322" lon="-0.91782">
        <ele>26.0928955</ele>
        <time>2015-09-20T07:54:09Z</time>
      </trkpt>
      <trkpt lat="44.59287" lon="-0.91744">
        <ele>21.7669678</ele>
        <time>2015-09-20T07:54:18Z</time>
      </trkpt>
      <trkpt lat="44.59255" lon="-0.91712">
        <ele>18.8830566</ele>
        <time>2015-09-20T07:54:26Z</time>
      </trkpt>
      <trkpt lat="44.59228" lon="-0.91684">
        <ele>17.4411621</ele>
        <time>2015-09-20T07:54:33Z</time>
      </trkpt>
      <trkpt lat="44.59203" lon="-0.91659">
        <ele>23.2089844</ele>
        <time>2015-09-20T07:54:39Z</time>
      </trkpt>
      <trkpt lat="44.59195" lon="-0.91652">
        <ele>23.6895752</ele>
        <time>2015-09-20T07:54:41Z</time>
      </trkpt>
      <trkpt lat="44.59164" lon="-0.91624">
        <ele>30.8995361</ele>
        <time>2015-09-20T07:54:48Z</time>
      </trkpt>
      <trkpt lat="44.5913" lon="-0.91593">
        <ele>40.0321045</ele>
        <time>2015-09-20T07:54:55Z</time>
      </trkpt>
      <trkpt lat="44.59102" lon="-0.91567">
        <ele>29.9381104</ele>
        <time>2015-09-20T07:55:03Z</time>
      </trkpt>
      <trkpt lat="44.59093" lon="-0.91558">
        <ele>28.9769287</ele>
        <time>2015-09-20T07:55:06Z</time>
      </trkpt>
      <trkpt lat="44.59077" lon="-0.91539">
        <ele>27.5349121</ele>
        <time>2015-09-20T07:55:12Z</time>
      </trkpt>
      <trkpt lat="44.59058" lon="-0.91525">
        <ele>28.9769287</ele>
        <time>2015-09-20T07:55:17Z</time>
      </trkpt>
      <trkpt lat="44.5904" lon="-0.91507">
        <ele>26.0928955</ele>
        <time>2015-09-20T07:55:21Z</time>
      </trkpt>
      <trkpt lat="44.59003" lon="-0.9147">
        <ele>26.0928955</ele>
        <time>2015-09-20T07:55:29Z</time>
      </trkpt>
      <trkpt lat="44.58967" lon="-0.91437">
        <ele>22.7282715</ele>
        <time>2015-09-20T07:55:37Z</time>
      </trkpt>
      <trkpt lat="44.58946" lon="-0.91416">
        <ele>26.0928955</ele>
        <time>2015-09-20T07:55:42Z</time>
      </trkpt>
      <trkpt lat="44.58938" lon="-0.91408">
        <ele>24.1702881</ele>
        <time>2015-09-20T07:55:44Z</time>
      </trkpt>
      <trkpt lat="44.58929" lon="-0.91399">
        <ele>25.6123047</ele>
        <time>2015-09-20T07:55:46Z</time>
      </trkpt>
      <trkpt lat="44.5891" lon="-0.91379">
        <ele>29.9381104</ele>
        <time>2015-09-20T07:55:50Z</time>
      </trkpt>
      <trkpt lat="44.58872" lon="-0.91348">
        <ele>27.0543213</ele>
        <time>2015-09-20T07:55:58Z</time>
      </trkpt>
      <trkpt lat="44.58825" lon="-0.91303">
        <ele>28.0155029</ele>
        <time>2015-09-20T07:56:08Z</time>
      </trkpt>
      <trkpt lat="44.58789" lon="-0.91266">
        <ele>29.4575195</ele>
        <time>2015-09-20T07:56:16Z</time>
      </trkpt>
      <trkpt lat="44.58781" lon="-0.91259">
        <ele>27.5349121</ele>
        <time>2015-09-20T07:56:18Z</time>
      </trkpt>
      <trkpt lat="44.58755" lon="-0.91233">
        <ele>26.5736084</ele>
        <time>2015-09-20T07:56:24Z</time>
      </trkpt>
      <trkpt lat="44.58726" lon="-0.91206">
        <ele>33.7834473</ele>
        <time>2015-09-20T07:56:30Z</time>
      </trkpt>
      <trkpt lat="44.58704" lon="-0.91184">
        <ele>32.8222656</ele>
        <time>2015-09-20T07:56:35Z</time>
      </trkpt>
      <trkpt lat="44.587" lon="-0.91181">
        <ele>32.3415527</ele>
        <time>2015-09-20T07:56:36Z</time>
      </trkpt>
      <trkpt lat="44.58692" lon="-0.91172">
        <ele>32.3415527</ele>
        <time>2015-09-20T07:56:38Z</time>
      </trkpt>
      <trkpt lat="44.58664" lon="-0.91147">
        <ele>35.7060547</ele>
        <time>2015-09-20T07:56:44Z</time>
      </trkpt>
      <trkpt lat="44.58642" lon="-0.91125">
        <ele>37.1480713</ele>
        <time>2015-09-20T07:56:49Z</time>
      </trkpt>
      <trkpt lat="44.58613" lon="-0.91102">
        <ele>39.5512695</ele>
        <time>2015-09-20T07:56:55Z</time>
      </trkpt>
      <trkpt lat="44.5859" lon="-0.9108">
        <ele>42.9160156</ele>
        <time>2015-09-20T07:57:00Z</time>
      </trkpt>
      <trkpt lat="44.58563" lon="-0.91052">
        <ele>52.048584</ele>
        <time>2015-09-20T07:57:05Z</time>
      </trkpt>
      <trkpt lat="44.58541" lon="-0.91032">
        <ele>49.6452637</ele>
        <time>2015-09-20T07:57:10Z</time>
      </trkpt>
      <trkpt lat="44.58532" lon="-0.91024">
        <ele>47.2418213</ele>
        <time>2015-09-20T07:57:12Z</time>
      </trkpt>
      <trkpt lat="44.58505" lon="-0.91002">
        <ele>53.9711914</ele>
        <time>2015-09-20T07:57:17Z</time>
      </trkpt>
      <trkpt lat="44.58472" lon="-0.90972">
        <ele>50.6065674</ele>
        <time>2015-09-20T07:57:24Z</time>
      </trkpt>
      <trkpt lat="44.58449" lon="-0.90952">
        <ele>48.2033691</ele>
        <time>2015-09-20T07:57:29Z</time>
      </trkpt>
      <trkpt lat="44.58444" lon="-0.90948">
        <ele>45.7999268</ele>
        <time>2015-09-20T07:57:30Z</time>
      </trkpt>
      <trkpt lat="44.58419" lon="-0.90922">
        <ele>45.3192139</ele>
        <time>2015-09-20T07:57:35Z</time>
      </trkpt>
      <trkpt lat="44.5839" lon="-0.90891">
        <ele>48.68396</ele>
        <time>2015-09-20T07:57:41Z</time>
      </trkpt>
      <trkpt lat="44.58364" lon="-0.90865">
        <ele>40.9934082</ele>
        <time>2015-09-20T07:57:47Z</time>
      </trkpt>
      <trkpt lat="44.58333" lon="-0.90836">
        <ele>41.473999</ele>
        <time>2015-09-20T07:57:54Z</time>
      </trkpt>
      <trkpt lat="44.58309" lon="-0.90808">
        <ele>42.9160156</ele>
        <time>2015-09-20T07:57:59Z</time>
      </trkpt>
      <trkpt lat="44.58296" lon="-0.90796">
        <ele>40.0321045</ele>
        <time>2015-09-20T07:58:02Z</time>
      </trkpt>
      <trkpt lat="44.58282" lon="-0.90783">
        <ele>38.109375</ele>
        <time>2015-09-20T07:58:05Z</time>
      </trkpt>
      <trkpt lat="44.58249" lon="-0.90753">
        <ele>40.9934082</ele>
        <time>2015-09-20T07:58:11Z</time>
      </trkpt>
      <trkpt lat="44.58219" lon="-0.90722">
        <ele>40.9934082</ele>
        <time>2015-09-20T07:58:17Z</time>
      </trkpt>
      <trkpt lat="44.58196" lon="-0.90699">
        <ele>37.6286621</ele>
        <time>2015-09-20T07:58:22Z</time>
      </trkpt>
      <trkpt lat="44.58155" lon="-0.9066">
        <ele>40.5128174</ele>
        <time>2015-09-20T07:58:30Z</time>
      </trkpt>
      <trkpt lat="44.58135" lon="-0.90643">
        <ele>36.1867676</ele>
        <time>2015-09-20T07:58:34Z</time>
      </trkpt>
      <trkpt lat="44.58096" lon="-0.90603">
        <ele>29.9381104</ele>
        <time>2015-09-20T07:58:42Z</time>
      </trkpt>
      <trkpt lat="44.58082" lon="-0.90589">
        <ele>27.5349121</ele>
        <time>2015-09-20T07:58:45Z</time>
      </trkpt>
      <trkpt lat="44.5805" lon="-0.90556">
        <ele>29.9381104</ele>
        <time>2015-09-20T07:58:51Z</time>
      </trkpt>
      <trkpt lat="44.58025" lon="-0.90533">
        <ele>33.3028564</ele>
        <time>2015-09-20T07:58:56Z</time>
      </trkpt>
      <trkpt lat="44.58007" lon="-0.90518">
        <ele>28.4962158</ele>
        <time>2015-09-20T07:59:00Z</time>
      </trkpt>
      <trkpt lat="44.57977" lon="-0.90494">
        <ele>37.1480713</ele>
        <time>2015-09-20T07:59:05Z</time>
      </trkpt>
      <trkpt lat="44.57971" lon="-0.90489">
        <ele>39.0706787</ele>
        <time>2015-09-20T07:59:06Z</time>
      </trkpt>
      <trkpt lat="44.57941" lon="-0.90455">
        <ele>41.473999</ele>
        <time>2015-09-20T07:59:12Z</time>
      </trkpt>
      <trkpt lat="44.5793" lon="-0.90443">
        <ele>42.9160156</ele>
        <time>2015-09-20T07:59:14Z</time>
      </trkpt>
      <trkpt lat="44.57877" lon="-0.90392">
        <ele>34.744873</ele>
        <time>2015-09-20T07:59:25Z</time>
      </trkpt>
      <trkpt lat="44.57834" lon="-0.90347">
        <ele>24.1702881</ele>
        <time>2015-09-20T07:59:35Z</time>
      </trkpt>
      <trkpt lat="44.57807" lon="-0.90317">
        <ele>23.2089844</ele>
        <time>2015-09-20T07:59:41Z</time>
      </trkpt>
      <trkpt lat="44.5778" lon="-0.90283">
        <ele>15.9990234</ele>
        <time>2015-09-20T07:59:48Z</time>
      </trkpt>
      <trkpt lat="44.5775" lon="-0.9025">
        <ele>14.076416</ele>
        <time>2015-09-20T07:59:55Z</time>
      </trkpt>
      <trkpt lat="44.57721" lon="-0.90218">
        <ele>20.8056641</ele>
        <time>2015-09-20T08:00:01Z</time>
      </trkpt>
      <trkpt lat="44.57694" lon="-0.90187">
        <ele>21.7669678</ele>
        <time>2015-09-20T08:00:07Z</time>
      </trkpt>
      <trkpt lat="44.57662" lon="-0.90149">
        <ele>28.0155029</ele>
        <time>2015-09-20T08:00:14Z</time>
      </trkpt>
      <trkpt lat="44.57626" lon="-0.90104">
        <ele>33.3028564</ele>
        <time>2015-09-20T08:00:22Z</time>
      </trkpt>
      <trkpt lat="44.57593" lon="-0.9006">
        <ele>28.4962158</ele>
        <time>2015-09-20T08:00:30Z</time>
      </trkpt>
      <trkpt lat="44.57543" lon="-0.89994">
        <ele>25.6123047</ele>
        <time>2015-09-20T08:00:42Z</time>
      </trkpt>
      <trkpt lat="44.57516" lon="-0.89955">
        <ele>22.2475586</ele>
        <time>2015-09-20T08:00:49Z</time>
      </trkpt>
      <trkpt lat="44.57508" lon="-0.89944">
        <ele>19.8443604</ele>
        <time>2015-09-20T08:00:51Z</time>
      </trkpt>
      <trkpt lat="44.57479" lon="-0.89903">
        <ele>18.8830566</ele>
        <time>2015-09-20T08:00:58Z</time>
      </trkpt>
      <trkpt lat="44.5744" lon="-0.89846">
        <ele>16.4797363</ele>
        <time>2015-09-20T08:01:08Z</time>
      </trkpt>
      <trkpt lat="44.57399" lon="-0.89786">
        <ele>18.4023438</ele>
        <time>2015-09-20T08:01:18Z</time>
      </trkpt>
      <trkpt lat="44.57353" lon="-0.89722">
        <ele>21.286377</ele>
        <time>2015-09-20T08:01:29Z</time>
      </trkpt>
      <trkpt lat="44.57313" lon="-0.89667">
        <ele>35.7060547</ele>
        <time>2015-09-20T08:01:38Z</time>
      </trkpt>
      <trkpt lat="44.57287" lon="-0.8963">
        <ele>39.0706787</ele>
        <time>2015-09-20T08:01:44Z</time>
      </trkpt>
      <trkpt lat="44.57266" lon="-0.89602">
        <ele>40.5128174</ele>
        <time>2015-09-20T08:01:49Z</time>
      </trkpt>
      <trkpt lat="44.57238" lon="-0.89565">
        <ele>44.838623</ele>
        <time>2015-09-20T08:01:55Z</time>
      </trkpt>
      <trkpt lat="44.57221" lon="-0.8954">
        <ele>44.838623</ele>
        <time>2015-09-20T08:01:59Z</time>
      </trkpt>
      <trkpt lat="44.57207" lon="-0.89519">
        <ele>48.68396</ele>
        <time>2015-09-20T08:02:02Z</time>
      </trkpt>
      <trkpt lat="44.57197" lon="-0.89504">
        <ele>53.0097656</ele>
        <time>2015-09-20T08:02:04Z</time>
      </trkpt>
      <trkpt lat="44.57171" lon="-0.89465">
        <ele>46.2806396</ele>
        <time>2015-09-20T08:02:11Z</time>
      </trkpt>
      <trkpt lat="44.5715" lon="-0.89434">
        <ele>43.8773193</ele>
        <time>2015-09-20T08:02:16Z</time>
      </trkpt>
      <trkpt lat="44.57146" lon="-0.89427">
        <ele>43.8773193</ele>
        <time>2015-09-20T08:02:17Z</time>
      </trkpt>
      <trkpt lat="44.57123" lon="-0.89396">
        <ele>34.2641602</ele>
        <time>2015-09-20T08:02:23Z</time>
      </trkpt>
      <trkpt lat="44.57109" lon="-0.89375">
        <ele>35.2254639</ele>
        <time>2015-09-20T08:02:27Z</time>
      </trkpt>
      <trkpt lat="44.57103" lon="-0.89363">
        <ele>33.7834473</ele>
        <time>2015-09-20T08:02:30Z</time>
      </trkpt>
      <trkpt lat="44.571" lon="-0.89358">
        <ele>33.3028564</ele>
        <time>2015-09-20T08:02:32Z</time>
      </trkpt>
      <trkpt lat="44.57093" lon="-0.89348">
        <ele>31.380127</ele>
        <time>2015-09-20T08:02:37Z</time>
      </trkpt>
      <trkpt lat="44.57085" lon="-0.89354">
        <ele>25.1317139</ele>
        <time>2015-09-20T08:02:42Z</time>
      </trkpt>
      <trkpt lat="44.57084" lon="-0.89356">
        <ele>24.1702881</ele>
        <time>2015-09-20T08:02:43Z</time>
      </trkpt>
      <trkpt lat="44.57077" lon="-0.89355">
        <ele>22.2475586</ele>
        <time>2015-09-20T08:02:47Z</time>
      </trkpt>
      <trkpt lat="44.57066" lon="-0.89355">
        <ele>20.8056641</ele>
        <time>2015-09-20T08:02:51Z</time>
      </trkpt>
      <trkpt lat="44.57056" lon="-0.89339">
        <ele>17.4411621</ele>
        <time>2015-09-20T08:02:57Z</time>
      </trkpt>
      <trkpt lat="44.57051" lon="-0.89331">
        <ele>16.9604492</ele>
        <time>2015-09-20T08:02:59Z</time>
      </trkpt>
      <trkpt lat="44.57036" lon="-0.89309">
        <ele>19.3637695</ele>
        <time>2015-09-20T08:03:05Z</time>
      </trkpt>
      <trkpt lat="44.57028" lon="-0.89301">
        <ele>24.651001</ele>
        <time>2015-09-20T08:03:08Z</time>
      </trkpt>
      <trkpt lat="44.57016" lon="-0.89303">
        <ele>27.5349121</ele>
        <time>2015-09-20T08:03:14Z</time>
      </trkpt>
      <trkpt lat="44.57013" lon="-0.89306">
        <ele>28.9769287</ele>
        <time>2015-09-20T08:03:19Z</time>
      </trkpt>
      <trkpt lat="44.5701" lon="-0.89309">
        <ele>28.4962158</ele>
        <time>2015-09-20T08:03:26Z</time>
      </trkpt>
      <trkpt lat="44.57005" lon="-0.89317">
        <ele>23.6895752</ele>
        <time>2015-09-20T08:03:31Z</time>
      </trkpt>
      <trkpt lat="44.57002" lon="-0.89323">
        <ele>21.7669678</ele>
        <time>2015-09-20T08:03:33Z</time>
      </trkpt>
      <trkpt lat="44.56992" lon="-0.89336">
        <ele>17.9217529</ele>
        <time>2015-09-20T08:03:37Z</time>
      </trkpt>
      <trkpt lat="44.56977" lon="-0.89333">
        <ele>15.0377197</ele>
        <time>2015-09-20T08:03:43Z</time>
      </trkpt>
      <trkpt lat="44.56967" lon="-0.89334">
        <ele>10.711792</ele>
        <time>2015-09-20T08:03:48Z</time>
      </trkpt>
      <trkpt lat="44.56955" lon="-0.89326">
        <ele>12.6343994</ele>
        <time>2015-09-20T08:03:54Z</time>
      </trkpt>
      <trkpt lat="44.56949" lon="-0.89319">
        <ele>11.6732178</ele>
        <time>2015-09-20T08:03:59Z</time>
      </trkpt>
      <trkpt lat="44.56947" lon="-0.89307">
        <ele>12.6343994</ele>
        <time>2015-09-20T08:04:03Z</time>
      </trkpt>
      <trkpt lat="44.56949" lon="-0.89282">
        <ele>14.5570068</ele>
        <time>2015-09-20T08:04:09Z</time>
      </trkpt>
      <trkpt lat="44.5695" lon="-0.89271">
        <ele>17.9217529</ele>
        <time>2015-09-20T08:04:12Z</time>
      </trkpt>
      <trkpt lat="44.56958" lon="-0.89254">
        <ele>19.8443604</ele>
        <time>2015-09-20T08:04:18Z</time>
      </trkpt>
      <trkpt lat="44.56969" lon="-0.8924">
        <ele>18.4023438</ele>
        <time>2015-09-20T08:04:23Z</time>
      </trkpt>
      <trkpt lat="44.56971" lon="-0.89234">
        <ele>20.3249512</ele>
        <time>2015-09-20T08:04:25Z</time>
      </trkpt>
      <trkpt lat="44.56983" lon="-0.89227">
        <ele>21.286377</ele>
        <time>2015-09-20T08:04:29Z</time>
      </trkpt>
      <trkpt lat="44.56994" lon="-0.89222">
        <ele>21.7669678</ele>
        <time>2015-09-20T08:04:32Z</time>
      </trkpt>
      <trkpt lat="44.56994" lon="-0.8921">
        <ele>21.286377</ele>
        <time>2015-09-20T08:04:36Z</time>
      </trkpt>
      <trkpt lat="44.56985" lon="-0.89195">
        <ele>23.2089844</ele>
        <time>2015-09-20T08:04:42Z</time>
      </trkpt>
      <trkpt lat="44.56982" lon="-0.89189">
        <ele>24.1702881</ele>
        <time>2015-09-20T08:04:44Z</time>
      </trkpt>
      <trkpt lat="44.5697" lon="-0.89171">
        <ele>24.1702881</ele>
        <time>2015-09-20T08:04:50Z</time>
      </trkpt>
      <trkpt lat="44.56957" lon="-0.89154">
        <ele>28.0155029</ele>
        <time>2015-09-20T08:04:56Z</time>
      </trkpt>
      <trkpt lat="44.56947" lon="-0.89143">
        <ele>27.0543213</ele>
        <time>2015-09-20T08:05:01Z</time>
      </trkpt>
      <trkpt lat="44.56937" lon="-0.89128">
        <ele>28.4962158</ele>
        <time>2015-09-20T08:05:05Z</time>
      </trkpt>
      <trkpt lat="44.56925" lon="-0.89107">
        <ele>28.0155029</ele>
        <time>2015-09-20T08:05:11Z</time>
      </trkpt>
      <trkpt lat="44.56913" lon="-0.8909">
        <ele>31.380127</ele>
        <time>2015-09-20T08:05:16Z</time>
      </trkpt>
      <trkpt lat="44.56897" lon="-0.89072">
        <ele>33.7834473</ele>
        <time>2015-09-20T08:05:22Z</time>
      </trkpt>
      <trkpt lat="44.56898" lon="-0.89076">
        <ele>28.9769287</ele>
        <time>2015-09-20T08:05:26Z</time>
      </trkpt>
      <trkpt lat="44.56903" lon="-0.89084">
        <ele>27.0543213</ele>
        <time>2015-09-20T08:05:29Z</time>
      </trkpt>
      <trkpt lat="44.5692" lon="-0.89111">
        <ele>30.4188232</ele>
        <time>2015-09-20T08:05:36Z</time>
      </trkpt>
      <trkpt lat="44.5693" lon="-0.89134">
        <ele>36.1867676</ele>
        <time>2015-09-20T08:05:41Z</time>
      </trkpt>
      <trkpt lat="44.56929" lon="-0.89146">
        <ele>37.6286621</ele>
        <time>2015-09-20T08:05:44Z</time>
      </trkpt>
      <trkpt lat="44.56919" lon="-0.89159">
        <ele>32.8222656</ele>
        <time>2015-09-20T08:05:49Z</time>
      </trkpt>
      <trkpt lat="44.56919" lon="-0.89162">
        <ele>31.8607178</ele>
        <time>2015-09-20T08:05:50Z</time>
      </trkpt>
      <trkpt lat="44.56912" lon="-0.89184">
        <ele>29.4575195</ele>
        <time>2015-09-20T08:05:55Z</time>
      </trkpt>
      <trkpt lat="44.56903" lon="-0.89193">
        <ele>25.6123047</ele>
        <time>2015-09-20T08:05:59Z</time>
      </trkpt>
      <trkpt lat="44.56895" lon="-0.89211">
        <ele>22.2475586</ele>
        <time>2015-09-20T08:06:03Z</time>
      </trkpt>
      <trkpt lat="44.56887" lon="-0.8923">
        <ele>18.4023438</ele>
        <time>2015-09-20T08:06:08Z</time>
      </trkpt>
      <trkpt lat="44.56882" lon="-0.89249">
        <ele>17.9217529</ele>
        <time>2015-09-20T08:06:13Z</time>
      </trkpt>
      <trkpt lat="44.56878" lon="-0.89269">
        <ele>23.6895752</ele>
        <time>2015-09-20T08:06:17Z</time>
      </trkpt>
      <trkpt lat="44.56879" lon="-0.89285">
        <ele>26.0928955</ele>
        <time>2015-09-20T08:06:21Z</time>
      </trkpt>
      <trkpt lat="44.56878" lon="-0.89307">
        <ele>28.9769287</ele>
        <time>2015-09-20T08:06:26Z</time>
      </trkpt>
      <trkpt lat="44.56872" lon="-0.89329">
        <ele>28.9769287</ele>
        <time>2015-09-20T08:06:31Z</time>
      </trkpt>
      <trkpt lat="44.5687" lon="-0.89338">
        <ele>27.5349121</ele>
        <time>2015-09-20T08:06:33Z</time>
      </trkpt>
      <trkpt lat="44.56861" lon="-0.89352">
        <ele>27.0543213</ele>
        <time>2015-09-20T08:06:38Z</time>
      </trkpt>
      <trkpt lat="44.56858" lon="-0.89363">
        <ele>27.0543213</ele>
        <time>2015-09-20T08:06:42Z</time>
      </trkpt>
      <trkpt lat="44.56852" lon="-0.89378">
        <ele>27.0543213</ele>
        <time>2015-09-20T08:06:47Z</time>
      </trkpt>
      <trkpt lat="44.56854" lon="-0.89392">
        <ele>26.0928955</ele>
        <time>2015-09-20T08:06:51Z</time>
      </trkpt>
      <trkpt lat="44.56849" lon="-0.89403">
        <ele>26.0928955</ele>
        <time>2015-09-20T08:06:55Z</time>
      </trkpt>
      <trkpt lat="44.56841" lon="-0.89415">
        <ele>25.1317139</ele>
        <time>2015-09-20T08:07:00Z</time>
      </trkpt>
      <trkpt lat="44.56828" lon="-0.89428">
        <ele>21.7669678</ele>
        <time>2015-09-20T08:07:06Z</time>
      </trkpt>
      <trkpt lat="44.56818" lon="-0.89434">
        <ele>25.6123047</ele>
        <time>2015-09-20T08:07:09Z</time>
      </trkpt>
      <trkpt lat="44.56811" lon="-0.89452">
        <ele>28.9769287</ele>
        <time>2015-09-20T08:07:15Z</time>
      </trkpt>
      <trkpt lat="44.56802" lon="-0.89465">
        <ele>25.1317139</ele>
        <time>2015-09-20T08:07:19Z</time>
      </trkpt>
      <trkpt lat="44.56793" lon="-0.89473">
        <ele>21.7669678</ele>
        <time>2015-09-20T08:07:23Z</time>
      </trkpt>
      <trkpt lat="44.5679" lon="-0.89473">
        <ele>21.7669678</ele>
        <time>2015-09-20T08:07:24Z</time>
      </trkpt>
      <trkpt lat="44.56778" lon="-0.89477">
        <ele>16.4797363</ele>
        <time>2015-09-20T08:07:30Z</time>
      </trkpt>
      <trkpt lat="44.56767" lon="-0.89488">
        <ele>15.5184326</ele>
        <time>2015-09-20T08:07:35Z</time>
      </trkpt>
      <trkpt lat="44.56764" lon="-0.895">
        <ele>16.9604492</ele>
        <time>2015-09-20T08:07:39Z</time>
      </trkpt>
      <trkpt lat="44.56764" lon="-0.89503">
        <ele>17.9217529</ele>
        <time>2015-09-20T08:07:40Z</time>
      </trkpt>
      <trkpt lat="44.56764" lon="-0.89508">
        <ele>20.3249512</ele>
        <time>2015-09-20T08:07:43Z</time>
      </trkpt>
      <trkpt lat="44.56764" lon="-0.89517">
        <ele>26.0928955</ele>
        <time>2015-09-20T08:07:48Z</time>
      </trkpt>
      <trkpt lat="44.56765" lon="-0.89523">
        <ele>31.380127</ele>
        <time>2015-09-20T08:07:56Z</time>
      </trkpt>
      <trkpt lat="44.56761" lon="-0.89539">
        <ele>20.8056641</ele>
        <time>2015-09-20T08:08:24Z</time>
      </trkpt>
      <trkpt lat="44.56768" lon="-0.89545">
        <ele>25.1317139</ele>
        <time>2015-09-20T08:08:28Z</time>
      </trkpt>
      <trkpt lat="44.56771" lon="-0.89549">
        <ele>26.5736084</ele>
        <time>2015-09-20T08:08:30Z</time>
      </trkpt>
      <trkpt lat="44.56764" lon="-0.89559">
        <ele>30.4188232</ele>
        <time>2015-09-20T08:08:35Z</time>
      </trkpt>
      <trkpt lat="44.56762" lon="-0.89556">
        <ele>28.9769287</ele>
        <time>2015-09-20T08:08:37Z</time>
      </trkpt>
      <trkpt lat="44.56758" lon="-0.89548">
        <ele>28.4962158</ele>
        <time>2015-09-20T08:08:41Z</time>
      </trkpt>
      <trkpt lat="44.56752" lon="-0.89551">
        <ele>28.4962158</ele>
        <time>2015-09-20T08:08:46Z</time>
      </trkpt>
      <trkpt lat="44.56746" lon="-0.89549">
        <ele>28.0155029</ele>
        <time>2015-09-20T08:08:50Z</time>
      </trkpt>
      <trkpt lat="44.56742" lon="-0.89551">
        <ele>27.5349121</ele>
        <time>2015-09-20T08:08:53Z</time>
      </trkpt>
      <trkpt lat="44.56739" lon="-0.89559">
        <ele>28.9769287</ele>
        <time>2015-09-20T08:08:58Z</time>
      </trkpt>
      <trkpt lat="44.56737" lon="-0.89566">
        <ele>28.9769287</ele>
        <time>2015-09-20T08:09:02Z</time>
      </trkpt>
      <trkpt lat="44.56737" lon="-0.89579">
        <ele>31.8607178</ele>
        <time>2015-09-20T08:09:07Z</time>
      </trkpt>
      <trkpt lat="44.56739" lon="-0.89586">
        <ele>31.380127</ele>
        <time>2015-09-20T08:09:09Z</time>
      </trkpt>
      <trkpt lat="44.56739" lon="-0.89595">
        <ele>29.9381104</ele>
        <time>2015-09-20T08:09:12Z</time>
      </trkpt>
      <trkpt lat="44.56731" lon="-0.89599">
        <ele>27.0543213</ele>
        <time>2015-09-20T08:09:16Z</time>
      </trkpt>
      <trkpt lat="44.56724" lon="-0.89595">
        <ele>21.286377</ele>
        <time>2015-09-20T08:09:22Z</time>
      </trkpt>
      <trkpt lat="44.56715" lon="-0.89592">
        <ele>16.4797363</ele>
        <time>2015-09-20T08:09:26Z</time>
      </trkpt>
      <trkpt lat="44.56701" lon="-0.8959">
        <ele>10.711792</ele>
        <time>2015-09-20T08:09:33Z</time>
      </trkpt>
      <trkpt lat="44.56695" lon="-0.89581">
        <ele>5.9052734</ele>
        <time>2015-09-20T08:09:38Z</time>
      </trkpt>
      <trkpt lat="44.56694" lon="-0.89571">
        <ele>5.4245605</ele>
        <time>2015-09-20T08:09:42Z</time>
      </trkpt>
      <trkpt lat="44.56688" lon="-0.89564">
        <ele>5.9052734</ele>
        <time>2015-09-20T08:09:47Z</time>
      </trkpt>
      <trkpt lat="44.56678" lon="-0.89554">
        <ele>10.711792</ele>
        <time>2015-09-20T08:09:53Z</time>
      </trkpt>
      <trkpt lat="44.56668" lon="-0.89546">
        <ele>12.6343994</ele>
        <time>2015-09-20T08:09:57Z</time>
      </trkpt>
      <trkpt lat="44.56659" lon="-0.89538">
        <ele>15.5184326</ele>
        <time>2015-09-20T08:10:02Z</time>
      </trkpt>
      <trkpt lat="44.56646" lon="-0.89536">
        <ele>16.4797363</ele>
        <time>2015-09-20T08:10:08Z</time>
      </trkpt>
      <trkpt lat="44.56637" lon="-0.89529">
        <ele>15.5184326</ele>
        <time>2015-09-20T08:10:13Z</time>
      </trkpt>
      <trkpt lat="44.56626" lon="-0.89522">
        <ele>15.0377197</ele>
        <time>2015-09-20T08:10:19Z</time>
      </trkpt>
      <trkpt lat="44.56621" lon="-0.89516">
        <ele>12.6343994</ele>
        <time>2015-09-20T08:10:22Z</time>
      </trkpt>
      <trkpt lat="44.56616" lon="-0.89508">
        <ele>9.2698975</ele>
        <time>2015-09-20T08:10:26Z</time>
      </trkpt>
      <trkpt lat="44.56611" lon="-0.89495">
        <ele>5.4245605</ele>
        <time>2015-09-20T08:10:32Z</time>
      </trkpt>
      <trkpt lat="44.56604" lon="-0.89501">
        <ele>4.9438477</ele>
        <time>2015-09-20T08:10:36Z</time>
      </trkpt>
      <trkpt lat="44.56594" lon="-0.89498">
        <ele>4.9438477</ele>
        <time>2015-09-20T08:10:40Z</time>
      </trkpt>
      <trkpt lat="44.56585" lon="-0.89491">
        <ele>7.347168</ele>
        <time>2015-09-20T08:10:44Z</time>
      </trkpt>
      <trkpt lat="44.56572" lon="-0.89478">
        <ele>13.1151123</ele>
        <time>2015-09-20T08:10:51Z</time>
      </trkpt>
      <trkpt lat="44.56565" lon="-0.89468">
        <ele>15.5184326</ele>
        <time>2015-09-20T08:10:55Z</time>
      </trkpt>
      <trkpt lat="44.56555" lon="-0.89463">
        <ele>18.4023438</ele>
        <time>2015-09-20T08:11:00Z</time>
      </trkpt>
      <trkpt lat="44.56544" lon="-0.89456">
        <ele>20.8056641</ele>
        <time>2015-09-20T08:11:04Z</time>
      </trkpt>
      <trkpt lat="44.56529" lon="-0.89446">
        <ele>18.8830566</ele>
        <time>2015-09-20T08:11:11Z</time>
      </trkpt>
      <trkpt lat="44.56516" lon="-0.89436">
        <ele>17.9217529</ele>
        <time>2015-09-20T08:11:17Z</time>
      </trkpt>
      <trkpt lat="44.56515" lon="-0.89433">
        <ele>18.4023438</ele>
        <time>2015-09-20T08:11:22Z</time>
      </trkpt>
      <trkpt lat="44.56515" lon="-0.89432">
        <ele>50.1259766</ele>
        <time>2015-09-20T08:14:43Z</time>
      </trkpt>
      <trkpt lat="44.56508" lon="-0.89421">
        <ele>42.4354248</ele>
        <time>2015-09-20T08:14:49Z</time>
      </trkpt>
      <trkpt lat="44.56502" lon="-0.89409">
        <ele>39.5512695</ele>
        <time>2015-09-20T08:14:53Z</time>
      </trkpt>
      <trkpt lat="44.56493" lon="-0.894">
        <ele>39.5512695</ele>
        <time>2015-09-20T08:14:56Z</time>
      </trkpt>
      <trkpt lat="44.56473" lon="-0.89381">
        <ele>35.2254639</ele>
        <time>2015-09-20T08:15:04Z</time>
      </trkpt>
      <trkpt lat="44.56447" lon="-0.89372">
        <ele>29.4575195</ele>
        <time>2015-09-20T08:15:12Z</time>
      </trkpt>
      <trkpt lat="44.56432" lon="-0.89364">
        <ele>28.0155029</ele>
        <time>2015-09-20T08:15:17Z</time>
      </trkpt>
      <trkpt lat="44.56415" lon="-0.89355">
        <ele>28.9769287</ele>
        <time>2015-09-20T08:15:22Z</time>
      </trkpt>
      <trkpt lat="44.56385" lon="-0.89344">
        <ele>32.3415527</ele>
        <time>2015-09-20T08:15:30Z</time>
      </trkpt>
      <trkpt lat="44.56368" lon="-0.89335">
        <ele>35.7060547</ele>
        <time>2015-09-20T08:15:35Z</time>
      </trkpt>
      <trkpt lat="44.56349" lon="-0.89325">
        <ele>37.1480713</ele>
        <time>2015-09-20T08:15:41Z</time>
      </trkpt>
      <trkpt lat="44.56331" lon="-0.89322">
        <ele>32.8222656</ele>
        <time>2015-09-20T08:15:47Z</time>
      </trkpt>
      <trkpt lat="44.5631" lon="-0.8931">
        <ele>31.8607178</ele>
        <time>2015-09-20T08:15:54Z</time>
      </trkpt>
      <trkpt lat="44.56297" lon="-0.89301">
        <ele>34.2641602</ele>
        <time>2015-09-20T08:16:00Z</time>
      </trkpt>
      <trkpt lat="44.56293" lon="-0.89301">
        <ele>26.0928955</ele>
        <time>2015-09-20T08:16:06Z</time>
      </trkpt>
      <trkpt lat="44.56286" lon="-0.89297">
        <ele>15.0377197</ele>
        <time>2015-09-20T08:17:04Z</time>
      </trkpt>
      <trkpt lat="44.5628" lon="-0.8929">
        <ele>13.5958252</ele>
        <time>2015-09-20T08:17:09Z</time>
      </trkpt>
      <trkpt lat="44.56264" lon="-0.8928">
        <ele>16.4797363</ele>
        <time>2015-09-20T08:17:15Z</time>
      </trkpt>
      <trkpt lat="44.5624" lon="-0.89272">
        <ele>14.076416</ele>
        <time>2015-09-20T08:17:23Z</time>
      </trkpt>
      <trkpt lat="44.56227" lon="-0.8926">
        <ele>20.8056641</ele>
        <time>2015-09-20T08:17:28Z</time>
      </trkpt>
      <trkpt lat="44.56212" lon="-0.89253">
        <ele>17.9217529</ele>
        <time>2015-09-20T08:17:33Z</time>
      </trkpt>
      <trkpt lat="44.56193" lon="-0.89254">
        <ele>18.4023438</ele>
        <time>2015-09-20T08:17:39Z</time>
      </trkpt>
      <trkpt lat="44.56171" lon="-0.8925">
        <ele>17.9217529</ele>
        <time>2015-09-20T08:17:46Z</time>
      </trkpt>
      <trkpt lat="44.56147" lon="-0.89243">
        <ele>20.3249512</ele>
        <time>2015-09-20T08:17:53Z</time>
      </trkpt>
      <trkpt lat="44.56137" lon="-0.89234">
        <ele>19.3637695</ele>
        <time>2015-09-20T08:17:57Z</time>
      </trkpt>
      <trkpt lat="44.56118" lon="-0.89218">
        <ele>19.3637695</ele>
        <time>2015-09-20T08:18:03Z</time>
      </trkpt>
      <trkpt lat="44.56102" lon="-0.892">
        <ele>28.4962158</ele>
        <time>2015-09-20T08:18:08Z</time>
      </trkpt>
      <trkpt lat="44.56086" lon="-0.89184">
        <ele>30.4188232</ele>
        <time>2015-09-20T08:18:14Z</time>
      </trkpt>
      <trkpt lat="44.56075" lon="-0.89171">
        <ele>29.9381104</ele>
        <time>2015-09-20T08:18:18Z</time>
      </trkpt>
      <trkpt lat="44.56065" lon="-0.89152">
        <ele>30.8995361</ele>
        <time>2015-09-20T08:18:23Z</time>
      </trkpt>
      <trkpt lat="44.56051" lon="-0.89128">
        <ele>32.8222656</ele>
        <time>2015-09-20T08:18:29Z</time>
      </trkpt>
      <trkpt lat="44.56035" lon="-0.89107">
        <ele>40.5128174</ele>
        <time>2015-09-20T08:18:35Z</time>
      </trkpt>
      <trkpt lat="44.56023" lon="-0.89089">
        <ele>40.9934082</ele>
        <time>2015-09-20T08:18:40Z</time>
      </trkpt>
      <trkpt lat="44.56005" lon="-0.89063">
        <ele>34.744873</ele>
        <time>2015-09-20T08:18:47Z</time>
      </trkpt>
      <trkpt lat="44.5599" lon="-0.89038">
        <ele>29.4575195</ele>
        <time>2015-09-20T08:18:53Z</time>
      </trkpt>
      <trkpt lat="44.55985" lon="-0.89031">
        <ele>27.0543213</ele>
        <time>2015-09-20T08:18:55Z</time>
      </trkpt>
      <trkpt lat="44.5598" lon="-0.89009">
        <ele>19.3637695</ele>
        <time>2015-09-20T08:19:00Z</time>
      </trkpt>
      <trkpt lat="44.55961" lon="-0.8899">
        <ele>16.4797363</ele>
        <time>2015-09-20T08:19:05Z</time>
      </trkpt>
      <trkpt lat="44.55957" lon="-0.88988">
        <ele>15.9990234</ele>
        <time>2015-09-20T08:19:06Z</time>
      </trkpt>
      <trkpt lat="44.55948" lon="-0.88987">
        <ele>16.4797363</ele>
        <time>2015-09-20T08:19:08Z</time>
      </trkpt>
      <trkpt lat="44.55935" lon="-0.88979">
        <ele>15.0377197</ele>
        <time>2015-09-20T08:19:12Z</time>
      </trkpt>
      <trkpt lat="44.55912" lon="-0.88949">
        <ele>13.1151123</ele>
        <time>2015-09-20T08:19:20Z</time>
      </trkpt>
      <trkpt lat="44.55902" lon="-0.88937">
        <ele>13.1151123</ele>
        <time>2015-09-20T08:19:23Z</time>
      </trkpt>
      <trkpt lat="44.55885" lon="-0.88919">
        <ele>11.6732178</ele>
        <time>2015-09-20T08:19:28Z</time>
      </trkpt>
      <trkpt lat="44.55857" lon="-0.88885">
        <ele>14.076416</ele>
        <time>2015-09-20T08:19:37Z</time>
      </trkpt>
      <trkpt lat="44.5585" lon="-0.88877">
        <ele>15.0377197</ele>
        <time>2015-09-20T08:19:39Z</time>
      </trkpt>
      <trkpt lat="44.5584" lon="-0.88867">
        <ele>15.5184326</ele>
        <time>2015-09-20T08:19:42Z</time>
      </trkpt>
      <trkpt lat="44.55813" lon="-0.88837">
        <ele>17.9217529</ele>
        <time>2015-09-20T08:19:50Z</time>
      </trkpt>
      <trkpt lat="44.558" lon="-0.88823">
        <ele>17.4411621</ele>
        <time>2015-09-20T08:19:54Z</time>
      </trkpt>
      <trkpt lat="44.55794" lon="-0.88815">
        <ele>18.4023438</ele>
        <time>2015-09-20T08:19:56Z</time>
      </trkpt>
      <trkpt lat="44.55771" lon="-0.88786">
        <ele>15.5184326</ele>
        <time>2015-09-20T08:20:04Z</time>
      </trkpt>
      <trkpt lat="44.55757" lon="-0.88752">
        <ele>16.9604492</ele>
        <time>2015-09-20T08:20:11Z</time>
      </trkpt>
      <trkpt lat="44.55753" lon="-0.88749">
        <ele>16.4797363</ele>
        <time>2015-09-20T08:20:12Z</time>
      </trkpt>
      <trkpt lat="44.55739" lon="-0.88734">
        <ele>15.9990234</ele>
        <time>2015-09-20T08:20:16Z</time>
      </trkpt>
      <trkpt lat="44.55731" lon="-0.8873">
        <ele>14.5570068</ele>
        <time>2015-09-20T08:20:18Z</time>
      </trkpt>
      <trkpt lat="44.5572" lon="-0.88706">
        <ele>14.5570068</ele>
        <time>2015-09-20T08:20:23Z</time>
      </trkpt>
      <trkpt lat="44.55717" lon="-0.88696">
        <ele>14.076416</ele>
        <time>2015-09-20T08:20:25Z</time>
      </trkpt>
      <trkpt lat="44.55701" lon="-0.88653">
        <ele>13.5958252</ele>
        <time>2015-09-20T08:20:33Z</time>
      </trkpt>
      <trkpt lat="44.55688" lon="-0.88632">
        <ele>14.076416</ele>
        <time>2015-09-20T08:20:38Z</time>
      </trkpt>
      <trkpt lat="44.55669" lon="-0.88608">
        <ele>15.0377197</ele>
        <time>2015-09-20T08:20:44Z</time>
      </trkpt>
      <trkpt lat="44.55648" lon="-0.8857">
        <ele>14.5570068</ele>
        <time>2015-09-20T08:20:52Z</time>
      </trkpt>
      <trkpt lat="44.55625" lon="-0.88533">
        <ele>16.4797363</ele>
        <time>2015-09-20T08:21:00Z</time>
      </trkpt>
      <trkpt lat="44.55602" lon="-0.88497">
        <ele>16.4797363</ele>
        <time>2015-09-20T08:21:08Z</time>
      </trkpt>
      <trkpt lat="44.55584" lon="-0.88473">
        <ele>15.0377197</ele>
        <time>2015-09-20T08:21:14Z</time>
      </trkpt>
      <trkpt lat="44.55567" lon="-0.88455">
        <ele>13.5958252</ele>
        <time>2015-09-20T08:21:19Z</time>
      </trkpt>
      <trkpt lat="44.55546" lon="-0.88429">
        <ele>13.5958252</ele>
        <time>2015-09-20T08:21:24Z</time>
      </trkpt>
      <trkpt lat="44.5553" lon="-0.88407">
        <ele>14.076416</ele>
        <time>2015-09-20T08:21:29Z</time>
      </trkpt>
      <trkpt lat="44.55526" lon="-0.884">
        <ele>13.5958252</ele>
        <time>2015-09-20T08:21:31Z</time>
      </trkpt>
      <trkpt lat="44.55515" lon="-0.8838">
        <ele>14.5570068</ele>
        <time>2015-09-20T08:21:35Z</time>
      </trkpt>
      <trkpt lat="44.55497" lon="-0.88352">
        <ele>15.9990234</ele>
        <time>2015-09-20T08:21:41Z</time>
      </trkpt>
      <trkpt lat="44.55486" lon="-0.88334">
        <ele>16.9604492</ele>
        <time>2015-09-20T08:21:45Z</time>
      </trkpt>
      <trkpt lat="44.55477" lon="-0.88314">
        <ele>21.7669678</ele>
        <time>2015-09-20T08:21:49Z</time>
      </trkpt>
      <trkpt lat="44.55467" lon="-0.88296">
        <ele>22.2475586</ele>
        <time>2015-09-20T08:21:53Z</time>
      </trkpt>
      <trkpt lat="44.55457" lon="-0.88273">
        <ele>21.7669678</ele>
        <time>2015-09-20T08:21:58Z</time>
      </trkpt>
      <trkpt lat="44.55435" lon="-0.88237">
        <ele>20.3249512</ele>
        <time>2015-09-20T08:22:06Z</time>
      </trkpt>
      <trkpt lat="44.55426" lon="-0.88219">
        <ele>21.286377</ele>
        <time>2015-09-20T08:22:10Z</time>
      </trkpt>
      <trkpt lat="44.55417" lon="-0.88204">
        <ele>21.7669678</ele>
        <time>2015-09-20T08:22:14Z</time>
      </trkpt>
      <trkpt lat="44.55408" lon="-0.88189">
        <ele>28.0155029</ele>
        <time>2015-09-20T08:22:20Z</time>
      </trkpt>
      <trkpt lat="44.55408" lon="-0.88186">
        <ele>32.8222656</ele>
        <time>2015-09-20T08:22:30Z</time>
      </trkpt>
      <trkpt lat="44.55411" lon="-0.88191">
        <ele>35.7060547</ele>
        <time>2015-09-20T08:23:06Z</time>
      </trkpt>
      <trkpt lat="44.55411" lon="-0.8819">
        <ele>34.2641602</ele>
        <time>2015-09-20T08:23:08Z</time>
      </trkpt>
      <trkpt lat="44.55409" lon="-0.88188">
        <ele>31.380127</ele>
        <time>2015-09-20T08:23:22Z</time>
      </trkpt>
      <trkpt lat="44.55412" lon="-0.88185">
        <ele>25.6123047</ele>
        <time>2015-09-20T08:24:02Z</time>
      </trkpt>
      <trkpt lat="44.55423" lon="-0.88173">
        <ele>24.1702881</ele>
        <time>2015-09-20T08:24:07Z</time>
      </trkpt>
      <trkpt lat="44.5544" lon="-0.88156">
        <ele>22.7282715</ele>
        <time>2015-09-20T08:24:12Z</time>
      </trkpt>
      <trkpt lat="44.55462" lon="-0.88137">
        <ele>22.2475586</ele>
        <time>2015-09-20T08:24:18Z</time>
      </trkpt>
      <trkpt lat="44.55481" lon="-0.88117">
        <ele>21.7669678</ele>
        <time>2015-09-20T08:24:23Z</time>
      </trkpt>
      <trkpt lat="44.55488" lon="-0.88108">
        <ele>21.7669678</ele>
        <time>2015-09-20T08:24:25Z</time>
      </trkpt>
      <trkpt lat="44.55507" lon="-0.88091">
        <ele>20.8056641</ele>
        <time>2015-09-20T08:24:30Z</time>
      </trkpt>
      <trkpt lat="44.55524" lon="-0.88077">
        <ele>21.7669678</ele>
        <time>2015-09-20T08:24:35Z</time>
      </trkpt>
      <trkpt lat="44.55542" lon="-0.88061">
        <ele>20.8056641</ele>
        <time>2015-09-20T08:24:40Z</time>
      </trkpt>
      <trkpt lat="44.55549" lon="-0.88047">
        <ele>19.8443604</ele>
        <time>2015-09-20T08:24:43Z</time>
      </trkpt>
      <trkpt lat="44.55558" lon="-0.88016">
        <ele>18.4023438</ele>
        <time>2015-09-20T08:24:49Z</time>
      </trkpt>
      <trkpt lat="44.55558" lon="-0.87998">
        <ele>17.9217529</ele>
        <time>2015-09-20T08:24:52Z</time>
      </trkpt>
      <trkpt lat="44.55561" lon="-0.87976">
        <ele>17.9217529</ele>
        <time>2015-09-20T08:24:56Z</time>
      </trkpt>
      <trkpt lat="44.55559" lon="-0.87956">
        <ele>17.4411621</ele>
        <time>2015-09-20T08:25:00Z</time>
      </trkpt>
      <trkpt lat="44.55552" lon="-0.87927">
        <ele>16.9604492</ele>
        <time>2015-09-20T08:25:05Z</time>
      </trkpt>
      <trkpt lat="44.55522" lon="-0.87896">
        <ele>16.4797363</ele>
        <time>2015-09-20T08:25:14Z</time>
      </trkpt>
      <trkpt lat="44.55507" lon="-0.87883">
        <ele>15.5184326</ele>
        <time>2015-09-20T08:25:18Z</time>
      </trkpt>
      <trkpt lat="44.55495" lon="-0.87859">
        <ele>14.076416</ele>
        <time>2015-09-20T08:25:23Z</time>
      </trkpt>
      <trkpt lat="44.55473" lon="-0.87824">
        <ele>10.711792</ele>
        <time>2015-09-20T08:25:31Z</time>
      </trkpt>
      <trkpt lat="44.55461" lon="-0.87799">
        <ele>6.8664551</ele>
        <time>2015-09-20T08:25:36Z</time>
      </trkpt>
      <trkpt lat="44.5545" lon="-0.87761">
        <ele>3.5019531</ele>
        <time>2015-09-20T08:25:43Z</time>
      </trkpt>
      <trkpt lat="44.55439" lon="-0.8772">
        <ele>0.618042</ele>
        <time>2015-09-20T08:25:51Z</time>
      </trkpt>
      <trkpt lat="44.55435" lon="-0.87683">
        <ele>3.0212402</ele>
        <time>2015-09-20T08:25:57Z</time>
      </trkpt>
      <trkpt lat="44.55429" lon="-0.87636">
        <ele>5.9052734</ele>
        <time>2015-09-20T08:26:05Z</time>
      </trkpt>
      <trkpt lat="44.55425" lon="-0.87614">
        <ele>7.347168</ele>
        <time>2015-09-20T08:26:09Z</time>
      </trkpt>
      <trkpt lat="44.55422" lon="-0.87567">
        <ele>10.2312012</ele>
        <time>2015-09-20T08:26:17Z</time>
      </trkpt>
      <trkpt lat="44.55422" lon="-0.87518">
        <ele>12.6343994</ele>
        <time>2015-09-20T08:26:25Z</time>
      </trkpt>
      <trkpt lat="44.55415" lon="-0.8747">
        <ele>13.5958252</ele>
        <time>2015-09-20T08:26:33Z</time>
      </trkpt>
      <trkpt lat="44.5541" lon="-0.87415">
        <ele>14.5570068</ele>
        <time>2015-09-20T08:26:42Z</time>
      </trkpt>
      <trkpt lat="44.55405" lon="-0.87362">
        <ele>15.9990234</ele>
        <time>2015-09-20T08:26:51Z</time>
      </trkpt>
      <trkpt lat="44.55399" lon="-0.87327">
        <ele>17.9217529</ele>
        <time>2015-09-20T08:26:57Z</time>
      </trkpt>
      <trkpt lat="44.55389" lon="-0.87291">
        <ele>17.9217529</ele>
        <time>2015-09-20T08:27:03Z</time>
      </trkpt>
      <trkpt lat="44.55375" lon="-0.87255">
        <ele>18.4023438</ele>
        <time>2015-09-20T08:27:10Z</time>
      </trkpt>
      <trkpt lat="44.55365" lon="-0.87217">
        <ele>18.8830566</ele>
        <time>2015-09-20T08:27:17Z</time>
      </trkpt>
      <trkpt lat="44.55365" lon="-0.87169">
        <ele>18.4023438</ele>
        <time>2015-09-20T08:27:25Z</time>
      </trkpt>
      <trkpt lat="44.55364" lon="-0.87139">
        <ele>18.4023438</ele>
        <time>2015-09-20T08:27:30Z</time>
      </trkpt>
      <trkpt lat="44.5536" lon="-0.87117">
        <ele>18.8830566</ele>
        <time>2015-09-20T08:27:34Z</time>
      </trkpt>
      <trkpt lat="44.55343" lon="-0.87069">
        <ele>19.3637695</ele>
        <time>2015-09-20T08:27:43Z</time>
      </trkpt>
      <trkpt lat="44.55336" lon="-0.87051">
        <ele>18.8830566</ele>
        <time>2015-09-20T08:27:48Z</time>
      </trkpt>
      <trkpt lat="44.55323" lon="-0.87042">
        <ele>18.8830566</ele>
        <time>2015-09-20T08:27:52Z</time>
      </trkpt>
      <trkpt lat="44.55283" lon="-0.87027">
        <ele>18.8830566</ele>
        <time>2015-09-20T08:28:00Z</time>
      </trkpt>
      <trkpt lat="44.55238" lon="-0.87011">
        <ele>16.9604492</ele>
        <time>2015-09-20T08:28:09Z</time>
      </trkpt>
      <trkpt lat="44.552" lon="-0.86999">
        <ele>15.9990234</ele>
        <time>2015-09-20T08:28:17Z</time>
      </trkpt>
      <trkpt lat="44.55174" lon="-0.87002">
        <ele>18.4023438</ele>
        <time>2015-09-20T08:28:23Z</time>
      </trkpt>
      <trkpt lat="44.55157" lon="-0.87006">
        <ele>20.8056641</ele>
        <time>2015-09-20T08:28:27Z</time>
      </trkpt>
      <trkpt lat="44.55149" lon="-0.87009">
        <ele>23.2089844</ele>
        <time>2015-09-20T08:28:29Z</time>
      </trkpt>
      <trkpt lat="44.55121" lon="-0.87025">
        <ele>23.6895752</ele>
        <time>2015-09-20T08:28:36Z</time>
      </trkpt>
      <trkpt lat="44.55089" lon="-0.87043">
        <ele>24.1702881</ele>
        <time>2015-09-20T08:28:43Z</time>
      </trkpt>
      <trkpt lat="44.55053" lon="-0.8707">
        <ele>22.7282715</ele>
        <time>2015-09-20T08:28:51Z</time>
      </trkpt>
      <trkpt lat="44.55005" lon="-0.87104">
        <ele>21.286377</ele>
        <time>2015-09-20T08:29:01Z</time>
      </trkpt>
      <trkpt lat="44.54981" lon="-0.87119">
        <ele>18.8830566</ele>
        <time>2015-09-20T08:29:06Z</time>
      </trkpt>
      <trkpt lat="44.5497" lon="-0.87128">
        <ele>18.4023438</ele>
        <time>2015-09-20T08:29:09Z</time>
      </trkpt>
      <trkpt lat="44.54962" lon="-0.87132">
        <ele>18.4023438</ele>
        <time>2015-09-20T08:29:11Z</time>
      </trkpt>
      <trkpt lat="44.54933" lon="-0.8715">
        <ele>17.4411621</ele>
        <time>2015-09-20T08:29:17Z</time>
      </trkpt>
      <trkpt lat="44.54925" lon="-0.87156">
        <ele>16.9604492</ele>
        <time>2015-09-20T08:29:19Z</time>
      </trkpt>
      <trkpt lat="44.54906" lon="-0.87157">
        <ele>16.9604492</ele>
        <time>2015-09-20T08:29:24Z</time>
      </trkpt>
      <trkpt lat="44.549" lon="-0.87157">
        <ele>16.4797363</ele>
        <time>2015-09-20T08:29:25Z</time>
      </trkpt>
      <trkpt lat="44.54869" lon="-0.87167">
        <ele>12.1538086</ele>
        <time>2015-09-20T08:29:30Z</time>
      </trkpt>
      <trkpt lat="44.54847" lon="-0.87165">
        <ele>9.7506104</ele>
        <time>2015-09-20T08:29:34Z</time>
      </trkpt>
      <trkpt lat="44.54834" lon="-0.87151">
        <ele>8.3085938</ele>
        <time>2015-09-20T08:29:37Z</time>
      </trkpt>
      <trkpt lat="44.54825" lon="-0.87132">
        <ele>6.8664551</ele>
        <time>2015-09-20T08:29:40Z</time>
      </trkpt>
      <trkpt lat="44.54811" lon="-0.87112">
        <ele>6.3858643</ele>
        <time>2015-09-20T08:29:45Z</time>
      </trkpt>
      <trkpt lat="44.54808" lon="-0.8711">
        <ele>6.3858643</ele>
        <time>2015-09-20T08:29:46Z</time>
      </trkpt>
      <trkpt lat="44.54802" lon="-0.87106">
        <ele>6.8664551</ele>
        <time>2015-09-20T08:29:48Z</time>
      </trkpt>
      <trkpt lat="44.54793" lon="-0.87102">
        <ele>7.347168</ele>
        <time>2015-09-20T08:29:51Z</time>
      </trkpt>
      <trkpt lat="44.54781" lon="-0.87089">
        <ele>5.9052734</ele>
        <time>2015-09-20T08:29:56Z</time>
      </trkpt>
      <trkpt lat="44.54762" lon="-0.87078">
        <ele>7.347168</ele>
        <time>2015-09-20T08:30:01Z</time>
      </trkpt>
      <trkpt lat="44.54741" lon="-0.87068">
        <ele>6.3858643</ele>
        <time>2015-09-20T08:30:06Z</time>
      </trkpt>
      <trkpt lat="44.54735" lon="-0.87063">
        <ele>7.347168</ele>
        <time>2015-09-20T08:30:08Z</time>
      </trkpt>
      <trkpt lat="44.54713" lon="-0.8705">
        <ele>5.9052734</ele>
        <time>2015-09-20T08:30:15Z</time>
      </trkpt>
      <trkpt lat="44.54689" lon="-0.87038">
        <ele>8.3085938</ele>
        <time>2015-09-20T08:30:21Z</time>
      </trkpt>
      <trkpt lat="44.54672" lon="-0.87028">
        <ele>11.6732178</ele>
        <time>2015-09-20T08:30:25Z</time>
      </trkpt>
      <trkpt lat="44.54665" lon="-0.87022">
        <ele>12.6343994</ele>
        <time>2015-09-20T08:30:27Z</time>
      </trkpt>
      <trkpt lat="44.54642" lon="-0.87003">
        <ele>12.1538086</ele>
        <time>2015-09-20T08:30:33Z</time>
      </trkpt>
      <trkpt lat="44.54638" lon="-0.87002">
        <ele>11.1925049</ele>
        <time>2015-09-20T08:30:34Z</time>
      </trkpt>
      <trkpt lat="44.54628" lon="-0.86992">
        <ele>15.5184326</ele>
        <time>2015-09-20T08:30:37Z</time>
      </trkpt>
      <trkpt lat="44.546" lon="-0.86976">
        <ele>10.711792</ele>
        <time>2015-09-20T08:30:43Z</time>
      </trkpt>
      <trkpt lat="44.5459" lon="-0.86971">
        <ele>6.3858643</ele>
        <time>2015-09-20T08:30:45Z</time>
      </trkpt>
      <trkpt lat="44.54565" lon="-0.86957">
        <ele>3.5019531</ele>
        <time>2015-09-20T08:30:50Z</time>
      </trkpt>
      <trkpt lat="44.54557" lon="-0.86952">
        <ele>1.0986328</ele>
        <time>2015-09-20T08:30:52Z</time>
      </trkpt>
      <trkpt lat="44.54537" lon="-0.86938">
        <ele>3.982666</ele>
        <time>2015-09-20T08:30:57Z</time>
      </trkpt>
      <trkpt lat="44.5452" lon="-0.8693">
        <ele>2.0600586</ele>
        <time>2015-09-20T08:31:01Z</time>
      </trkpt>
      <trkpt lat="44.54498" lon="-0.86929">
        <ele>2.5406494</ele>
        <time>2015-09-20T08:31:07Z</time>
      </trkpt>
      <trkpt lat="44.54493" lon="-0.86936">
        <ele>4.4632568</ele>
        <time>2015-09-20T08:31:09Z</time>
      </trkpt>
      <trkpt lat="44.5448" lon="-0.86968">
        <ele>6.8664551</ele>
        <time>2015-09-20T08:31:15Z</time>
      </trkpt>
      <trkpt lat="44.54476" lon="-0.8698">
        <ele>7.347168</ele>
        <time>2015-09-20T08:31:17Z</time>
      </trkpt>
      <trkpt lat="44.54458" lon="-0.86997">
        <ele>6.8664551</ele>
        <time>2015-09-20T08:31:22Z</time>
      </trkpt>
      <trkpt lat="44.54454" lon="-0.87">
        <ele>6.8664551</ele>
        <time>2015-09-20T08:31:23Z</time>
      </trkpt>
      <trkpt lat="44.54428" lon="-0.87002">
        <ele>5.9052734</ele>
        <time>2015-09-20T08:31:28Z</time>
      </trkpt>
      <trkpt lat="44.54405" lon="-0.86996">
        <ele>3.0212402</ele>
        <time>2015-09-20T08:31:33Z</time>
      </trkpt>
      <trkpt lat="44.54393" lon="-0.86995">
        <ele>3.982666</ele>
        <time>2015-09-20T08:31:36Z</time>
      </trkpt>
      <trkpt lat="44.54374" lon="-0.86994">
        <ele>4.4632568</ele>
        <time>2015-09-20T08:31:41Z</time>
      </trkpt>
      <trkpt lat="44.54361" lon="-0.86989">
        <ele>3.0212402</ele>
        <time>2015-09-20T08:31:45Z</time>
      </trkpt>
      <trkpt lat="44.54342" lon="-0.86973">
        <ele>1.5793457</ele>
        <time>2015-09-20T08:31:51Z</time>
      </trkpt>
      <trkpt lat="44.54324" lon="-0.86949">
        <ele>2.5406494</ele>
        <time>2015-09-20T08:31:57Z</time>
      </trkpt>
      <trkpt lat="44.543" lon="-0.86929">
        <ele>4.4632568</ele>
        <time>2015-09-20T08:32:03Z</time>
      </trkpt>
      <trkpt lat="44.54281" lon="-0.86912">
        <ele>2.5406494</ele>
        <time>2015-09-20T08:32:09Z</time>
      </trkpt>
      <trkpt lat="44.54275" lon="-0.86906">
        <ele>3.982666</ele>
        <time>2015-09-20T08:32:11Z</time>
      </trkpt>
      <trkpt lat="44.54255" lon="-0.869">
        <ele>8.3085938</ele>
        <time>2015-09-20T08:32:16Z</time>
      </trkpt>
      <trkpt lat="44.54251" lon="-0.86899">
        <ele>7.347168</ele>
        <time>2015-09-20T08:32:17Z</time>
      </trkpt>
      <trkpt lat="44.54226" lon="-0.86889">
        <ele>5.9052734</ele>
        <time>2015-09-20T08:32:24Z</time>
      </trkpt>
      <trkpt lat="44.54213" lon="-0.86878">
        <ele>5.4245605</ele>
        <time>2015-09-20T08:32:28Z</time>
      </trkpt>
      <trkpt lat="44.54197" lon="-0.8687">
        <ele>5.4245605</ele>
        <time>2015-09-20T08:32:33Z</time>
      </trkpt>
      <trkpt lat="44.54187" lon="-0.86867">
        <ele>6.3858643</ele>
        <time>2015-09-20T08:32:36Z</time>
      </trkpt>
      <trkpt lat="44.54169" lon="-0.86868">
        <ele>5.4245605</ele>
        <time>2015-09-20T08:32:41Z</time>
      </trkpt>
      <trkpt lat="44.54147" lon="-0.86865">
        <ele>2.5406494</ele>
        <time>2015-09-20T08:32:46Z</time>
      </trkpt>
      <trkpt lat="44.54136" lon="-0.86857">
        <ele>-0.8240967</ele>
        <time>2015-09-20T08:32:50Z</time>
      </trkpt>
      <trkpt lat="44.54127" lon="-0.8684">
        <ele>-2.2659912</ele>
        <time>2015-09-20T08:32:54Z</time>
      </trkpt>
      <trkpt lat="44.54118" lon="-0.86814">
        <ele>0.618042</ele>
        <time>2015-09-20T08:32:59Z</time>
      </trkpt>
      <trkpt lat="44.54113" lon="-0.86798">
        <ele>0.1374512</ele>
        <time>2015-09-20T08:33:03Z</time>
      </trkpt>
      <trkpt lat="44.54114" lon="-0.86778">
        <ele>-0.8240967</ele>
        <time>2015-09-20T08:33:07Z</time>
      </trkpt>
      <trkpt lat="44.54115" lon="-0.86752">
        <ele>-3.2272949</ele>
        <time>2015-09-20T08:33:12Z</time>
      </trkpt>
      <trkpt lat="44.54111" lon="-0.8673">
        <ele>-6.1112061</ele>
        <time>2015-09-20T08:33:16Z</time>
      </trkpt>
      <trkpt lat="44.54111" lon="-0.86701">
        <ele>-6.1112061</ele>
        <time>2015-09-20T08:33:21Z</time>
      </trkpt>
      <trkpt lat="44.54111" lon="-0.86688">
        <ele>-8.0339355</ele>
        <time>2015-09-20T08:33:24Z</time>
      </trkpt>
      <trkpt lat="44.54115" lon="-0.8668">
        <ele>-8.5146484</ele>
        <time>2015-09-20T08:33:26Z</time>
      </trkpt>
      <trkpt lat="44.54112" lon="-0.86671">
        <ele>-9.956543</ele>
        <time>2015-09-20T08:33:31Z</time>
      </trkpt>
      <trkpt lat="44.54112" lon="-0.8667">
        <ele>-9.956543</ele>
        <time>2015-09-20T08:33:32Z</time>
      </trkpt>
      <trkpt lat="44.54108" lon="-0.86668">
        <ele>-3.2272949</ele>
        <time>2015-09-20T08:33:36Z</time>
      </trkpt>
      <trkpt lat="44.54106" lon="-0.86657">
        <ele>-2.2659912</ele>
        <time>2015-09-20T08:33:41Z</time>
      </trkpt>
      <trkpt lat="44.54102" lon="-0.86641">
        <ele>-4.1885986</ele>
        <time>2015-09-20T08:33:47Z</time>
      </trkpt>
      <trkpt lat="44.54099" lon="-0.86626">
        <ele>-6.1112061</ele>
        <time>2015-09-20T08:33:54Z</time>
      </trkpt>
      <trkpt lat="44.54099" lon="-0.86623">
        <ele>-5.6304932</ele>
        <time>2015-09-20T08:33:55Z</time>
      </trkpt>
      <trkpt lat="44.54095" lon="-0.86612">
        <ele>-2.7467041</ele>
        <time>2015-09-20T08:34:00Z</time>
      </trkpt>
      <trkpt lat="44.54092" lon="-0.86597">
        <ele>-5.6304932</ele>
        <time>2015-09-20T08:34:06Z</time>
      </trkpt>
      <trkpt lat="44.54089" lon="-0.86586">
        <ele>-5.6304932</ele>
        <time>2015-09-20T08:34:09Z</time>
      </trkpt>
      <trkpt lat="44.54085" lon="-0.86572">
        <ele>-4.1885986</ele>
        <time>2015-09-20T08:34:14Z</time>
      </trkpt>
      <trkpt lat="44.54083" lon="-0.86569">
        <ele>-3.2272949</ele>
        <time>2015-09-20T08:34:16Z</time>
      </trkpt>
      <trkpt lat="44.54081" lon="-0.86557">
        <ele>0.1374512</ele>
        <time>2015-09-20T08:34:22Z</time>
      </trkpt>
      <trkpt lat="44.54077" lon="-0.8655">
        <ele>-1.3046875</ele>
        <time>2015-09-20T08:34:26Z</time>
      </trkpt>
      <trkpt lat="44.54066" lon="-0.86537">
        <ele>2.5406494</ele>
        <time>2015-09-20T08:35:07Z</time>
      </trkpt>
      <trkpt lat="44.54062" lon="-0.86534">
        <ele>-1.3046875</ele>
        <time>2015-09-20T08:35:13Z</time>
      </trkpt>
      <trkpt lat="44.5406" lon="-0.86532">
        <ele>-2.2659912</ele>
        <time>2015-09-20T08:35:16Z</time>
      </trkpt>
      <trkpt lat="44.54056" lon="-0.86524">
        <ele>-5.6304932</ele>
        <time>2015-09-20T08:35:20Z</time>
      </trkpt>
      <trkpt lat="44.54052" lon="-0.86516">
        <ele>-7.0725098</ele>
        <time>2015-09-20T08:35:24Z</time>
      </trkpt>
      <trkpt lat="44.54049" lon="-0.86504">
        <ele>7.8278809</ele>
        <time>2015-09-20T08:35:34Z</time>
      </trkpt>
      <trkpt lat="44.54051" lon="-0.86502">
        <ele>16.9604492</ele>
        <time>2015-09-20T08:36:03Z</time>
      </trkpt>
      <trkpt lat="44.54049" lon="-0.86503">
        <ele>-5.6304932</ele>
        <time>2015-09-20T08:36:28Z</time>
      </trkpt>
      <trkpt lat="44.54044" lon="-0.86498">
        <ele>-3.7078857</ele>
        <time>2015-09-20T08:36:32Z</time>
      </trkpt>
      <trkpt lat="44.54037" lon="-0.86481">
        <ele>12.1538086</ele>
        <time>2015-09-20T08:36:39Z</time>
      </trkpt>
      <trkpt lat="44.54033" lon="-0.86476">
        <ele>12.6343994</ele>
        <time>2015-09-20T08:36:42Z</time>
      </trkpt>
      <trkpt lat="44.54025" lon="-0.86466">
        <ele>19.3637695</ele>
        <time>2015-09-20T08:36:47Z</time>
      </trkpt>
      <trkpt lat="44.54015" lon="-0.86459">
        <ele>15.0377197</ele>
        <time>2015-09-20T08:36:52Z</time>
      </trkpt>
      <trkpt lat="44.54004" lon="-0.86453">
        <ele>12.1538086</ele>
        <time>2015-09-20T08:36:56Z</time>
      </trkpt>
      <trkpt lat="44.53991" lon="-0.86449">
        <ele>6.8664551</ele>
        <time>2015-09-20T08:37:00Z</time>
      </trkpt>
      <trkpt lat="44.53988" lon="-0.86449">
        <ele>7.347168</ele>
        <time>2015-09-20T08:37:01Z</time>
      </trkpt>
      <trkpt lat="44.5397" lon="-0.86451">
        <ele>3.982666</ele>
        <time>2015-09-20T08:37:06Z</time>
      </trkpt>
      <trkpt lat="44.53955" lon="-0.86451">
        <ele>7.347168</ele>
        <time>2015-09-20T08:37:10Z</time>
      </trkpt>
      <trkpt lat="44.53941" lon="-0.86454">
        <ele>9.2698975</ele>
        <time>2015-09-20T08:37:14Z</time>
      </trkpt>
      <trkpt lat="44.53926" lon="-0.86458">
        <ele>7.347168</ele>
        <time>2015-09-20T08:37:19Z</time>
      </trkpt>
      <trkpt lat="44.53924" lon="-0.86458">
        <ele>6.3858643</ele>
        <time>2015-09-20T08:37:20Z</time>
      </trkpt>
      <trkpt lat="44.53911" lon="-0.86464">
        <ele>4.4632568</ele>
        <time>2015-09-20T08:37:26Z</time>
      </trkpt>
      <trkpt lat="44.53899" lon="-0.86471">
        <ele>3.982666</ele>
        <time>2015-09-20T08:37:30Z</time>
      </trkpt>
      <trkpt lat="44.53885" lon="-0.86477">
        <ele>3.0212402</ele>
        <time>2015-09-20T08:37:35Z</time>
      </trkpt>
      <trkpt lat="44.53871" lon="-0.86478">
        <ele>4.4632568</ele>
        <time>2015-09-20T08:37:41Z</time>
      </trkpt>
      <trkpt lat="44.53854" lon="-0.86483">
        <ele>6.3858643</ele>
        <time>2015-09-20T08:37:47Z</time>
      </trkpt>
      <trkpt lat="44.53839" lon="-0.86484">
        <ele>5.9052734</ele>
        <time>2015-09-20T08:37:52Z</time>
      </trkpt>
      <trkpt lat="44.53827" lon="-0.86483">
        <ele>2.0600586</ele>
        <time>2015-09-20T08:37:57Z</time>
      </trkpt>
      <trkpt lat="44.53825" lon="-0.86483">
        <ele>3.0212402</ele>
        <time>2015-09-20T08:37:58Z</time>
      </trkpt>
      <trkpt lat="44.53815" lon="-0.86479">
        <ele>3.0212402</ele>
        <time>2015-09-20T08:38:03Z</time>
      </trkpt>
      <trkpt lat="44.53813" lon="-0.86478">
        <ele>3.5019531</ele>
        <time>2015-09-20T08:38:04Z</time>
      </trkpt>
      <trkpt lat="44.53798" lon="-0.86472">
        <ele>9.7506104</ele>
        <time>2015-09-20T08:38:10Z</time>
      </trkpt>
      <trkpt lat="44.53792" lon="-0.86471">
        <ele>9.2698975</ele>
        <time>2015-09-20T08:38:12Z</time>
      </trkpt>
      <trkpt lat="44.53783" lon="-0.86477">
        <ele>9.7506104</ele>
        <time>2015-09-20T08:38:17Z</time>
      </trkpt>
      <trkpt lat="44.53776" lon="-0.86476">
        <ele>8.3085938</ele>
        <time>2015-09-20T08:38:21Z</time>
      </trkpt>
      <trkpt lat="44.53766" lon="-0.86473">
        <ele>8.3085938</ele>
        <time>2015-09-20T08:38:26Z</time>
      </trkpt>
      <trkpt lat="44.53763" lon="-0.86472">
        <ele>7.347168</ele>
        <time>2015-09-20T08:38:27Z</time>
      </trkpt>
      <trkpt lat="44.53746" lon="-0.86473">
        <ele>8.3085938</ele>
        <time>2015-09-20T08:38:33Z</time>
      </trkpt>
      <trkpt lat="44.53741" lon="-0.86474">
        <ele>7.8278809</ele>
        <time>2015-09-20T08:38:34Z</time>
      </trkpt>
      <trkpt lat="44.53722" lon="-0.86473">
        <ele>8.3085938</ele>
        <time>2015-09-20T08:38:39Z</time>
      </trkpt>
      <trkpt lat="44.5371" lon="-0.86463">
        <ele>9.7506104</ele>
        <time>2015-09-20T08:38:43Z</time>
      </trkpt>
      <trkpt lat="44.53688" lon="-0.86451">
        <ele>3.0212402</ele>
        <time>2015-09-20T08:38:48Z</time>
      </trkpt>
      <trkpt lat="44.53671" lon="-0.86431">
        <ele>1.0986328</ele>
        <time>2015-09-20T08:38:52Z</time>
      </trkpt>
      <trkpt lat="44.53663" lon="-0.86412">
        <ele>2.5406494</ele>
        <time>2015-09-20T08:38:55Z</time>
      </trkpt>
      <trkpt lat="44.53657" lon="-0.864">
        <ele>2.5406494</ele>
        <time>2015-09-20T08:38:57Z</time>
      </trkpt>
      <trkpt lat="44.53655" lon="-0.86382">
        <ele>3.0212402</ele>
        <time>2015-09-20T08:39:01Z</time>
      </trkpt>
      <trkpt lat="44.53657" lon="-0.86373">
        <ele>3.982666</ele>
        <time>2015-09-20T08:39:03Z</time>
      </trkpt>
      <trkpt lat="44.53656" lon="-0.86348">
        <ele>13.5958252</ele>
        <time>2015-09-20T08:39:08Z</time>
      </trkpt>
      <trkpt lat="44.53655" lon="-0.86345">
        <ele>15.5184326</ele>
        <time>2015-09-20T08:39:12Z</time>
      </trkpt>
      <trkpt lat="44.53656" lon="-0.86344">
        <ele>15.9990234</ele>
        <time>2015-09-20T08:39:13Z</time>
      </trkpt>
      <trkpt lat="44.53653" lon="-0.86331">
        <ele>12.6343994</ele>
        <time>2015-09-20T08:39:18Z</time>
      </trkpt>
      <trkpt lat="44.53654" lon="-0.86322">
        <ele>12.1538086</ele>
        <time>2015-09-20T08:39:20Z</time>
      </trkpt>
      <trkpt lat="44.53655" lon="-0.86303">
        <ele>9.7506104</ele>
        <time>2015-09-20T08:39:24Z</time>
      </trkpt>
      <trkpt lat="44.53645" lon="-0.86293">
        <ele>7.347168</ele>
        <time>2015-09-20T08:39:28Z</time>
      </trkpt>
      <trkpt lat="44.53631" lon="-0.86288">
        <ele>0.618042</ele>
        <time>2015-09-20T08:39:33Z</time>
      </trkpt>
      <trkpt lat="44.5363" lon="-0.86286">
        <ele>0.1374512</ele>
        <time>2015-09-20T08:39:34Z</time>
      </trkpt>
      <trkpt lat="44.53622" lon="-0.86269">
        <ele>-0.3433838</ele>
        <time>2015-09-20T08:39:39Z</time>
      </trkpt>
      <trkpt lat="44.53612" lon="-0.86253">
        <ele>1.0986328</ele>
        <time>2015-09-20T08:39:43Z</time>
      </trkpt>
      <trkpt lat="44.53608" lon="-0.8625">
        <ele>3.5019531</ele>
        <time>2015-09-20T08:39:45Z</time>
      </trkpt>
      <trkpt lat="44.53603" lon="-0.86232">
        <ele>3.5019531</ele>
        <time>2015-09-20T08:39:51Z</time>
      </trkpt>
      <trkpt lat="44.53593" lon="-0.86209">
        <ele>3.982666</ele>
        <time>2015-09-20T08:39:55Z</time>
      </trkpt>
      <trkpt lat="44.53584" lon="-0.86193">
        <ele>12.6343994</ele>
        <time>2015-09-20T08:39:58Z</time>
      </trkpt>
      <trkpt lat="44.53571" lon="-0.86169">
        <ele>16.9604492</ele>
        <time>2015-09-20T08:40:03Z</time>
      </trkpt>
      <trkpt lat="44.53565" lon="-0.86154">
        <ele>19.3637695</ele>
        <time>2015-09-20T08:40:06Z</time>
      </trkpt>
      <trkpt lat="44.5356" lon="-0.86128">
        <ele>18.4023438</ele>
        <time>2015-09-20T08:40:11Z</time>
      </trkpt>
      <trkpt lat="44.53546" lon="-0.86095">
        <ele>21.286377</ele>
        <time>2015-09-20T08:40:17Z</time>
      </trkpt>
      <trkpt lat="44.5354" lon="-0.86084">
        <ele>22.2475586</ele>
        <time>2015-09-20T08:40:19Z</time>
      </trkpt>
      <trkpt lat="44.53536" lon="-0.86073">
        <ele>21.286377</ele>
        <time>2015-09-20T08:40:21Z</time>
      </trkpt>
      <trkpt lat="44.5353" lon="-0.86052">
        <ele>22.7282715</ele>
        <time>2015-09-20T08:40:24Z</time>
      </trkpt>
      <trkpt lat="44.53518" lon="-0.86029">
        <ele>24.1702881</ele>
        <time>2015-09-20T08:40:28Z</time>
      </trkpt>
      <trkpt lat="44.53503" lon="-0.86019">
        <ele>22.2475586</ele>
        <time>2015-09-20T08:40:31Z</time>
      </trkpt>
      <trkpt lat="44.53484" lon="-0.86007">
        <ele>19.3637695</ele>
        <time>2015-09-20T08:40:35Z</time>
      </trkpt>
      <trkpt lat="44.53467" lon="-0.85987">
        <ele>19.3637695</ele>
        <time>2015-09-20T08:40:40Z</time>
      </trkpt>
      <trkpt lat="44.53457" lon="-0.85979">
        <ele>19.3637695</ele>
        <time>2015-09-20T08:40:43Z</time>
      </trkpt>
      <trkpt lat="44.5345" lon="-0.85974">
        <ele>19.8443604</ele>
        <time>2015-09-20T08:40:45Z</time>
      </trkpt>
      <trkpt lat="44.5343" lon="-0.8596">
        <ele>13.1151123</ele>
        <time>2015-09-20T08:40:51Z</time>
      </trkpt>
      <trkpt lat="44.53419" lon="-0.85943">
        <ele>10.2312012</ele>
        <time>2015-09-20T08:40:55Z</time>
      </trkpt>
      <trkpt lat="44.53409" lon="-0.85929">
        <ele>7.8278809</ele>
        <time>2015-09-20T08:40:58Z</time>
      </trkpt>
      <trkpt lat="44.53395" lon="-0.8591">
        <ele>6.8664551</ele>
        <time>2015-09-20T08:41:02Z</time>
      </trkpt>
      <trkpt lat="44.53374" lon="-0.8589">
        <ele>6.8664551</ele>
        <time>2015-09-20T08:41:07Z</time>
      </trkpt>
      <trkpt lat="44.53358" lon="-0.8587">
        <ele>0.1374512</ele>
        <time>2015-09-20T08:41:11Z</time>
      </trkpt>
      <trkpt lat="44.53355" lon="-0.85854">
        <ele>-3.7078857</ele>
        <time>2015-09-20T08:41:14Z</time>
      </trkpt>
      <trkpt lat="44.5335" lon="-0.85849">
        <ele>-4.6693115</ele>
        <time>2015-09-20T08:41:15Z</time>
      </trkpt>
      <trkpt lat="44.5334" lon="-0.85824">
        <ele>-1.7852783</ele>
        <time>2015-09-20T08:41:20Z</time>
      </trkpt>
      <trkpt lat="44.53329" lon="-0.85808">
        <ele>-4.6693115</ele>
        <time>2015-09-20T08:41:24Z</time>
      </trkpt>
      <trkpt lat="44.53328" lon="-0.858">
        <ele>-5.1499023</ele>
        <time>2015-09-20T08:41:26Z</time>
      </trkpt>
      <trkpt lat="44.53333" lon="-0.85772">
        <ele>-8.5146484</ele>
        <time>2015-09-20T08:41:31Z</time>
      </trkpt>
      <trkpt lat="44.53335" lon="-0.85766">
        <ele>-9.956543</ele>
        <time>2015-09-20T08:41:32Z</time>
      </trkpt>
      <trkpt lat="44.53345" lon="-0.85739">
        <ele>-11.3984375</ele>
        <time>2015-09-20T08:41:36Z</time>
      </trkpt>
      <trkpt lat="44.53356" lon="-0.85706">
        <ele>-7.0725098</ele>
        <time>2015-09-20T08:41:41Z</time>
      </trkpt>
      <trkpt lat="44.53361" lon="-0.85685">
        <ele>-5.6304932</ele>
        <time>2015-09-20T08:41:45Z</time>
      </trkpt>
      <trkpt lat="44.53365" lon="-0.85677">
        <ele>-5.6304932</ele>
        <time>2015-09-20T08:41:47Z</time>
      </trkpt>
      <trkpt lat="44.53369" lon="-0.85668">
        <ele>-4.1885986</ele>
        <time>2015-09-20T08:41:49Z</time>
      </trkpt>
      <trkpt lat="44.53379" lon="-0.85653">
        <ele>-0.8240967</ele>
        <time>2015-09-20T08:41:54Z</time>
      </trkpt>
      <trkpt lat="44.5338" lon="-0.85652">
        <ele>3.0212402</ele>
        <time>2015-09-20T08:41:59Z</time>
      </trkpt>
      <trkpt lat="44.53381" lon="-0.85647">
        <ele>4.9438477</ele>
        <time>2015-09-20T08:45:40Z</time>
      </trkpt>
      <trkpt lat="44.53379" lon="-0.85645">
        <ele>10.711792</ele>
        <time>2015-09-20T08:45:54Z</time>
      </trkpt>
      <trkpt lat="44.53379" lon="-0.85647">
        <ele>9.2698975</ele>
        <time>2015-09-20T08:47:06Z</time>
      </trkpt>
      <trkpt lat="44.53379" lon="-0.85646">
        <ele>13.1151123</ele>
        <time>2015-09-20T08:47:31Z</time>
      </trkpt>
      <trkpt lat="44.53378" lon="-0.85645">
        <ele>11.6732178</ele>
        <time>2015-09-20T08:50:25Z</time>
      </trkpt>
      <trkpt lat="44.53379" lon="-0.85645">
        <ele>12.6343994</ele>
        <time>2015-09-20T08:50:29Z</time>
      </trkpt>
      <trkpt lat="44.53385" lon="-0.85634">
        <ele>13.5958252</ele>
        <time>2015-09-20T08:50:35Z</time>
      </trkpt>
      <trkpt lat="44.53396" lon="-0.85609">
        <ele>13.1151123</ele>
        <time>2015-09-20T08:50:43Z</time>
      </trkpt>
      <trkpt lat="44.53403" lon="-0.8559">
        <ele>13.5958252</ele>
        <time>2015-09-20T08:50:49Z</time>
      </trkpt>
      <trkpt lat="44.53401" lon="-0.85566">
        <ele>15.9990234</ele>
        <time>2015-09-20T08:50:54Z</time>
      </trkpt>
      <trkpt lat="44.53404" lon="-0.85528">
        <ele>15.9990234</ele>
        <time>2015-09-20T08:51:01Z</time>
      </trkpt>
      <trkpt lat="44.53406" lon="-0.85508">
        <ele>15.9990234</ele>
        <time>2015-09-20T08:51:05Z</time>
      </trkpt>
      <trkpt lat="44.53413" lon="-0.85493">
        <ele>17.9217529</ele>
        <time>2015-09-20T08:51:10Z</time>
      </trkpt>
      <trkpt lat="44.53427" lon="-0.85473">
        <ele>21.7669678</ele>
        <time>2015-09-20T08:51:15Z</time>
      </trkpt>
      <trkpt lat="44.53449" lon="-0.85445">
        <ele>25.1317139</ele>
        <time>2015-09-20T08:51:22Z</time>
      </trkpt>
      <trkpt lat="44.53472" lon="-0.85426">
        <ele>26.0928955</ele>
        <time>2015-09-20T08:51:29Z</time>
      </trkpt>
      <trkpt lat="44.53481" lon="-0.85417">
        <ele>25.1317139</ele>
        <time>2015-09-20T08:51:34Z</time>
      </trkpt>
      <trkpt lat="44.53478" lon="-0.85411">
        <ele>23.6895752</ele>
        <time>2015-09-20T08:51:39Z</time>
      </trkpt>
      <trkpt lat="44.53474" lon="-0.85411">
        <ele>22.7282715</ele>
        <time>2015-09-20T08:51:43Z</time>
      </trkpt>
      <trkpt lat="44.5347" lon="-0.85405">
        <ele>20.8056641</ele>
        <time>2015-09-20T08:51:50Z</time>
      </trkpt>
      <trkpt lat="44.53469" lon="-0.85405">
        <ele>20.3249512</ele>
        <time>2015-09-20T08:51:51Z</time>
      </trkpt>
      <trkpt lat="44.5346" lon="-0.85391">
        <ele>16.4797363</ele>
        <time>2015-09-20T08:51:59Z</time>
      </trkpt>
      <trkpt lat="44.53448" lon="-0.85371">
        <ele>14.076416</ele>
        <time>2015-09-20T08:52:05Z</time>
      </trkpt>
      <trkpt lat="44.53431" lon="-0.85344">
        <ele>13.5958252</ele>
        <time>2015-09-20T08:52:11Z</time>
      </trkpt>
      <trkpt lat="44.53417" lon="-0.85323">
        <ele>14.5570068</ele>
        <time>2015-09-20T08:52:16Z</time>
      </trkpt>
      <trkpt lat="44.53399" lon="-0.85294">
        <ele>15.0377197</ele>
        <time>2015-09-20T08:52:25Z</time>
      </trkpt>
      <trkpt lat="44.53387" lon="-0.85273">
        <ele>14.5570068</ele>
        <time>2015-09-20T08:52:31Z</time>
      </trkpt>
      <trkpt lat="44.53372" lon="-0.85249">
        <ele>14.076416</ele>
        <time>2015-09-20T08:52:37Z</time>
      </trkpt>
      <trkpt lat="44.53363" lon="-0.85233">
        <ele>15.5184326</ele>
        <time>2015-09-20T08:52:42Z</time>
      </trkpt>
      <trkpt lat="44.53353" lon="-0.85223">
        <ele>16.4797363</ele>
        <time>2015-09-20T08:52:46Z</time>
      </trkpt>
      <trkpt lat="44.53342" lon="-0.85207">
        <ele>19.3637695</ele>
        <time>2015-09-20T08:52:50Z</time>
      </trkpt>
      <trkpt lat="44.5333" lon="-0.85198">
        <ele>20.8056641</ele>
        <time>2015-09-20T08:52:54Z</time>
      </trkpt>
      <trkpt lat="44.53329" lon="-0.85195">
        <ele>20.8056641</ele>
        <time>2015-09-20T08:52:55Z</time>
      </trkpt>
      <trkpt lat="44.53317" lon="-0.8519">
        <ele>19.3637695</ele>
        <time>2015-09-20T08:53:00Z</time>
      </trkpt>
      <trkpt lat="44.53313" lon="-0.85189">
        <ele>16.9604492</ele>
        <time>2015-09-20T08:53:03Z</time>
      </trkpt>
      <trkpt lat="44.53307" lon="-0.85189">
        <ele>16.9604492</ele>
        <time>2015-09-20T08:53:05Z</time>
      </trkpt>
      <trkpt lat="44.53292" lon="-0.85199">
        <ele>18.8830566</ele>
        <time>2015-09-20T08:53:10Z</time>
      </trkpt>
      <trkpt lat="44.53277" lon="-0.85205">
        <ele>19.3637695</ele>
        <time>2015-09-20T08:53:14Z</time>
      </trkpt>
      <trkpt lat="44.53263" lon="-0.85206">
        <ele>17.4411621</ele>
        <time>2015-09-20T08:53:18Z</time>
      </trkpt>
      <trkpt lat="44.53251" lon="-0.85202">
        <ele>16.4797363</ele>
        <time>2015-09-20T08:53:23Z</time>
      </trkpt>
      <trkpt lat="44.53244" lon="-0.85206">
        <ele>15.5184326</ele>
        <time>2015-09-20T08:53:26Z</time>
      </trkpt>
      <trkpt lat="44.53237" lon="-0.85201">
        <ele>12.6343994</ele>
        <time>2015-09-20T08:53:30Z</time>
      </trkpt>
      <trkpt lat="44.53239" lon="-0.85188">
        <ele>11.6732178</ele>
        <time>2015-09-20T08:53:34Z</time>
      </trkpt>
      <trkpt lat="44.53239" lon="-0.85178">
        <ele>7.8278809</ele>
        <time>2015-09-20T08:53:37Z</time>
      </trkpt>
      <trkpt lat="44.53242" lon="-0.85172">
        <ele>8.7891846</ele>
        <time>2015-09-20T08:53:39Z</time>
      </trkpt>
      <trkpt lat="44.53247" lon="-0.85166">
        <ele>10.711792</ele>
        <time>2015-09-20T08:53:41Z</time>
      </trkpt>
      <trkpt lat="44.53244" lon="-0.85146">
        <ele>7.8278809</ele>
        <time>2015-09-20T08:53:46Z</time>
      </trkpt>
      <trkpt lat="44.53242" lon="-0.85141">
        <ele>7.347168</ele>
        <time>2015-09-20T08:53:47Z</time>
      </trkpt>
      <trkpt lat="44.53239" lon="-0.85134">
        <ele>7.347168</ele>
        <time>2015-09-20T08:53:49Z</time>
      </trkpt>
      <trkpt lat="44.53241" lon="-0.85118">
        <ele>6.8664551</ele>
        <time>2015-09-20T08:53:54Z</time>
      </trkpt>
      <trkpt lat="44.5324" lon="-0.85106">
        <ele>7.8278809</ele>
        <time>2015-09-20T08:53:58Z</time>
      </trkpt>
      <trkpt lat="44.53237" lon="-0.85096">
        <ele>13.5958252</ele>
        <time>2015-09-20T08:54:02Z</time>
      </trkpt>
      <trkpt lat="44.53234" lon="-0.85092">
        <ele>17.4411621</ele>
        <time>2015-09-20T08:54:09Z</time>
      </trkpt>
      <trkpt lat="44.53232" lon="-0.85088">
        <ele>21.286377</ele>
        <time>2015-09-20T08:54:17Z</time>
      </trkpt>
      <trkpt lat="44.53227" lon="-0.85077">
        <ele>19.3637695</ele>
        <time>2015-09-20T08:54:22Z</time>
      </trkpt>
      <trkpt lat="44.53222" lon="-0.8507">
        <ele>16.9604492</ele>
        <time>2015-09-20T08:54:25Z</time>
      </trkpt>
      <trkpt lat="44.53218" lon="-0.85071">
        <ele>14.076416</ele>
        <time>2015-09-20T08:54:28Z</time>
      </trkpt>
      <trkpt lat="44.53217" lon="-0.85082">
        <ele>11.1925049</ele>
        <time>2015-09-20T08:54:35Z</time>
      </trkpt>
      <trkpt lat="44.53219" lon="-0.85085">
        <ele>10.711792</ele>
        <time>2015-09-20T08:54:37Z</time>
      </trkpt>
      <trkpt lat="44.53219" lon="-0.85087">
        <ele>11.1925049</ele>
        <time>2015-09-20T08:54:45Z</time>
      </trkpt>
      <trkpt lat="44.53215" lon="-0.85082">
        <ele>19.3637695</ele>
        <time>2015-09-20T08:55:06Z</time>
      </trkpt>
      <trkpt lat="44.53216" lon="-0.85074">
        <ele>19.3637695</ele>
        <time>2015-09-20T08:55:11Z</time>
      </trkpt>
      <trkpt lat="44.53215" lon="-0.8507">
        <ele>16.9604492</ele>
        <time>2015-09-20T08:55:21Z</time>
      </trkpt>
      <trkpt lat="44.53215" lon="-0.85069">
        <ele>16.9604492</ele>
        <time>2015-09-20T08:55:23Z</time>
      </trkpt>
      <trkpt lat="44.53219" lon="-0.85068">
        <ele>17.9217529</ele>
        <time>2015-09-20T08:55:28Z</time>
      </trkpt>
      <trkpt lat="44.53222" lon="-0.85071">
        <ele>18.4023438</ele>
        <time>2015-09-20T08:55:33Z</time>
      </trkpt>
      <trkpt lat="44.53225" lon="-0.85074">
        <ele>17.4411621</ele>
        <time>2015-09-20T08:55:38Z</time>
      </trkpt>
      <trkpt lat="44.53225" lon="-0.85074">
        <ele>17.4411621</ele>
        <time>2015-09-20T08:55:42Z</time>
      </trkpt>
      <trkpt lat="44.53228" lon="-0.85079">
        <ele>17.4411621</ele>
        <time>2015-09-20T08:55:46Z</time>
      </trkpt>
      <trkpt lat="44.53234" lon="-0.85086">
        <ele>18.4023438</ele>
        <time>2015-09-20T08:55:53Z</time>
      </trkpt>
      <trkpt lat="44.53241" lon="-0.8509">
        <ele>19.3637695</ele>
        <time>2015-09-20T08:55:57Z</time>
      </trkpt>
      <trkpt lat="44.53247" lon="-0.85085">
        <ele>21.7669678</ele>
        <time>2015-09-20T08:56:03Z</time>
      </trkpt>
      <trkpt lat="44.53249" lon="-0.85068">
        <ele>19.3637695</ele>
        <time>2015-09-20T08:56:09Z</time>
      </trkpt>
      <trkpt lat="44.53259" lon="-0.85058">
        <ele>20.3249512</ele>
        <time>2015-09-20T08:56:14Z</time>
      </trkpt>
      <trkpt lat="44.5326" lon="-0.85056">
        <ele>20.3249512</ele>
        <time>2015-09-20T08:56:15Z</time>
      </trkpt>
      <trkpt lat="44.5327" lon="-0.85039">
        <ele>18.4023438</ele>
        <time>2015-09-20T08:56:22Z</time>
      </trkpt>
      <trkpt lat="44.53276" lon="-0.85022">
        <ele>17.4411621</ele>
        <time>2015-09-20T08:56:27Z</time>
      </trkpt>
      <trkpt lat="44.53277" lon="-0.85018">
        <ele>18.4023438</ele>
        <time>2015-09-20T08:56:31Z</time>
      </trkpt>
      <trkpt lat="44.53282" lon="-0.85014">
        <ele>18.4023438</ele>
        <time>2015-09-20T08:56:36Z</time>
      </trkpt>
      <trkpt lat="44.53288" lon="-0.8501">
        <ele>19.3637695</ele>
        <time>2015-09-20T08:56:40Z</time>
      </trkpt>
      <trkpt lat="44.53293" lon="-0.85007">
        <ele>19.3637695</ele>
        <time>2015-09-20T08:56:45Z</time>
      </trkpt>
      <trkpt lat="44.53298" lon="-0.85001">
        <ele>19.8443604</ele>
        <time>2015-09-20T08:56:51Z</time>
      </trkpt>
      <trkpt lat="44.53313" lon="-0.84993">
        <ele>22.7282715</ele>
        <time>2015-09-20T08:56:58Z</time>
      </trkpt>
      <trkpt lat="44.53325" lon="-0.8498">
        <ele>24.651001</ele>
        <time>2015-09-20T08:57:04Z</time>
      </trkpt>
      <trkpt lat="44.53334" lon="-0.84981">
        <ele>24.651001</ele>
        <time>2015-09-20T08:57:08Z</time>
      </trkpt>
      <trkpt lat="44.53349" lon="-0.84995">
        <ele>21.7669678</ele>
        <time>2015-09-20T08:57:14Z</time>
      </trkpt>
      <trkpt lat="44.53354" lon="-0.84991">
        <ele>22.7282715</ele>
        <time>2015-09-20T08:57:18Z</time>
      </trkpt>
      <trkpt lat="44.53352" lon="-0.8499">
        <ele>22.7282715</ele>
        <time>2015-09-20T08:57:19Z</time>
      </trkpt>
      <trkpt lat="44.53338" lon="-0.84979">
        <ele>21.7669678</ele>
        <time>2015-09-20T08:57:25Z</time>
      </trkpt>
      <trkpt lat="44.53318" lon="-0.84966">
        <ele>18.4023438</ele>
        <time>2015-09-20T08:57:32Z</time>
      </trkpt>
      <trkpt lat="44.53309" lon="-0.8496">
        <ele>16.4797363</ele>
        <time>2015-09-20T08:57:37Z</time>
      </trkpt>
      <trkpt lat="44.53308" lon="-0.84959">
        <ele>15.9990234</ele>
        <time>2015-09-20T08:57:46Z</time>
      </trkpt>
      <trkpt lat="44.53305" lon="-0.84963">
        <ele>9.7506104</ele>
        <time>2015-09-20T08:58:07Z</time>
      </trkpt>
      <trkpt lat="44.53298" lon="-0.84957">
        <ele>9.2698975</ele>
        <time>2015-09-20T08:58:12Z</time>
      </trkpt>
      <trkpt lat="44.5328" lon="-0.84942">
        <ele>9.7506104</ele>
        <time>2015-09-20T08:58:19Z</time>
      </trkpt>
      <trkpt lat="44.53258" lon="-0.84923">
        <ele>10.2312012</ele>
        <time>2015-09-20T08:58:26Z</time>
      </trkpt>
      <trkpt lat="44.53221" lon="-0.84893">
        <ele>10.2312012</ele>
        <time>2015-09-20T08:58:35Z</time>
      </trkpt>
      <trkpt lat="44.53183" lon="-0.84862">
        <ele>10.711792</ele>
        <time>2015-09-20T08:58:43Z</time>
      </trkpt>
      <trkpt lat="44.53153" lon="-0.84838">
        <ele>12.1538086</ele>
        <time>2015-09-20T08:58:50Z</time>
      </trkpt>
      <trkpt lat="44.53132" lon="-0.84823">
        <ele>12.1538086</ele>
        <time>2015-09-20T08:58:55Z</time>
      </trkpt>
      <trkpt lat="44.53098" lon="-0.84796">
        <ele>13.5958252</ele>
        <time>2015-09-20T08:59:03Z</time>
      </trkpt>
      <trkpt lat="44.53071" lon="-0.84773">
        <ele>14.076416</ele>
        <time>2015-09-20T08:59:09Z</time>
      </trkpt>
      <trkpt lat="44.53029" lon="-0.8474">
        <ele>14.076416</ele>
        <time>2015-09-20T08:59:19Z</time>
      </trkpt>
      <trkpt lat="44.52994" lon="-0.84713">
        <ele>15.0377197</ele>
        <time>2015-09-20T08:59:28Z</time>
      </trkpt>
      <trkpt lat="44.52975" lon="-0.84717">
        <ele>15.0377197</ele>
        <time>2015-09-20T08:59:33Z</time>
      </trkpt>
      <trkpt lat="44.52964" lon="-0.8473">
        <ele>15.0377197</ele>
        <time>2015-09-20T08:59:36Z</time>
      </trkpt>
      <trkpt lat="44.52949" lon="-0.84747">
        <ele>15.9990234</ele>
        <time>2015-09-20T08:59:40Z</time>
      </trkpt>
      <trkpt lat="44.52925" lon="-0.84775">
        <ele>16.9604492</ele>
        <time>2015-09-20T08:59:46Z</time>
      </trkpt>
      <trkpt lat="44.52914" lon="-0.84804">
        <ele>17.4411621</ele>
        <time>2015-09-20T08:59:50Z</time>
      </trkpt>
      <trkpt lat="44.52904" lon="-0.84831">
        <ele>17.4411621</ele>
        <time>2015-09-20T08:59:54Z</time>
      </trkpt>
      <trkpt lat="44.52892" lon="-0.84871">
        <ele>15.5184326</ele>
        <time>2015-09-20T09:00:00Z</time>
      </trkpt>
      <trkpt lat="44.52883" lon="-0.84897">
        <ele>13.5958252</ele>
        <time>2015-09-20T09:00:04Z</time>
      </trkpt>
      <trkpt lat="44.52868" lon="-0.84917">
        <ele>12.1538086</ele>
        <time>2015-09-20T09:00:08Z</time>
      </trkpt>
      <trkpt lat="44.52859" lon="-0.84923">
        <ele>12.1538086</ele>
        <time>2015-09-20T09:00:10Z</time>
      </trkpt>
      <trkpt lat="44.52842" lon="-0.84937">
        <ele>12.1538086</ele>
        <time>2015-09-20T09:00:14Z</time>
      </trkpt>
      <trkpt lat="44.52834" lon="-0.84966">
        <ele>12.1538086</ele>
        <time>2015-09-20T09:00:19Z</time>
      </trkpt>
      <trkpt lat="44.52838" lon="-0.84993">
        <ele>12.1538086</ele>
        <time>2015-09-20T09:00:23Z</time>
      </trkpt>
      <trkpt lat="44.52838" lon="-0.85006">
        <ele>12.1538086</ele>
        <time>2015-09-20T09:00:25Z</time>
      </trkpt>
      <trkpt lat="44.52838" lon="-0.8502">
        <ele>13.5958252</ele>
        <time>2015-09-20T09:00:27Z</time>
      </trkpt>
      <trkpt lat="44.52839" lon="-0.85033">
        <ele>13.5958252</ele>
        <time>2015-09-20T09:00:29Z</time>
      </trkpt>
      <trkpt lat="44.52835" lon="-0.85053">
        <ele>13.1151123</ele>
        <time>2015-09-20T09:00:33Z</time>
      </trkpt>
      <trkpt lat="44.52823" lon="-0.85063">
        <ele>13.1151123</ele>
        <time>2015-09-20T09:00:36Z</time>
      </trkpt>
      <trkpt lat="44.52797" lon="-0.85072">
        <ele>12.6343994</ele>
        <time>2015-09-20T09:00:42Z</time>
      </trkpt>
      <trkpt lat="44.52771" lon="-0.85088">
        <ele>13.1151123</ele>
        <time>2015-09-20T09:00:48Z</time>
      </trkpt>
      <trkpt lat="44.5276" lon="-0.85092">
        <ele>13.1151123</ele>
        <time>2015-09-20T09:00:51Z</time>
      </trkpt>
      <trkpt lat="44.5275" lon="-0.85095">
        <ele>12.6343994</ele>
        <time>2015-09-20T09:00:54Z</time>
      </trkpt>
      <trkpt lat="44.52736" lon="-0.85091">
        <ele>12.6343994</ele>
        <time>2015-09-20T09:00:59Z</time>
      </trkpt>
      <trkpt lat="44.52729" lon="-0.85081">
        <ele>12.6343994</ele>
        <time>2015-09-20T09:01:03Z</time>
      </trkpt>
      <trkpt lat="44.52709" lon="-0.85055">
        <ele>11.6732178</ele>
        <time>2015-09-20T09:01:11Z</time>
      </trkpt>
      <trkpt lat="44.527" lon="-0.85042">
        <ele>10.711792</ele>
        <time>2015-09-20T09:01:16Z</time>
      </trkpt>
      <trkpt lat="44.52689" lon="-0.85027">
        <ele>11.1925049</ele>
        <time>2015-09-20T09:01:21Z</time>
      </trkpt>
      <trkpt lat="44.52674" lon="-0.8501">
        <ele>10.2312012</ele>
        <time>2015-09-20T09:01:27Z</time>
      </trkpt>
      <trkpt lat="44.52662" lon="-0.85001">
        <ele>9.7506104</ele>
        <time>2015-09-20T09:01:32Z</time>
      </trkpt>
      <trkpt lat="44.52646" lon="-0.84986">
        <ele>10.711792</ele>
        <time>2015-09-20T09:01:38Z</time>
      </trkpt>
      <trkpt lat="44.52624" lon="-0.8497">
        <ele>12.1538086</ele>
        <time>2015-09-20T09:01:45Z</time>
      </trkpt>
      <trkpt lat="44.5261" lon="-0.84952">
        <ele>12.6343994</ele>
        <time>2015-09-20T09:01:50Z</time>
      </trkpt>
      <trkpt lat="44.52597" lon="-0.84944">
        <ele>12.1538086</ele>
        <time>2015-09-20T09:01:54Z</time>
      </trkpt>
      <trkpt lat="44.52594" lon="-0.84943">
        <ele>11.6732178</ele>
        <time>2015-09-20T09:01:55Z</time>
      </trkpt>
      <trkpt lat="44.52573" lon="-0.84934">
        <ele>12.6343994</ele>
        <time>2015-09-20T09:02:00Z</time>
      </trkpt>
      <trkpt lat="44.52568" lon="-0.84932">
        <ele>12.1538086</ele>
        <time>2015-09-20T09:02:01Z</time>
      </trkpt>
      <trkpt lat="44.52551" lon="-0.84919">
        <ele>11.6732178</ele>
        <time>2015-09-20T09:02:05Z</time>
      </trkpt>
      <trkpt lat="44.52528" lon="-0.84898">
        <ele>13.1151123</ele>
        <time>2015-09-20T09:02:11Z</time>
      </trkpt>
      <trkpt lat="44.525" lon="-0.84871">
        <ele>13.5958252</ele>
        <time>2015-09-20T09:02:18Z</time>
      </trkpt>
      <trkpt lat="44.52477" lon="-0.84847">
        <ele>14.076416</ele>
        <time>2015-09-20T09:02:24Z</time>
      </trkpt>
      <trkpt lat="44.52455" lon="-0.84819">
        <ele>14.076416</ele>
        <time>2015-09-20T09:02:30Z</time>
      </trkpt>
      <trkpt lat="44.5244" lon="-0.84801">
        <ele>13.5958252</ele>
        <time>2015-09-20T09:02:34Z</time>
      </trkpt>
      <trkpt lat="44.52418" lon="-0.84777">
        <ele>13.5958252</ele>
        <time>2015-09-20T09:02:40Z</time>
      </trkpt>
      <trkpt lat="44.52408" lon="-0.84765">
        <ele>13.5958252</ele>
        <time>2015-09-20T09:02:43Z</time>
      </trkpt>
      <trkpt lat="44.52393" lon="-0.84746">
        <ele>13.5958252</ele>
        <time>2015-09-20T09:02:47Z</time>
      </trkpt>
      <trkpt lat="44.52388" lon="-0.84736">
        <ele>14.076416</ele>
        <time>2015-09-20T09:02:49Z</time>
      </trkpt>
      <trkpt lat="44.52373" lon="-0.84708">
        <ele>15.0377197</ele>
        <time>2015-09-20T09:02:55Z</time>
      </trkpt>
      <trkpt lat="44.52368" lon="-0.84699">
        <ele>15.0377197</ele>
        <time>2015-09-20T09:02:57Z</time>
      </trkpt>
      <trkpt lat="44.52353" lon="-0.8468">
        <ele>13.5958252</ele>
        <time>2015-09-20T09:03:02Z</time>
      </trkpt>
      <trkpt lat="44.52339" lon="-0.8467">
        <ele>12.6343994</ele>
        <time>2015-09-20T09:03:06Z</time>
      </trkpt>
      <trkpt lat="44.52319" lon="-0.84652">
        <ele>13.5958252</ele>
        <time>2015-09-20T09:03:12Z</time>
      </trkpt>
      <trkpt lat="44.52313" lon="-0.84645">
        <ele>13.1151123</ele>
        <time>2015-09-20T09:03:14Z</time>
      </trkpt>
      <trkpt lat="44.52296" lon="-0.84626">
        <ele>14.5570068</ele>
        <time>2015-09-20T09:03:19Z</time>
      </trkpt>
      <trkpt lat="44.52287" lon="-0.84615">
        <ele>14.5570068</ele>
        <time>2015-09-20T09:03:22Z</time>
      </trkpt>
      <trkpt lat="44.52279" lon="-0.84601">
        <ele>15.0377197</ele>
        <time>2015-09-20T09:03:25Z</time>
      </trkpt>
      <trkpt lat="44.52265" lon="-0.84586">
        <ele>15.5184326</ele>
        <time>2015-09-20T09:03:30Z</time>
      </trkpt>
      <trkpt lat="44.52263" lon="-0.84578">
        <ele>15.9990234</ele>
        <time>2015-09-20T09:03:32Z</time>
      </trkpt>
      <trkpt lat="44.52262" lon="-0.84562">
        <ele>20.8056641</ele>
        <time>2015-09-20T09:03:35Z</time>
      </trkpt>
      <trkpt lat="44.52253" lon="-0.84554">
        <ele>21.286377</ele>
        <time>2015-09-20T09:03:39Z</time>
      </trkpt>
      <trkpt lat="44.52236" lon="-0.84547">
        <ele>20.3249512</ele>
        <time>2015-09-20T09:03:44Z</time>
      </trkpt>
      <trkpt lat="44.52231" lon="-0.84549">
        <ele>18.8830566</ele>
        <time>2015-09-20T09:03:48Z</time>
      </trkpt>
      <trkpt lat="44.52225" lon="-0.84553">
        <ele>16.9604492</ele>
        <time>2015-09-20T09:03:53Z</time>
      </trkpt>
      <trkpt lat="44.52218" lon="-0.84557">
        <ele>11.6732178</ele>
        <time>2015-09-20T09:03:58Z</time>
      </trkpt>
      <trkpt lat="44.52202" lon="-0.84565">
        <ele>6.8664551</ele>
        <time>2015-09-20T09:04:04Z</time>
      </trkpt>
      <trkpt lat="44.52196" lon="-0.84568">
        <ele>5.4245605</ele>
        <time>2015-09-20T09:04:06Z</time>
      </trkpt>
      <trkpt lat="44.52177" lon="-0.84562">
        <ele>0.1374512</ele>
        <time>2015-09-20T09:04:13Z</time>
      </trkpt>
      <trkpt lat="44.52165" lon="-0.84556">
        <ele>-0.3433838</ele>
        <time>2015-09-20T09:04:18Z</time>
      </trkpt>
      <trkpt lat="44.52156" lon="-0.8455">
        <ele>4.9438477</ele>
        <time>2015-09-20T09:04:23Z</time>
      </trkpt>
      <trkpt lat="44.52155" lon="-0.8455">
        <ele>5.9052734</ele>
        <time>2015-09-20T09:04:24Z</time>
      </trkpt>
      <trkpt lat="44.5215" lon="-0.84542">
        <ele>12.1538086</ele>
        <time>2015-09-20T09:04:27Z</time>
      </trkpt>
      <trkpt lat="44.52148" lon="-0.84537">
        <ele>15.0377197</ele>
        <time>2015-09-20T09:04:34Z</time>
      </trkpt>
      <trkpt lat="44.5215" lon="-0.84537">
        <ele>15.9990234</ele>
        <time>2015-09-20T09:04:41Z</time>
      </trkpt>
      <trkpt lat="44.52154" lon="-0.84527">
        <ele>20.3249512</ele>
        <time>2015-09-20T09:04:47Z</time>
      </trkpt>
      <trkpt lat="44.52153" lon="-0.84522">
        <ele>21.286377</ele>
        <time>2015-09-20T09:04:51Z</time>
      </trkpt>
      <trkpt lat="44.5215" lon="-0.84523">
        <ele>27.0543213</ele>
        <time>2015-09-20T09:05:25Z</time>
      </trkpt>
      <trkpt lat="44.5215" lon="-0.84526">
        <ele>26.0928955</ele>
        <time>2015-09-20T09:05:31Z</time>
      </trkpt>
      <trkpt lat="44.52151" lon="-0.84525">
        <ele>21.286377</ele>
        <time>2015-09-20T09:05:45Z</time>
      </trkpt>
      <trkpt lat="44.52145" lon="-0.8452">
        <ele>20.8056641</ele>
        <time>2015-09-20T09:05:51Z</time>
      </trkpt>
      <trkpt lat="44.52139" lon="-0.84506">
        <ele>21.7669678</ele>
        <time>2015-09-20T09:05:57Z</time>
      </trkpt>
      <trkpt lat="44.52132" lon="-0.84491">
        <ele>22.7282715</ele>
        <time>2015-09-20T09:06:04Z</time>
      </trkpt>
      <trkpt lat="44.52127" lon="-0.84487">
        <ele>22.7282715</ele>
        <time>2015-09-20T09:06:06Z</time>
      </trkpt>
      <trkpt lat="44.52119" lon="-0.84473">
        <ele>24.1702881</ele>
        <time>2015-09-20T09:06:11Z</time>
      </trkpt>
      <trkpt lat="44.52107" lon="-0.84472">
        <ele>25.1317139</ele>
        <time>2015-09-20T09:06:16Z</time>
      </trkpt>
      <trkpt lat="44.52103" lon="-0.84472">
        <ele>24.651001</ele>
        <time>2015-09-20T09:06:18Z</time>
      </trkpt>
      <trkpt lat="44.52098" lon="-0.84469">
        <ele>26.5736084</ele>
        <time>2015-09-20T09:06:20Z</time>
      </trkpt>
      <trkpt lat="44.52094" lon="-0.84469">
        <ele>24.1702881</ele>
        <time>2015-09-20T09:06:24Z</time>
      </trkpt>
      <trkpt lat="44.52082" lon="-0.84465">
        <ele>23.2089844</ele>
        <time>2015-09-20T09:06:30Z</time>
      </trkpt>
      <trkpt lat="44.52076" lon="-0.84465">
        <ele>22.7282715</ele>
        <time>2015-09-20T09:06:32Z</time>
      </trkpt>
      <trkpt lat="44.52057" lon="-0.84464">
        <ele>21.7669678</ele>
        <time>2015-09-20T09:06:39Z</time>
      </trkpt>
      <trkpt lat="44.52041" lon="-0.84466">
        <ele>19.8443604</ele>
        <time>2015-09-20T09:06:45Z</time>
      </trkpt>
      <trkpt lat="44.52035" lon="-0.84467">
        <ele>19.3637695</ele>
        <time>2015-09-20T09:06:47Z</time>
      </trkpt>
      <trkpt lat="44.52026" lon="-0.84456">
        <ele>17.9217529</ele>
        <time>2015-09-20T09:06:52Z</time>
      </trkpt>
      <trkpt lat="44.52024" lon="-0.84442">
        <ele>23.2089844</ele>
        <time>2015-09-20T09:06:56Z</time>
      </trkpt>
      <trkpt lat="44.52024" lon="-0.84427">
        <ele>22.2475586</ele>
        <time>2015-09-20T09:07:00Z</time>
      </trkpt>
      <trkpt lat="44.52017" lon="-0.84414">
        <ele>19.3637695</ele>
        <time>2015-09-20T09:07:04Z</time>
      </trkpt>
      <trkpt lat="44.52013" lon="-0.84405">
        <ele>19.8443604</ele>
        <time>2015-09-20T09:07:08Z</time>
      </trkpt>
      <trkpt lat="44.52011" lon="-0.84405">
        <ele>19.8443604</ele>
        <time>2015-09-20T09:07:09Z</time>
      </trkpt>
      <trkpt lat="44.52005" lon="-0.84406">
        <ele>18.4023438</ele>
        <time>2015-09-20T09:07:12Z</time>
      </trkpt>
      <trkpt lat="44.51996" lon="-0.84417">
        <ele>14.5570068</ele>
        <time>2015-09-20T09:07:18Z</time>
      </trkpt>
      <trkpt lat="44.51998" lon="-0.8443">
        <ele>10.711792</ele>
        <time>2015-09-20T09:07:22Z</time>
      </trkpt>
      <trkpt lat="44.51996" lon="-0.84451">
        <ele>7.8278809</ele>
        <time>2015-09-20T09:07:26Z</time>
      </trkpt>
      <trkpt lat="44.51996" lon="-0.84454">
        <ele>6.8664551</ele>
        <time>2015-09-20T09:07:27Z</time>
      </trkpt>
      <trkpt lat="44.52002" lon="-0.84455">
        <ele>6.3858643</ele>
        <time>2015-09-20T09:07:32Z</time>
      </trkpt>
      <trkpt lat="44.52002" lon="-0.84454">
        <ele>7.347168</ele>
        <time>2015-09-20T09:07:33Z</time>
      </trkpt>
      <trkpt lat="44.52002" lon="-0.84439">
        <ele>10.711792</ele>
        <time>2015-09-20T09:07:38Z</time>
      </trkpt>
      <trkpt lat="44.52009" lon="-0.84432">
        <ele>12.6343994</ele>
        <time>2015-09-20T09:07:43Z</time>
      </trkpt>
      <trkpt lat="44.52013" lon="-0.84433">
        <ele>13.5958252</ele>
        <time>2015-09-20T09:07:45Z</time>
      </trkpt>
      <trkpt lat="44.52018" lon="-0.84428">
        <ele>15.5184326</ele>
        <time>2015-09-20T09:07:49Z</time>
      </trkpt>
      <trkpt lat="44.52018" lon="-0.84418">
        <ele>18.4023438</ele>
        <time>2015-09-20T09:07:54Z</time>
      </trkpt>
      <trkpt lat="44.52014" lon="-0.84409">
        <ele>18.8830566</ele>
        <time>2015-09-20T09:07:58Z</time>
      </trkpt>
      <trkpt lat="44.52015" lon="-0.84404">
        <ele>20.8056641</ele>
        <time>2015-09-20T09:08:00Z</time>
      </trkpt>
      <trkpt lat="44.52014" lon="-0.84401">
        <ele>21.286377</ele>
        <time>2015-09-20T09:08:02Z</time>
      </trkpt>
      <trkpt lat="44.52009" lon="-0.844">
        <ele>21.286377</ele>
        <time>2015-09-20T09:08:06Z</time>
      </trkpt>
      <trkpt lat="44.51998" lon="-0.84402">
        <ele>21.286377</ele>
        <time>2015-09-20T09:08:12Z</time>
      </trkpt>
      <trkpt lat="44.51987" lon="-0.84418">
        <ele>19.3637695</ele>
        <time>2015-09-20T09:08:18Z</time>
      </trkpt>
      <trkpt lat="44.51983" lon="-0.84421">
        <ele>17.4411621</ele>
        <time>2015-09-20T09:08:22Z</time>
      </trkpt>
      <trkpt lat="44.51978" lon="-0.84424">
        <ele>17.4411621</ele>
        <time>2015-09-20T09:08:26Z</time>
      </trkpt>
      <trkpt lat="44.51979" lon="-0.84425">
        <ele>16.4797363</ele>
        <time>2015-09-20T09:08:39Z</time>
      </trkpt>
      <trkpt lat="44.5198" lon="-0.84425">
        <ele>16.4797363</ele>
        <time>2015-09-20T09:08:40Z</time>
      </trkpt>
      <trkpt lat="44.51988" lon="-0.84419">
        <ele>16.9604492</ele>
        <time>2015-09-20T09:08:47Z</time>
      </trkpt>
      <trkpt lat="44.51991" lon="-0.84415">
        <ele>17.4411621</ele>
        <time>2015-09-20T09:08:51Z</time>
      </trkpt>
      <trkpt lat="44.51995" lon="-0.84407">
        <ele>18.8830566</ele>
        <time>2015-09-20T09:09:01Z</time>
      </trkpt>
      <trkpt lat="44.51997" lon="-0.84406">
        <ele>19.3637695</ele>
        <time>2015-09-20T09:09:05Z</time>
      </trkpt>
      <trkpt lat="44.52" lon="-0.84405">
        <ele>20.8056641</ele>
        <time>2015-09-20T09:09:09Z</time>
      </trkpt>
      <trkpt lat="44.52008" lon="-0.84401">
        <ele>24.651001</ele>
        <time>2015-09-20T09:09:19Z</time>
      </trkpt>
      <trkpt lat="44.52012" lon="-0.84399">
        <ele>28.9769287</ele>
        <time>2015-09-20T09:09:31Z</time>
      </trkpt>
      <trkpt lat="44.52016" lon="-0.84394">
        <ele>31.380127</ele>
        <time>2015-09-20T09:09:46Z</time>
      </trkpt>
      <trkpt lat="44.52016" lon="-0.8439">
        <ele>31.8607178</ele>
        <time>2015-09-20T09:09:49Z</time>
      </trkpt>
      <trkpt lat="44.52017" lon="-0.84386">
        <ele>30.8995361</ele>
        <time>2015-09-20T09:09:53Z</time>
      </trkpt>
      <trkpt lat="44.52016" lon="-0.84376">
        <ele>28.4962158</ele>
        <time>2015-09-20T09:10:05Z</time>
      </trkpt>
      <trkpt lat="44.52015" lon="-0.84367">
        <ele>28.0155029</ele>
        <time>2015-09-20T09:10:09Z</time>
      </trkpt>
      <trkpt lat="44.52012" lon="-0.84358">
        <ele>25.1317139</ele>
        <time>2015-09-20T09:10:14Z</time>
      </trkpt>
      <trkpt lat="44.52014" lon="-0.84343">
        <ele>23.6895752</ele>
        <time>2015-09-20T09:10:20Z</time>
      </trkpt>
      <trkpt lat="44.52021" lon="-0.8433">
        <ele>22.7282715</ele>
        <time>2015-09-20T09:10:26Z</time>
      </trkpt>
      <trkpt lat="44.52028" lon="-0.84319">
        <ele>24.651001</ele>
        <time>2015-09-20T09:10:31Z</time>
      </trkpt>
      <trkpt lat="44.52033" lon="-0.84299">
        <ele>25.1317139</ele>
        <time>2015-09-20T09:10:38Z</time>
      </trkpt>
      <trkpt lat="44.52032" lon="-0.84293">
        <ele>26.5736084</ele>
        <time>2015-09-20T09:10:41Z</time>
      </trkpt>
      <trkpt lat="44.52028" lon="-0.84282">
        <ele>28.0155029</ele>
        <time>2015-09-20T09:10:46Z</time>
      </trkpt>
      <trkpt lat="44.52027" lon="-0.84277">
        <ele>27.0543213</ele>
        <time>2015-09-20T09:10:50Z</time>
      </trkpt>
      <trkpt lat="44.52029" lon="-0.84269">
        <ele>30.4188232</ele>
        <time>2015-09-20T09:10:56Z</time>
      </trkpt>
      <trkpt lat="44.52033" lon="-0.84263">
        <ele>29.9381104</ele>
        <time>2015-09-20T09:11:02Z</time>
      </trkpt>
      <trkpt lat="44.52031" lon="-0.84261">
        <ele>28.0155029</ele>
        <time>2015-09-20T09:11:11Z</time>
      </trkpt>
      <trkpt lat="44.52028" lon="-0.84255">
        <ele>24.651001</ele>
        <time>2015-09-20T09:11:21Z</time>
      </trkpt>
      <trkpt lat="44.52024" lon="-0.84246">
        <ele>24.1702881</ele>
        <time>2015-09-20T09:11:26Z</time>
      </trkpt>
      <trkpt lat="44.52019" lon="-0.84234">
        <ele>23.6895752</ele>
        <time>2015-09-20T09:11:31Z</time>
      </trkpt>
      <trkpt lat="44.52013" lon="-0.84232">
        <ele>24.1702881</ele>
        <time>2015-09-20T09:11:36Z</time>
      </trkpt>
      <trkpt lat="44.52006" lon="-0.84222">
        <ele>24.651001</ele>
        <time>2015-09-20T09:11:42Z</time>
      </trkpt>
      <trkpt lat="44.52004" lon="-0.84217">
        <ele>24.651001</ele>
        <time>2015-09-20T09:11:44Z</time>
      </trkpt>
      <trkpt lat="44.52004" lon="-0.84197">
        <ele>26.0928955</ele>
        <time>2015-09-20T09:11:51Z</time>
      </trkpt>
      <trkpt lat="44.52004" lon="-0.84194">
        <ele>25.6123047</ele>
        <time>2015-09-20T09:11:52Z</time>
      </trkpt>
      <trkpt lat="44.52008" lon="-0.84175">
        <ele>27.5349121</ele>
        <time>2015-09-20T09:12:00Z</time>
      </trkpt>
      <trkpt lat="44.5201" lon="-0.84171">
        <ele>29.9381104</ele>
        <time>2015-09-20T09:12:05Z</time>
      </trkpt>
      <trkpt lat="44.5201" lon="-0.84168">
        <ele>26.5736084</ele>
        <time>2015-09-20T09:12:18Z</time>
      </trkpt>
      <trkpt lat="44.52007" lon="-0.84169">
        <ele>23.6895752</ele>
        <time>2015-09-20T09:12:21Z</time>
      </trkpt>
      <trkpt lat="44.51999" lon="-0.84176">
        <ele>18.8830566</ele>
        <time>2015-09-20T09:12:26Z</time>
      </trkpt>
      <trkpt lat="44.51998" lon="-0.84176">
        <ele>18.4023438</ele>
        <time>2015-09-20T09:12:27Z</time>
      </trkpt>
      <trkpt lat="44.51994" lon="-0.84178">
        <ele>17.4411621</ele>
        <time>2015-09-20T09:12:33Z</time>
      </trkpt>
      <trkpt lat="44.51983" lon="-0.84184">
        <ele>15.9990234</ele>
        <time>2015-09-20T09:12:38Z</time>
      </trkpt>
      <trkpt lat="44.51976" lon="-0.84186">
        <ele>15.5184326</ele>
        <time>2015-09-20T09:12:41Z</time>
      </trkpt>
      <trkpt lat="44.51973" lon="-0.84183">
        <ele>17.4411621</ele>
        <time>2015-09-20T09:12:48Z</time>
      </trkpt>
      <trkpt lat="44.51972" lon="-0.84179">
        <ele>22.2475586</ele>
        <time>2015-09-20T09:12:56Z</time>
      </trkpt>
      <trkpt lat="44.51971" lon="-0.8418">
        <ele>25.1317139</ele>
        <time>2015-09-20T09:13:17Z</time>
      </trkpt>
      <trkpt lat="44.51966" lon="-0.84179">
        <ele>27.0543213</ele>
        <time>2015-09-20T09:13:53Z</time>
      </trkpt>
      <trkpt lat="44.51963" lon="-0.84165">
        <ele>23.6895752</ele>
        <time>2015-09-20T09:14:00Z</time>
      </trkpt>
      <trkpt lat="44.51961" lon="-0.84155">
        <ele>23.6895752</ele>
        <time>2015-09-20T09:14:03Z</time>
      </trkpt>
      <trkpt lat="44.51956" lon="-0.84153">
        <ele>21.7669678</ele>
        <time>2015-09-20T09:14:06Z</time>
      </trkpt>
      <trkpt lat="44.51951" lon="-0.84137">
        <ele>20.3249512</ele>
        <time>2015-09-20T09:14:11Z</time>
      </trkpt>
      <trkpt lat="44.5195" lon="-0.84129">
        <ele>22.7282715</ele>
        <time>2015-09-20T09:14:13Z</time>
      </trkpt>
      <trkpt lat="44.51958" lon="-0.84121">
        <ele>25.1317139</ele>
        <time>2015-09-20T09:14:18Z</time>
      </trkpt>
      <trkpt lat="44.51956" lon="-0.8411">
        <ele>26.0928955</ele>
        <time>2015-09-20T09:14:22Z</time>
      </trkpt>
      <trkpt lat="44.51955" lon="-0.84107">
        <ele>26.5736084</ele>
        <time>2015-09-20T09:14:23Z</time>
      </trkpt>
      <trkpt lat="44.51953" lon="-0.84102">
        <ele>26.5736084</ele>
        <time>2015-09-20T09:14:25Z</time>
      </trkpt>
      <trkpt lat="44.51948" lon="-0.84104">
        <ele>24.651001</ele>
        <time>2015-09-20T09:14:30Z</time>
      </trkpt>
      <trkpt lat="44.51941" lon="-0.84099">
        <ele>22.7282715</ele>
        <time>2015-09-20T09:14:35Z</time>
      </trkpt>
      <trkpt lat="44.51936" lon="-0.84093">
        <ele>22.2475586</ele>
        <time>2015-09-20T09:14:38Z</time>
      </trkpt>
      <trkpt lat="44.51921" lon="-0.84083">
        <ele>18.4023438</ele>
        <time>2015-09-20T09:14:45Z</time>
      </trkpt>
      <trkpt lat="44.51912" lon="-0.84074">
        <ele>15.9990234</ele>
        <time>2015-09-20T09:14:51Z</time>
      </trkpt>
      <trkpt lat="44.51891" lon="-0.84057">
        <ele>12.6343994</ele>
        <time>2015-09-20T09:14:58Z</time>
      </trkpt>
      <trkpt lat="44.51875" lon="-0.84049">
        <ele>14.5570068</ele>
        <time>2015-09-20T09:15:02Z</time>
      </trkpt>
      <trkpt lat="44.51868" lon="-0.84046">
        <ele>15.0377197</ele>
        <time>2015-09-20T09:15:04Z</time>
      </trkpt>
      <trkpt lat="44.51862" lon="-0.84025">
        <ele>22.2475586</ele>
        <time>2015-09-20T09:15:09Z</time>
      </trkpt>
      <trkpt lat="44.51862" lon="-0.84007">
        <ele>19.8443604</ele>
        <time>2015-09-20T09:15:13Z</time>
      </trkpt>
      <trkpt lat="44.51862" lon="-0.83992">
        <ele>22.7282715</ele>
        <time>2015-09-20T09:15:17Z</time>
      </trkpt>
      <trkpt lat="44.51866" lon="-0.83985">
        <ele>22.7282715</ele>
        <time>2015-09-20T09:15:20Z</time>
      </trkpt>
      <trkpt lat="44.51864" lon="-0.83975">
        <ele>20.8056641</ele>
        <time>2015-09-20T09:15:26Z</time>
      </trkpt>
      <trkpt lat="44.51857" lon="-0.83974">
        <ele>20.3249512</ele>
        <time>2015-09-20T09:15:30Z</time>
      </trkpt>
      <trkpt lat="44.51842" lon="-0.83978">
        <ele>20.3249512</ele>
        <time>2015-09-20T09:15:37Z</time>
      </trkpt>
      <trkpt lat="44.5183" lon="-0.83982">
        <ele>19.3637695</ele>
        <time>2015-09-20T09:15:43Z</time>
      </trkpt>
      <trkpt lat="44.51823" lon="-0.83985">
        <ele>19.3637695</ele>
        <time>2015-09-20T09:15:48Z</time>
      </trkpt>
      <trkpt lat="44.51822" lon="-0.83984">
        <ele>19.8443604</ele>
        <time>2015-09-20T09:15:57Z</time>
      </trkpt>
      <trkpt lat="44.51822" lon="-0.83985">
        <ele>18.8830566</ele>
        <time>2015-09-20T09:16:01Z</time>
      </trkpt>
      <trkpt lat="44.51814" lon="-0.83988">
        <ele>17.4411621</ele>
        <time>2015-09-20T09:16:05Z</time>
      </trkpt>
      <trkpt lat="44.51792" lon="-0.83999">
        <ele>15.5184326</ele>
        <time>2015-09-20T09:16:10Z</time>
      </trkpt>
      <trkpt lat="44.51749" lon="-0.84018">
        <ele>14.076416</ele>
        <time>2015-09-20T09:16:17Z</time>
      </trkpt>
      <trkpt lat="44.51691" lon="-0.84044">
        <ele>12.1538086</ele>
        <time>2015-09-20T09:16:26Z</time>
      </trkpt>
      <trkpt lat="44.51653" lon="-0.8406">
        <ele>10.711792</ele>
        <time>2015-09-20T09:16:32Z</time>
      </trkpt>
      <trkpt lat="44.51615" lon="-0.84074">
        <ele>9.7506104</ele>
        <time>2015-09-20T09:16:38Z</time>
      </trkpt>
      <trkpt lat="44.51594" lon="-0.84064">
        <ele>9.2698975</ele>
        <time>2015-09-20T09:16:42Z</time>
      </trkpt>
      <trkpt lat="44.5159" lon="-0.84059">
        <ele>10.711792</ele>
        <time>2015-09-20T09:16:43Z</time>
      </trkpt>
      <trkpt lat="44.51589" lon="-0.84033">
        <ele>8.3085938</ele>
        <time>2015-09-20T09:16:46Z</time>
      </trkpt>
      <trkpt lat="44.51582" lon="-0.84006">
        <ele>5.4245605</ele>
        <time>2015-09-20T09:16:49Z</time>
      </trkpt>
      <trkpt lat="44.51575" lon="-0.8399">
        <ele>5.9052734</ele>
        <time>2015-09-20T09:16:51Z</time>
      </trkpt>
      <trkpt lat="44.51569" lon="-0.83957">
        <ele>5.9052734</ele>
        <time>2015-09-20T09:16:55Z</time>
      </trkpt>
      <trkpt lat="44.51569" lon="-0.83921">
        <ele>6.8664551</ele>
        <time>2015-09-20T09:16:59Z</time>
      </trkpt>
      <trkpt lat="44.51565" lon="-0.83894">
        <ele>7.8278809</ele>
        <time>2015-09-20T09:17:03Z</time>
      </trkpt>
      <trkpt lat="44.51568" lon="-0.83876">
        <ele>12.6343994</ele>
        <time>2015-09-20T09:17:07Z</time>
      </trkpt>
      <trkpt lat="44.51565" lon="-0.83869">
        <ele>13.5958252</ele>
        <time>2015-09-20T09:17:10Z</time>
      </trkpt>
      <trkpt lat="44.5156" lon="-0.8386">
        <ele>12.1538086</ele>
        <time>2015-09-20T09:17:14Z</time>
      </trkpt>
      <trkpt lat="44.51554" lon="-0.83848">
        <ele>13.1151123</ele>
        <time>2015-09-20T09:17:17Z</time>
      </trkpt>
      <trkpt lat="44.51537" lon="-0.83824">
        <ele>12.1538086</ele>
        <time>2015-09-20T09:17:22Z</time>
      </trkpt>
      <trkpt lat="44.51529" lon="-0.83816">
        <ele>12.1538086</ele>
        <time>2015-09-20T09:17:24Z</time>
      </trkpt>
      <trkpt lat="44.51516" lon="-0.83802">
        <ele>11.1925049</ele>
        <time>2015-09-20T09:17:27Z</time>
      </trkpt>
      <trkpt lat="44.51508" lon="-0.8379">
        <ele>10.711792</ele>
        <time>2015-09-20T09:17:29Z</time>
      </trkpt>
      <trkpt lat="44.51497" lon="-0.8376">
        <ele>9.2698975</ele>
        <time>2015-09-20T09:17:33Z</time>
      </trkpt>
      <trkpt lat="44.5149" lon="-0.83745">
        <ele>9.7506104</ele>
        <time>2015-09-20T09:17:35Z</time>
      </trkpt>
      <trkpt lat="44.51484" lon="-0.83721">
        <ele>11.1925049</ele>
        <time>2015-09-20T09:17:38Z</time>
      </trkpt>
      <trkpt lat="44.51475" lon="-0.83684">
        <ele>13.5958252</ele>
        <time>2015-09-20T09:17:43Z</time>
      </trkpt>
      <trkpt lat="44.51472" lon="-0.83655">
        <ele>12.1538086</ele>
        <time>2015-09-20T09:17:48Z</time>
      </trkpt>
      <trkpt lat="44.51473" lon="-0.83647">
        <ele>12.1538086</ele>
        <time>2015-09-20T09:17:49Z</time>
      </trkpt>
      <trkpt lat="44.5148" lon="-0.83599">
        <ele>14.5570068</ele>
        <time>2015-09-20T09:17:55Z</time>
      </trkpt>
      <trkpt lat="44.51484" lon="-0.83593">
        <ele>15.5184326</ele>
        <time>2015-09-20T09:17:56Z</time>
      </trkpt>
      <trkpt lat="44.51503" lon="-0.83576">
        <ele>16.9604492</ele>
        <time>2015-09-20T09:18:00Z</time>
      </trkpt>
      <trkpt lat="44.51518" lon="-0.83563">
        <ele>17.4411621</ele>
        <time>2015-09-20T09:18:03Z</time>
      </trkpt>
      <trkpt lat="44.51534" lon="-0.83553">
        <ele>20.8056641</ele>
        <time>2015-09-20T09:18:07Z</time>
      </trkpt>
      <trkpt lat="44.51539" lon="-0.83542">
        <ele>21.7669678</ele>
        <time>2015-09-20T09:18:10Z</time>
      </trkpt>
      <trkpt lat="44.51548" lon="-0.83518">
        <ele>19.3637695</ele>
        <time>2015-09-20T09:18:16Z</time>
      </trkpt>
      <trkpt lat="44.51554" lon="-0.83492">
        <ele>18.8830566</ele>
        <time>2015-09-20T09:18:21Z</time>
      </trkpt>
      <trkpt lat="44.51555" lon="-0.83483">
        <ele>18.8830566</ele>
        <time>2015-09-20T09:18:23Z</time>
      </trkpt>
      <trkpt lat="44.51549" lon="-0.83459">
        <ele>21.7669678</ele>
        <time>2015-09-20T09:18:29Z</time>
      </trkpt>
      <trkpt lat="44.5154" lon="-0.83438">
        <ele>21.7669678</ele>
        <time>2015-09-20T09:18:35Z</time>
      </trkpt>
      <trkpt lat="44.51535" lon="-0.83429">
        <ele>19.8443604</ele>
        <time>2015-09-20T09:18:39Z</time>
      </trkpt>
      <trkpt lat="44.51533" lon="-0.83427">
        <ele>19.8443604</ele>
        <time>2015-09-20T09:18:40Z</time>
      </trkpt>
      <trkpt lat="44.51527" lon="-0.83412">
        <ele>15.0377197</ele>
        <time>2015-09-20T09:18:45Z</time>
      </trkpt>
      <trkpt lat="44.51529" lon="-0.83398">
        <ele>15.5184326</ele>
        <time>2015-09-20T09:18:50Z</time>
      </trkpt>
      <trkpt lat="44.5153" lon="-0.83385">
        <ele>14.076416</ele>
        <time>2015-09-20T09:18:56Z</time>
      </trkpt>
      <trkpt lat="44.5153" lon="-0.83375">
        <ele>15.5184326</ele>
        <time>2015-09-20T09:19:00Z</time>
      </trkpt>
      <trkpt lat="44.51534" lon="-0.83366">
        <ele>15.9990234</ele>
        <time>2015-09-20T09:19:04Z</time>
      </trkpt>
      <trkpt lat="44.5154" lon="-0.83346">
        <ele>16.4797363</ele>
        <time>2015-09-20T09:19:10Z</time>
      </trkpt>
      <trkpt lat="44.51548" lon="-0.8333">
        <ele>16.9604492</ele>
        <time>2015-09-20T09:19:15Z</time>
      </trkpt>
      <trkpt lat="44.51551" lon="-0.83322">
        <ele>16.9604492</ele>
        <time>2015-09-20T09:19:17Z</time>
      </trkpt>
      <trkpt lat="44.51562" lon="-0.83317">
        <ele>15.5184326</ele>
        <time>2015-09-20T09:19:22Z</time>
      </trkpt>
      <trkpt lat="44.51568" lon="-0.83314">
        <ele>15.5184326</ele>
        <time>2015-09-20T09:19:24Z</time>
      </trkpt>
      <trkpt lat="44.51573" lon="-0.83312">
        <ele>15.5184326</ele>
        <time>2015-09-20T09:19:26Z</time>
      </trkpt>
      <trkpt lat="44.51582" lon="-0.83313">
        <ele>16.4797363</ele>
        <time>2015-09-20T09:19:30Z</time>
      </trkpt>
      <trkpt lat="44.51595" lon="-0.83309">
        <ele>17.9217529</ele>
        <time>2015-09-20T09:19:36Z</time>
      </trkpt>
      <trkpt lat="44.51605" lon="-0.83308">
        <ele>19.3637695</ele>
        <time>2015-09-20T09:19:41Z</time>
      </trkpt>
      <trkpt lat="44.51611" lon="-0.83307">
        <ele>21.7669678</ele>
        <time>2015-09-20T09:19:44Z</time>
      </trkpt>
      <trkpt lat="44.51622" lon="-0.83303">
        <ele>24.1702881</ele>
        <time>2015-09-20T09:19:50Z</time>
      </trkpt>
      <trkpt lat="44.51624" lon="-0.83302">
        <ele>24.651001</ele>
        <time>2015-09-20T09:19:51Z</time>
      </trkpt>
      <trkpt lat="44.5163" lon="-0.83301">
        <ele>25.1317139</ele>
        <time>2015-09-20T09:19:56Z</time>
      </trkpt>
      <trkpt lat="44.51629" lon="-0.83294">
        <ele>23.6895752</ele>
        <time>2015-09-20T09:19:59Z</time>
      </trkpt>
      <trkpt lat="44.51626" lon="-0.83288">
        <ele>22.2475586</ele>
        <time>2015-09-20T09:20:01Z</time>
      </trkpt>
      <trkpt lat="44.51622" lon="-0.83281">
        <ele>18.4023438</ele>
        <time>2015-09-20T09:20:06Z</time>
      </trkpt>
      <trkpt lat="44.51627" lon="-0.83272">
        <ele>19.8443604</ele>
        <time>2015-09-20T09:20:10Z</time>
      </trkpt>
      <trkpt lat="44.51631" lon="-0.83266">
        <ele>22.2475586</ele>
        <time>2015-09-20T09:20:15Z</time>
      </trkpt>
      <trkpt lat="44.51634" lon="-0.83264">
        <ele>23.2089844</ele>
        <time>2015-09-20T09:20:18Z</time>
      </trkpt>
      <trkpt lat="44.51641" lon="-0.83254">
        <ele>26.0928955</ele>
        <time>2015-09-20T09:20:24Z</time>
      </trkpt>
      <trkpt lat="44.51647" lon="-0.83249">
        <ele>27.5349121</ele>
        <time>2015-09-20T09:20:28Z</time>
      </trkpt>
      <trkpt lat="44.51652" lon="-0.83235">
        <ele>29.9381104</ele>
        <time>2015-09-20T09:20:35Z</time>
      </trkpt>
      <trkpt lat="44.51651" lon="-0.83233">
        <ele>29.9381104</ele>
        <time>2015-09-20T09:20:36Z</time>
      </trkpt>
      <trkpt lat="44.51649" lon="-0.83224">
        <ele>33.7834473</ele>
        <time>2015-09-20T09:20:42Z</time>
      </trkpt>
      <trkpt lat="44.51649" lon="-0.83222">
        <ele>32.3415527</ele>
        <time>2015-09-20T09:20:56Z</time>
      </trkpt>
      <trkpt lat="44.51645" lon="-0.83215">
        <ele>31.8607178</ele>
        <time>2015-09-20T09:21:05Z</time>
      </trkpt>
      <trkpt lat="44.51638" lon="-0.83201">
        <ele>32.8222656</ele>
        <time>2015-09-20T09:21:11Z</time>
      </trkpt>
      <trkpt lat="44.51641" lon="-0.83189">
        <ele>34.744873</ele>
        <time>2015-09-20T09:21:16Z</time>
      </trkpt>
      <trkpt lat="44.51636" lon="-0.83186">
        <ele>33.3028564</ele>
        <time>2015-09-20T09:21:20Z</time>
      </trkpt>
      <trkpt lat="44.51631" lon="-0.83192">
        <ele>29.9381104</ele>
        <time>2015-09-20T09:21:25Z</time>
      </trkpt>
      <trkpt lat="44.51628" lon="-0.83184">
        <ele>27.5349121</ele>
        <time>2015-09-20T09:21:30Z</time>
      </trkpt>
      <trkpt lat="44.51625" lon="-0.83179">
        <ele>25.6123047</ele>
        <time>2015-09-20T09:21:32Z</time>
      </trkpt>
      <trkpt lat="44.51622" lon="-0.83175">
        <ele>23.6895752</ele>
        <time>2015-09-20T09:21:34Z</time>
      </trkpt>
      <trkpt lat="44.51619" lon="-0.83164">
        <ele>20.3249512</ele>
        <time>2015-09-20T09:21:39Z</time>
      </trkpt>
      <trkpt lat="44.5161" lon="-0.83158">
        <ele>16.9604492</ele>
        <time>2015-09-20T09:21:44Z</time>
      </trkpt>
      <trkpt lat="44.51604" lon="-0.83156">
        <ele>18.8830566</ele>
        <time>2015-09-20T09:21:46Z</time>
      </trkpt>
      <trkpt lat="44.51593" lon="-0.83155">
        <ele>21.286377</ele>
        <time>2015-09-20T09:21:50Z</time>
      </trkpt>
      <trkpt lat="44.51582" lon="-0.8316">
        <ele>18.4023438</ele>
        <time>2015-09-20T09:21:55Z</time>
      </trkpt>
      <trkpt lat="44.51576" lon="-0.83157">
        <ele>13.1151123</ele>
        <time>2015-09-20T09:21:59Z</time>
      </trkpt>
      <trkpt lat="44.51566" lon="-0.83151">
        <ele>11.1925049</ele>
        <time>2015-09-20T09:22:04Z</time>
      </trkpt>
      <trkpt lat="44.51566" lon="-0.83138">
        <ele>14.5570068</ele>
        <time>2015-09-20T09:22:10Z</time>
      </trkpt>
      <trkpt lat="44.51569" lon="-0.83133">
        <ele>15.0377197</ele>
        <time>2015-09-20T09:22:15Z</time>
      </trkpt>
      <trkpt lat="44.51571" lon="-0.83131">
        <ele>15.9990234</ele>
        <time>2015-09-20T09:22:17Z</time>
      </trkpt>
      <trkpt lat="44.51574" lon="-0.83129">
        <ele>18.8830566</ele>
        <time>2015-09-20T09:22:24Z</time>
      </trkpt>
      <trkpt lat="44.51583" lon="-0.83114">
        <ele>16.4797363</ele>
        <time>2015-09-20T09:22:31Z</time>
      </trkpt>
      <trkpt lat="44.5159" lon="-0.83109">
        <ele>16.9604492</ele>
        <time>2015-09-20T09:22:35Z</time>
      </trkpt>
      <trkpt lat="44.51594" lon="-0.83108">
        <ele>18.8830566</ele>
        <time>2015-09-20T09:22:40Z</time>
      </trkpt>
      <trkpt lat="44.51598" lon="-0.83109">
        <ele>21.7669678</ele>
        <time>2015-09-20T09:22:47Z</time>
      </trkpt>
      <trkpt lat="44.516" lon="-0.83108">
        <ele>23.2089844</ele>
        <time>2015-09-20T09:22:53Z</time>
      </trkpt>
      <trkpt lat="44.51603" lon="-0.83109">
        <ele>24.1702881</ele>
        <time>2015-09-20T09:22:58Z</time>
      </trkpt>
      <trkpt lat="44.51606" lon="-0.8311">
        <ele>24.651001</ele>
        <time>2015-09-20T09:23:03Z</time>
      </trkpt>
      <trkpt lat="44.5161" lon="-0.83114">
        <ele>25.6123047</ele>
        <time>2015-09-20T09:23:09Z</time>
      </trkpt>
      <trkpt lat="44.51613" lon="-0.83117">
        <ele>26.0928955</ele>
        <time>2015-09-20T09:23:12Z</time>
      </trkpt>
      <trkpt lat="44.51616" lon="-0.83118">
        <ele>26.0928955</ele>
        <time>2015-09-20T09:23:18Z</time>
      </trkpt>
      <trkpt lat="44.51615" lon="-0.83117">
        <ele>28.9769287</ele>
        <time>2015-09-20T09:23:32Z</time>
      </trkpt>
      <trkpt lat="44.51617" lon="-0.83116">
        <ele>32.8222656</ele>
        <time>2015-09-20T09:23:51Z</time>
      </trkpt>
      <trkpt lat="44.51621" lon="-0.83117">
        <ele>35.2254639</ele>
        <time>2015-09-20T09:25:17Z</time>
      </trkpt>
      <trkpt lat="44.51618" lon="-0.83119">
        <ele>31.380127</ele>
        <time>2015-09-20T09:26:13Z</time>
      </trkpt>
      <trkpt lat="44.5163" lon="-0.83109">
        <ele>43.8773193</ele>
        <time>2015-09-20T09:27:36Z</time>
      </trkpt>
      <trkpt lat="44.51633" lon="-0.83105">
        <ele>40.9934082</ele>
        <time>2015-09-20T09:27:41Z</time>
      </trkpt>
      <trkpt lat="44.51641" lon="-0.83095">
        <ele>39.0706787</ele>
        <time>2015-09-20T09:27:47Z</time>
      </trkpt>
      <trkpt lat="44.51643" lon="-0.83093">
        <ele>38.109375</ele>
        <time>2015-09-20T09:27:48Z</time>
      </trkpt>
      <trkpt lat="44.51661" lon="-0.83076">
        <ele>33.7834473</ele>
        <time>2015-09-20T09:27:56Z</time>
      </trkpt>
      <trkpt lat="44.51678" lon="-0.83073">
        <ele>30.8995361</ele>
        <time>2015-09-20T09:28:02Z</time>
      </trkpt>
      <trkpt lat="44.51681" lon="-0.83074">
        <ele>30.8995361</ele>
        <time>2015-09-20T09:28:03Z</time>
      </trkpt>
      <trkpt lat="44.51692" lon="-0.83084">
        <ele>28.9769287</ele>
        <time>2015-09-20T09:28:09Z</time>
      </trkpt>
      <trkpt lat="44.51705" lon="-0.83075">
        <ele>29.4575195</ele>
        <time>2015-09-20T09:28:13Z</time>
      </trkpt>
      <trkpt lat="44.51708" lon="-0.83073">
        <ele>28.9769287</ele>
        <time>2015-09-20T09:28:14Z</time>
      </trkpt>
      <trkpt lat="44.51708" lon="-0.83057">
        <ele>27.5349121</ele>
        <time>2015-09-20T09:28:19Z</time>
      </trkpt>
      <trkpt lat="44.51707" lon="-0.83035">
        <ele>25.6123047</ele>
        <time>2015-09-20T09:28:23Z</time>
      </trkpt>
      <trkpt lat="44.51713" lon="-0.83024">
        <ele>27.0543213</ele>
        <time>2015-09-20T09:28:26Z</time>
      </trkpt>
      <trkpt lat="44.5172" lon="-0.8302">
        <ele>26.5736084</ele>
        <time>2015-09-20T09:28:28Z</time>
      </trkpt>
      <trkpt lat="44.51729" lon="-0.83011">
        <ele>26.0928955</ele>
        <time>2015-09-20T09:28:31Z</time>
      </trkpt>
      <trkpt lat="44.51731" lon="-0.82991">
        <ele>25.6123047</ele>
        <time>2015-09-20T09:28:36Z</time>
      </trkpt>
      <trkpt lat="44.51745" lon="-0.82968">
        <ele>27.5349121</ele>
        <time>2015-09-20T09:28:43Z</time>
      </trkpt>
      <trkpt lat="44.5175" lon="-0.82951">
        <ele>27.5349121</ele>
        <time>2015-09-20T09:28:47Z</time>
      </trkpt>
      <trkpt lat="44.51752" lon="-0.82932">
        <ele>28.4962158</ele>
        <time>2015-09-20T09:28:51Z</time>
      </trkpt>
      <trkpt lat="44.51757" lon="-0.8292">
        <ele>28.9769287</ele>
        <time>2015-09-20T09:28:54Z</time>
      </trkpt>
      <trkpt lat="44.51754" lon="-0.829">
        <ele>27.0543213</ele>
        <time>2015-09-20T09:28:59Z</time>
      </trkpt>
      <trkpt lat="44.51753" lon="-0.82895">
        <ele>27.0543213</ele>
        <time>2015-09-20T09:29:00Z</time>
      </trkpt>
      <trkpt lat="44.51742" lon="-0.82863">
        <ele>29.4575195</ele>
        <time>2015-09-20T09:29:06Z</time>
      </trkpt>
      <trkpt lat="44.51735" lon="-0.8284">
        <ele>30.4188232</ele>
        <time>2015-09-20T09:29:11Z</time>
      </trkpt>
      <trkpt lat="44.51731" lon="-0.82823">
        <ele>30.8995361</ele>
        <time>2015-09-20T09:29:16Z</time>
      </trkpt>
      <trkpt lat="44.51728" lon="-0.82813">
        <ele>33.3028564</ele>
        <time>2015-09-20T09:29:19Z</time>
      </trkpt>
      <trkpt lat="44.51723" lon="-0.82802">
        <ele>33.3028564</ele>
        <time>2015-09-20T09:29:24Z</time>
      </trkpt>
      <trkpt lat="44.51711" lon="-0.82795">
        <ele>31.8607178</ele>
        <time>2015-09-20T09:29:29Z</time>
      </trkpt>
      <trkpt lat="44.51705" lon="-0.82778">
        <ele>32.3415527</ele>
        <time>2015-09-20T09:29:34Z</time>
      </trkpt>
      <trkpt lat="44.517" lon="-0.82772">
        <ele>31.8607178</ele>
        <time>2015-09-20T09:29:36Z</time>
      </trkpt>
      <trkpt lat="44.51691" lon="-0.82762">
        <ele>33.3028564</ele>
        <time>2015-09-20T09:29:39Z</time>
      </trkpt>
      <trkpt lat="44.51669" lon="-0.82761">
        <ele>31.8607178</ele>
        <time>2015-09-20T09:29:46Z</time>
      </trkpt>
      <trkpt lat="44.51656" lon="-0.82771">
        <ele>28.9769287</ele>
        <time>2015-09-20T09:29:50Z</time>
      </trkpt>
      <trkpt lat="44.51645" lon="-0.82776">
        <ele>27.5349121</ele>
        <time>2015-09-20T09:29:54Z</time>
      </trkpt>
      <trkpt lat="44.51636" lon="-0.82772">
        <ele>26.0928955</ele>
        <time>2015-09-20T09:29:58Z</time>
      </trkpt>
      <trkpt lat="44.51622" lon="-0.8277">
        <ele>25.6123047</ele>
        <time>2015-09-20T09:30:02Z</time>
      </trkpt>
      <trkpt lat="44.51607" lon="-0.82768">
        <ele>27.5349121</ele>
        <time>2015-09-20T09:30:06Z</time>
      </trkpt>
      <trkpt lat="44.51592" lon="-0.8276">
        <ele>29.9381104</ele>
        <time>2015-09-20T09:30:10Z</time>
      </trkpt>
      <trkpt lat="44.51575" lon="-0.82753">
        <ele>31.380127</ele>
        <time>2015-09-20T09:30:15Z</time>
      </trkpt>
      <trkpt lat="44.51566" lon="-0.82749">
        <ele>32.8222656</ele>
        <time>2015-09-20T09:30:18Z</time>
      </trkpt>
      <trkpt lat="44.51553" lon="-0.82737">
        <ele>30.8995361</ele>
        <time>2015-09-20T09:30:24Z</time>
      </trkpt>
      <trkpt lat="44.51551" lon="-0.82735">
        <ele>30.8995361</ele>
        <time>2015-09-20T09:30:25Z</time>
      </trkpt>
      <trkpt lat="44.51536" lon="-0.8273">
        <ele>30.8995361</ele>
        <time>2015-09-20T09:30:30Z</time>
      </trkpt>
      <trkpt lat="44.51523" lon="-0.82732">
        <ele>28.9769287</ele>
        <time>2015-09-20T09:30:34Z</time>
      </trkpt>
      <trkpt lat="44.5151" lon="-0.82737">
        <ele>26.0928955</ele>
        <time>2015-09-20T09:30:39Z</time>
      </trkpt>
      <trkpt lat="44.515" lon="-0.82737">
        <ele>25.1317139</ele>
        <time>2015-09-20T09:30:43Z</time>
      </trkpt>
      <trkpt lat="44.51493" lon="-0.82745">
        <ele>23.6895752</ele>
        <time>2015-09-20T09:30:49Z</time>
      </trkpt>
      <trkpt lat="44.51492" lon="-0.82746">
        <ele>23.6895752</ele>
        <time>2015-09-20T09:30:50Z</time>
      </trkpt>
      <trkpt lat="44.51488" lon="-0.82747">
        <ele>24.651001</ele>
        <time>2015-09-20T09:30:52Z</time>
      </trkpt>
      <trkpt lat="44.51486" lon="-0.82751">
        <ele>24.651001</ele>
        <time>2015-09-20T09:30:54Z</time>
      </trkpt>
      <trkpt lat="44.51471" lon="-0.82761">
        <ele>22.7282715</ele>
        <time>2015-09-20T09:31:01Z</time>
      </trkpt>
      <trkpt lat="44.51465" lon="-0.82765">
        <ele>23.6895752</ele>
        <time>2015-09-20T09:31:04Z</time>
      </trkpt>
      <trkpt lat="44.51462" lon="-0.82773">
        <ele>24.651001</ele>
        <time>2015-09-20T09:31:09Z</time>
      </trkpt>
      <trkpt lat="44.51462" lon="-0.82774">
        <ele>24.1702881</ele>
        <time>2015-09-20T09:31:10Z</time>
      </trkpt>
      <trkpt lat="44.51453" lon="-0.82781">
        <ele>25.6123047</ele>
        <time>2015-09-20T09:31:16Z</time>
      </trkpt>
      <trkpt lat="44.51451" lon="-0.82783">
        <ele>24.651001</ele>
        <time>2015-09-20T09:31:20Z</time>
      </trkpt>
      <trkpt lat="44.5145" lon="-0.82784">
        <ele>25.6123047</ele>
        <time>2015-09-20T09:31:30Z</time>
      </trkpt>
      <trkpt lat="44.51449" lon="-0.82779">
        <ele>26.5736084</ele>
        <time>2015-09-20T09:31:34Z</time>
      </trkpt>
      <trkpt lat="44.51439" lon="-0.82775">
        <ele>27.5349121</ele>
        <time>2015-09-20T09:31:40Z</time>
      </trkpt>
      <trkpt lat="44.51435" lon="-0.82775">
        <ele>27.5349121</ele>
        <time>2015-09-20T09:31:42Z</time>
      </trkpt>
      <trkpt lat="44.51431" lon="-0.82763">
        <ele>27.0543213</ele>
        <time>2015-09-20T09:31:47Z</time>
      </trkpt>
      <trkpt lat="44.51429" lon="-0.82758">
        <ele>26.5736084</ele>
        <time>2015-09-20T09:31:51Z</time>
      </trkpt>
      <trkpt lat="44.51428" lon="-0.82758">
        <ele>26.0928955</ele>
        <time>2015-09-20T09:31:52Z</time>
      </trkpt>
      <trkpt lat="44.51426" lon="-0.82759">
        <ele>25.1317139</ele>
        <time>2015-09-20T09:31:54Z</time>
      </trkpt>
      <trkpt lat="44.51424" lon="-0.82765">
        <ele>22.7282715</ele>
        <time>2015-09-20T09:32:00Z</time>
      </trkpt>
      <trkpt lat="44.51423" lon="-0.82763">
        <ele>21.7669678</ele>
        <time>2015-09-20T09:32:01Z</time>
      </trkpt>
      <trkpt lat="44.51422" lon="-0.82761">
        <ele>20.3249512</ele>
        <time>2015-09-20T09:32:03Z</time>
      </trkpt>
      <trkpt lat="44.51417" lon="-0.82763">
        <ele>18.4023438</ele>
        <time>2015-09-20T09:32:09Z</time>
      </trkpt>
      <trkpt lat="44.51412" lon="-0.82758">
        <ele>18.4023438</ele>
        <time>2015-09-20T09:32:14Z</time>
      </trkpt>
      <trkpt lat="44.51408" lon="-0.82757">
        <ele>16.9604492</ele>
        <time>2015-09-20T09:32:18Z</time>
      </trkpt>
      <trkpt lat="44.51405" lon="-0.82755">
        <ele>15.9990234</ele>
        <time>2015-09-20T09:32:20Z</time>
      </trkpt>
      <trkpt lat="44.51403" lon="-0.82749">
        <ele>13.1151123</ele>
        <time>2015-09-20T09:32:23Z</time>
      </trkpt>
      <trkpt lat="44.51402" lon="-0.82747">
        <ele>13.1151123</ele>
        <time>2015-09-20T09:32:25Z</time>
      </trkpt>
      <trkpt lat="44.51403" lon="-0.82741">
        <ele>15.0377197</ele>
        <time>2015-09-20T09:32:29Z</time>
      </trkpt>
      <trkpt lat="44.51402" lon="-0.8274">
        <ele>15.5184326</ele>
        <time>2015-09-20T09:32:32Z</time>
      </trkpt>
      <trkpt lat="44.51395" lon="-0.82742">
        <ele>15.9990234</ele>
        <time>2015-09-20T09:32:36Z</time>
      </trkpt>
      <trkpt lat="44.5139" lon="-0.82741">
        <ele>14.5570068</ele>
        <time>2015-09-20T09:32:38Z</time>
      </trkpt>
      <trkpt lat="44.5139" lon="-0.82733">
        <ele>13.5958252</ele>
        <time>2015-09-20T09:32:43Z</time>
      </trkpt>
      <trkpt lat="44.514" lon="-0.8272">
        <ele>15.9990234</ele>
        <time>2015-09-20T09:32:49Z</time>
      </trkpt>
      <trkpt lat="44.51401" lon="-0.82712">
        <ele>15.9990234</ele>
        <time>2015-09-20T09:32:52Z</time>
      </trkpt>
      <trkpt lat="44.51405" lon="-0.82705">
        <ele>16.4797363</ele>
        <time>2015-09-20T09:32:55Z</time>
      </trkpt>
      <trkpt lat="44.51413" lon="-0.82695">
        <ele>17.4411621</ele>
        <time>2015-09-20T09:33:01Z</time>
      </trkpt>
      <trkpt lat="44.51422" lon="-0.82687">
        <ele>17.4411621</ele>
        <time>2015-09-20T09:33:07Z</time>
      </trkpt>
      <trkpt lat="44.51429" lon="-0.82677">
        <ele>17.4411621</ele>
        <time>2015-09-20T09:33:14Z</time>
      </trkpt>
      <trkpt lat="44.51429" lon="-0.82667">
        <ele>17.9217529</ele>
        <time>2015-09-20T09:33:17Z</time>
      </trkpt>
      <trkpt lat="44.51432" lon="-0.82659">
        <ele>17.4411621</ele>
        <time>2015-09-20T09:33:21Z</time>
      </trkpt>
      <trkpt lat="44.51435" lon="-0.82653">
        <ele>16.4797363</ele>
        <time>2015-09-20T09:33:25Z</time>
      </trkpt>
      <trkpt lat="44.5144" lon="-0.82639">
        <ele>15.9990234</ele>
        <time>2015-09-20T09:33:30Z</time>
      </trkpt>
      <trkpt lat="44.5144" lon="-0.82634">
        <ele>16.4797363</ele>
        <time>2015-09-20T09:33:32Z</time>
      </trkpt>
      <trkpt lat="44.5144" lon="-0.8262">
        <ele>16.9604492</ele>
        <time>2015-09-20T09:33:37Z</time>
      </trkpt>
      <trkpt lat="44.51443" lon="-0.82611">
        <ele>17.9217529</ele>
        <time>2015-09-20T09:33:40Z</time>
      </trkpt>
      <trkpt lat="44.51445" lon="-0.8259">
        <ele>17.4411621</ele>
        <time>2015-09-20T09:33:46Z</time>
      </trkpt>
      <trkpt lat="44.51447" lon="-0.82573">
        <ele>17.4411621</ele>
        <time>2015-09-20T09:33:51Z</time>
      </trkpt>
      <trkpt lat="44.51448" lon="-0.82565">
        <ele>18.8830566</ele>
        <time>2015-09-20T09:33:56Z</time>
      </trkpt>
      <trkpt lat="44.51449" lon="-0.82566">
        <ele>17.9217529</ele>
        <time>2015-09-20T09:34:03Z</time>
      </trkpt>
      <trkpt lat="44.51443" lon="-0.82559">
        <ele>17.9217529</ele>
        <time>2015-09-20T09:34:07Z</time>
      </trkpt>
      <trkpt lat="44.51437" lon="-0.82553">
        <ele>18.8830566</ele>
        <time>2015-09-20T09:34:10Z</time>
      </trkpt>
      <trkpt lat="44.51437" lon="-0.82543">
        <ele>17.4411621</ele>
        <time>2015-09-20T09:34:16Z</time>
      </trkpt>
      <trkpt lat="44.51439" lon="-0.82535">
        <ele>17.4411621</ele>
        <time>2015-09-20T09:34:21Z</time>
      </trkpt>
      <trkpt lat="44.51441" lon="-0.8253">
        <ele>18.4023438</ele>
        <time>2015-09-20T09:34:23Z</time>
      </trkpt>
      <trkpt lat="44.51446" lon="-0.82519">
        <ele>20.8056641</ele>
        <time>2015-09-20T09:34:29Z</time>
      </trkpt>
      <trkpt lat="44.51448" lon="-0.82517">
        <ele>21.286377</ele>
        <time>2015-09-20T09:34:30Z</time>
      </trkpt>
      <trkpt lat="44.51457" lon="-0.82511">
        <ele>16.4797363</ele>
        <time>2015-09-20T09:34:36Z</time>
      </trkpt>
      <trkpt lat="44.51465" lon="-0.82498">
        <ele>15.0377197</ele>
        <time>2015-09-20T09:34:43Z</time>
      </trkpt>
      <trkpt lat="44.51466" lon="-0.82488">
        <ele>15.9990234</ele>
        <time>2015-09-20T09:34:47Z</time>
      </trkpt>
      <trkpt lat="44.51472" lon="-0.82479">
        <ele>16.9604492</ele>
        <time>2015-09-20T09:34:53Z</time>
      </trkpt>
      <trkpt lat="44.51475" lon="-0.82478">
        <ele>16.9604492</ele>
        <time>2015-09-20T09:34:54Z</time>
      </trkpt>
      <trkpt lat="44.51487" lon="-0.82473">
        <ele>15.0377197</ele>
        <time>2015-09-20T09:34:59Z</time>
      </trkpt>
      <trkpt lat="44.5149" lon="-0.82473">
        <ele>14.5570068</ele>
        <time>2015-09-20T09:35:00Z</time>
      </trkpt>
      <trkpt lat="44.51492" lon="-0.82466">
        <ele>16.9604492</ele>
        <time>2015-09-20T09:35:04Z</time>
      </trkpt>
      <trkpt lat="44.51504" lon="-0.82466">
        <ele>18.8830566</ele>
        <time>2015-09-20T09:35:11Z</time>
      </trkpt>
      <trkpt lat="44.51507" lon="-0.82466">
        <ele>20.3249512</ele>
        <time>2015-09-20T09:35:13Z</time>
      </trkpt>
      <trkpt lat="44.51518" lon="-0.82467">
        <ele>21.286377</ele>
        <time>2015-09-20T09:35:20Z</time>
      </trkpt>
      <trkpt lat="44.51524" lon="-0.82467">
        <ele>20.8056641</ele>
        <time>2015-09-20T09:35:23Z</time>
      </trkpt>
      <trkpt lat="44.51533" lon="-0.82471">
        <ele>19.8443604</ele>
        <time>2015-09-20T09:35:28Z</time>
      </trkpt>
      <trkpt lat="44.51545" lon="-0.82471">
        <ele>18.8830566</ele>
        <time>2015-09-20T09:35:33Z</time>
      </trkpt>
      <trkpt lat="44.51553" lon="-0.82466">
        <ele>20.8056641</ele>
        <time>2015-09-20T09:35:37Z</time>
      </trkpt>
      <trkpt lat="44.51565" lon="-0.82466">
        <ele>19.8443604</ele>
        <time>2015-09-20T09:35:42Z</time>
      </trkpt>
      <trkpt lat="44.51576" lon="-0.8247">
        <ele>20.3249512</ele>
        <time>2015-09-20T09:35:47Z</time>
      </trkpt>
      <trkpt lat="44.51583" lon="-0.82469">
        <ele>21.286377</ele>
        <time>2015-09-20T09:35:51Z</time>
      </trkpt>
      <trkpt lat="44.51591" lon="-0.82464">
        <ele>19.8443604</ele>
        <time>2015-09-20T09:35:56Z</time>
      </trkpt>
      <trkpt lat="44.51597" lon="-0.82457">
        <ele>20.3249512</ele>
        <time>2015-09-20T09:36:01Z</time>
      </trkpt>
      <trkpt lat="44.516" lon="-0.8245">
        <ele>21.286377</ele>
        <time>2015-09-20T09:36:04Z</time>
      </trkpt>
      <trkpt lat="44.51611" lon="-0.8244">
        <ele>23.2089844</ele>
        <time>2015-09-20T09:36:11Z</time>
      </trkpt>
      <trkpt lat="44.51611" lon="-0.82429">
        <ele>24.651001</ele>
        <time>2015-09-20T09:36:16Z</time>
      </trkpt>
      <trkpt lat="44.51612" lon="-0.82417">
        <ele>26.5736084</ele>
        <time>2015-09-20T09:36:21Z</time>
      </trkpt>
      <trkpt lat="44.51612" lon="-0.82415">
        <ele>27.5349121</ele>
        <time>2015-09-20T09:36:28Z</time>
      </trkpt>
      <trkpt lat="44.51615" lon="-0.82411">
        <ele>35.7060547</ele>
        <time>2015-09-20T09:36:49Z</time>
      </trkpt>
      <trkpt lat="44.51608" lon="-0.8242">
        <ele>30.8995361</ele>
        <time>2015-09-20T09:36:56Z</time>
      </trkpt>
      <trkpt lat="44.51598" lon="-0.82424">
        <ele>28.4962158</ele>
        <time>2015-09-20T09:37:02Z</time>
      </trkpt>
      <trkpt lat="44.51586" lon="-0.82424">
        <ele>26.5736084</ele>
        <time>2015-09-20T09:37:08Z</time>
      </trkpt>
      <trkpt lat="44.51584" lon="-0.82429">
        <ele>24.1702881</ele>
        <time>2015-09-20T09:37:11Z</time>
      </trkpt>
      <trkpt lat="44.51583" lon="-0.82435">
        <ele>24.1702881</ele>
        <time>2015-09-20T09:37:13Z</time>
      </trkpt>
      <trkpt lat="44.51572" lon="-0.82441">
        <ele>26.0928955</ele>
        <time>2015-09-20T09:37:18Z</time>
      </trkpt>
      <trkpt lat="44.5156" lon="-0.82442">
        <ele>26.5736084</ele>
        <time>2015-09-20T09:37:23Z</time>
      </trkpt>
      <trkpt lat="44.51556" lon="-0.8244">
        <ele>26.5736084</ele>
        <time>2015-09-20T09:37:25Z</time>
      </trkpt>
      <trkpt lat="44.51544" lon="-0.82444">
        <ele>28.4962158</ele>
        <time>2015-09-20T09:37:30Z</time>
      </trkpt>
      <trkpt lat="44.51529" lon="-0.82448">
        <ele>29.9381104</ele>
        <time>2015-09-20T09:37:35Z</time>
      </trkpt>
      <trkpt lat="44.51513" lon="-0.82439">
        <ele>29.4575195</ele>
        <time>2015-09-20T09:37:41Z</time>
      </trkpt>
      <trkpt lat="44.51506" lon="-0.82435">
        <ele>28.9769287</ele>
        <time>2015-09-20T09:37:44Z</time>
      </trkpt>
      <trkpt lat="44.51497" lon="-0.82445">
        <ele>28.0155029</ele>
        <time>2015-09-20T09:37:48Z</time>
      </trkpt>
      <trkpt lat="44.5149" lon="-0.82449">
        <ele>28.9769287</ele>
        <time>2015-09-20T09:37:52Z</time>
      </trkpt>
      <trkpt lat="44.51485" lon="-0.82449">
        <ele>28.9769287</ele>
        <time>2015-09-20T09:37:54Z</time>
      </trkpt>
      <trkpt lat="44.51481" lon="-0.82437">
        <ele>28.0155029</ele>
        <time>2015-09-20T09:38:00Z</time>
      </trkpt>
      <trkpt lat="44.51478" lon="-0.8243">
        <ele>26.5736084</ele>
        <time>2015-09-20T09:38:03Z</time>
      </trkpt>
      <trkpt lat="44.51479" lon="-0.82404">
        <ele>26.0928955</ele>
        <time>2015-09-20T09:38:11Z</time>
      </trkpt>
      <trkpt lat="44.51479" lon="-0.82401">
        <ele>26.0928955</ele>
        <time>2015-09-20T09:38:12Z</time>
      </trkpt>
      <trkpt lat="44.5148" lon="-0.82385">
        <ele>27.5349121</ele>
        <time>2015-09-20T09:38:17Z</time>
      </trkpt>
      <trkpt lat="44.51478" lon="-0.82362">
        <ele>29.4575195</ele>
        <time>2015-09-20T09:38:24Z</time>
      </trkpt>
      <trkpt lat="44.51478" lon="-0.82351">
        <ele>31.8607178</ele>
        <time>2015-09-20T09:38:28Z</time>
      </trkpt>
      <trkpt lat="44.51471" lon="-0.82338">
        <ele>33.3028564</ele>
        <time>2015-09-20T09:38:32Z</time>
      </trkpt>
      <trkpt lat="44.51465" lon="-0.82328">
        <ele>34.2641602</ele>
        <time>2015-09-20T09:38:35Z</time>
      </trkpt>
      <trkpt lat="44.51453" lon="-0.82313">
        <ele>31.8607178</ele>
        <time>2015-09-20T09:38:41Z</time>
      </trkpt>
      <trkpt lat="44.51435" lon="-0.82287">
        <ele>29.9381104</ele>
        <time>2015-09-20T09:38:46Z</time>
      </trkpt>
      <trkpt lat="44.51427" lon="-0.82279">
        <ele>28.4962158</ele>
        <time>2015-09-20T09:38:48Z</time>
      </trkpt>
      <trkpt lat="44.51408" lon="-0.82249">
        <ele>25.1317139</ele>
        <time>2015-09-20T09:38:55Z</time>
      </trkpt>
      <trkpt lat="44.51406" lon="-0.82245">
        <ele>24.651001</ele>
        <time>2015-09-20T09:38:56Z</time>
      </trkpt>
      <trkpt lat="44.51398" lon="-0.82231">
        <ele>24.651001</ele>
        <time>2015-09-20T09:39:00Z</time>
      </trkpt>
      <trkpt lat="44.51383" lon="-0.82239">
        <ele>20.3249512</ele>
        <time>2015-09-20T09:39:05Z</time>
      </trkpt>
      <trkpt lat="44.51381" lon="-0.82241">
        <ele>19.3637695</ele>
        <time>2015-09-20T09:39:06Z</time>
      </trkpt>
      <trkpt lat="44.5137" lon="-0.82235">
        <ele>16.4797363</ele>
        <time>2015-09-20T09:39:10Z</time>
      </trkpt>
      <trkpt lat="44.51346" lon="-0.82218">
        <ele>15.9990234</ele>
        <time>2015-09-20T09:39:16Z</time>
      </trkpt>
      <trkpt lat="44.51333" lon="-0.82212">
        <ele>15.0377197</ele>
        <time>2015-09-20T09:39:19Z</time>
      </trkpt>
      <trkpt lat="44.51323" lon="-0.82213">
        <ele>14.076416</ele>
        <time>2015-09-20T09:39:23Z</time>
      </trkpt>
      <trkpt lat="44.51318" lon="-0.82209">
        <ele>13.5958252</ele>
        <time>2015-09-20T09:39:26Z</time>
      </trkpt>
      <trkpt lat="44.51303" lon="-0.82195">
        <ele>13.1151123</ele>
        <time>2015-09-20T09:39:32Z</time>
      </trkpt>
      <trkpt lat="44.51293" lon="-0.82182">
        <ele>13.1151123</ele>
        <time>2015-09-20T09:39:37Z</time>
      </trkpt>
      <trkpt lat="44.51285" lon="-0.82172">
        <ele>13.1151123</ele>
        <time>2015-09-20T09:39:41Z</time>
      </trkpt>
      <trkpt lat="44.51275" lon="-0.8216">
        <ele>12.1538086</ele>
        <time>2015-09-20T09:39:47Z</time>
      </trkpt>
      <trkpt lat="44.51266" lon="-0.82154">
        <ele>12.6343994</ele>
        <time>2015-09-20T09:39:50Z</time>
      </trkpt>
      <trkpt lat="44.51244" lon="-0.82144">
        <ele>11.6732178</ele>
        <time>2015-09-20T09:39:58Z</time>
      </trkpt>
      <trkpt lat="44.51245" lon="-0.8214">
        <ele>12.6343994</ele>
        <time>2015-09-20T09:40:02Z</time>
      </trkpt>
      <trkpt lat="44.51245" lon="-0.82129">
        <ele>14.5570068</ele>
        <time>2015-09-20T09:40:07Z</time>
      </trkpt>
      <trkpt lat="44.51252" lon="-0.82123">
        <ele>14.5570068</ele>
        <time>2015-09-20T09:40:12Z</time>
      </trkpt>
      <trkpt lat="44.51261" lon="-0.82111">
        <ele>16.4797363</ele>
        <time>2015-09-20T09:40:19Z</time>
      </trkpt>
      <trkpt lat="44.51263" lon="-0.82103">
        <ele>16.4797363</ele>
        <time>2015-09-20T09:40:23Z</time>
      </trkpt>
      <trkpt lat="44.51263" lon="-0.821">
        <ele>16.4797363</ele>
        <time>2015-09-20T09:40:24Z</time>
      </trkpt>
      <trkpt lat="44.51263" lon="-0.82096">
        <ele>16.9604492</ele>
        <time>2015-09-20T09:40:26Z</time>
      </trkpt>
      <trkpt lat="44.51266" lon="-0.82091">
        <ele>17.9217529</ele>
        <time>2015-09-20T09:40:29Z</time>
      </trkpt>
      <trkpt lat="44.51269" lon="-0.82081">
        <ele>21.286377</ele>
        <time>2015-09-20T09:40:35Z</time>
      </trkpt>
      <trkpt lat="44.51269" lon="-0.82077">
        <ele>23.2089844</ele>
        <time>2015-09-20T09:40:40Z</time>
      </trkpt>
      <trkpt lat="44.51271" lon="-0.82072">
        <ele>25.6123047</ele>
        <time>2015-09-20T09:40:45Z</time>
      </trkpt>
      <trkpt lat="44.51271" lon="-0.82065">
        <ele>27.0543213</ele>
        <time>2015-09-20T09:40:52Z</time>
      </trkpt>
      <trkpt lat="44.51271" lon="-0.82062">
        <ele>26.0928955</ele>
        <time>2015-09-20T09:41:04Z</time>
      </trkpt>
      <trkpt lat="44.51263" lon="-0.82064">
        <ele>25.1317139</ele>
        <time>2015-09-20T09:41:09Z</time>
      </trkpt>
      <trkpt lat="44.51257" lon="-0.8206">
        <ele>23.6895752</ele>
        <time>2015-09-20T09:41:14Z</time>
      </trkpt>
      <trkpt lat="44.51257" lon="-0.82051">
        <ele>21.7669678</ele>
        <time>2015-09-20T09:41:18Z</time>
      </trkpt>
      <trkpt lat="44.51259" lon="-0.82044">
        <ele>19.8443604</ele>
        <time>2015-09-20T09:41:21Z</time>
      </trkpt>
      <trkpt lat="44.51259" lon="-0.82035">
        <ele>18.8830566</ele>
        <time>2015-09-20T09:41:24Z</time>
      </trkpt>
      <trkpt lat="44.51263" lon="-0.82024">
        <ele>18.4023438</ele>
        <time>2015-09-20T09:41:30Z</time>
      </trkpt>
      <trkpt lat="44.51264" lon="-0.8202">
        <ele>17.4411621</ele>
        <time>2015-09-20T09:41:32Z</time>
      </trkpt>
      <trkpt lat="44.51265" lon="-0.82017">
        <ele>17.9217529</ele>
        <time>2015-09-20T09:41:39Z</time>
      </trkpt>
      <trkpt lat="44.51265" lon="-0.82015">
        <ele>18.4023438</ele>
        <time>2015-09-20T09:41:50Z</time>
      </trkpt>
      <trkpt lat="44.5127" lon="-0.82009">
        <ele>17.9217529</ele>
        <time>2015-09-20T09:41:54Z</time>
      </trkpt>
      <trkpt lat="44.51276" lon="-0.81999">
        <ele>17.9217529</ele>
        <time>2015-09-20T09:41:59Z</time>
      </trkpt>
      <trkpt lat="44.51283" lon="-0.81989">
        <ele>18.4023438</ele>
        <time>2015-09-20T09:42:05Z</time>
      </trkpt>
      <trkpt lat="44.51288" lon="-0.81979">
        <ele>21.286377</ele>
        <time>2015-09-20T09:42:10Z</time>
      </trkpt>
      <trkpt lat="44.51289" lon="-0.81977">
        <ele>21.7669678</ele>
        <time>2015-09-20T09:42:11Z</time>
      </trkpt>
      <trkpt lat="44.51295" lon="-0.81971">
        <ele>23.2089844</ele>
        <time>2015-09-20T09:42:15Z</time>
      </trkpt>
      <trkpt lat="44.51298" lon="-0.81965">
        <ele>23.6895752</ele>
        <time>2015-09-20T09:42:18Z</time>
      </trkpt>
      <trkpt lat="44.51304" lon="-0.81956">
        <ele>25.1317139</ele>
        <time>2015-09-20T09:42:24Z</time>
      </trkpt>
      <trkpt lat="44.51306" lon="-0.81947">
        <ele>25.6123047</ele>
        <time>2015-09-20T09:42:28Z</time>
      </trkpt>
      <trkpt lat="44.51311" lon="-0.81939">
        <ele>27.5349121</ele>
        <time>2015-09-20T09:42:33Z</time>
      </trkpt>
      <trkpt lat="44.51315" lon="-0.81938">
        <ele>28.0155029</ele>
        <time>2015-09-20T09:42:38Z</time>
      </trkpt>
      <trkpt lat="44.51318" lon="-0.81934">
        <ele>28.4962158</ele>
        <time>2015-09-20T09:42:43Z</time>
      </trkpt>
      <trkpt lat="44.51322" lon="-0.81931">
        <ele>28.9769287</ele>
        <time>2015-09-20T09:42:48Z</time>
      </trkpt>
      <trkpt lat="44.51324" lon="-0.81925">
        <ele>29.9381104</ele>
        <time>2015-09-20T09:42:52Z</time>
      </trkpt>
      <trkpt lat="44.51324" lon="-0.81922">
        <ele>29.4575195</ele>
        <time>2015-09-20T09:42:54Z</time>
      </trkpt>
      <trkpt lat="44.51321" lon="-0.81908">
        <ele>26.5736084</ele>
        <time>2015-09-20T09:43:01Z</time>
      </trkpt>
      <trkpt lat="44.51313" lon="-0.81887">
        <ele>27.5349121</ele>
        <time>2015-09-20T09:43:06Z</time>
      </trkpt>
      <trkpt lat="44.51304" lon="-0.81859">
        <ele>27.5349121</ele>
        <time>2015-09-20T09:43:12Z</time>
      </trkpt>
      <trkpt lat="44.51294" lon="-0.81829">
        <ele>28.0155029</ele>
        <time>2015-09-20T09:43:19Z</time>
      </trkpt>
      <trkpt lat="44.51289" lon="-0.81815">
        <ele>28.4962158</ele>
        <time>2015-09-20T09:43:23Z</time>
      </trkpt>
      <trkpt lat="44.51281" lon="-0.81802">
        <ele>28.0155029</ele>
        <time>2015-09-20T09:43:27Z</time>
      </trkpt>
      <trkpt lat="44.51271" lon="-0.8178">
        <ele>27.0543213</ele>
        <time>2015-09-20T09:43:34Z</time>
      </trkpt>
      <trkpt lat="44.5126" lon="-0.81766">
        <ele>25.1317139</ele>
        <time>2015-09-20T09:43:38Z</time>
      </trkpt>
      <trkpt lat="44.51252" lon="-0.81758">
        <ele>26.5736084</ele>
        <time>2015-09-20T09:43:41Z</time>
      </trkpt>
      <trkpt lat="44.51238" lon="-0.81752">
        <ele>28.4962158</ele>
        <time>2015-09-20T09:43:47Z</time>
      </trkpt>
      <trkpt lat="44.51223" lon="-0.81751">
        <ele>29.9381104</ele>
        <time>2015-09-20T09:43:53Z</time>
      </trkpt>
      <trkpt lat="44.51214" lon="-0.81753">
        <ele>28.9769287</ele>
        <time>2015-09-20T09:43:57Z</time>
      </trkpt>
      <trkpt lat="44.51207" lon="-0.81748">
        <ele>28.0155029</ele>
        <time>2015-09-20T09:44:01Z</time>
      </trkpt>
      <trkpt lat="44.51198" lon="-0.81726">
        <ele>26.0928955</ele>
        <time>2015-09-20T09:44:06Z</time>
      </trkpt>
      <trkpt lat="44.51187" lon="-0.81711">
        <ele>25.1317139</ele>
        <time>2015-09-20T09:44:10Z</time>
      </trkpt>
      <trkpt lat="44.51184" lon="-0.81709">
        <ele>25.1317139</ele>
        <time>2015-09-20T09:44:11Z</time>
      </trkpt>
      <trkpt lat="44.51172" lon="-0.81709">
        <ele>23.6895752</ele>
        <time>2015-09-20T09:44:16Z</time>
      </trkpt>
      <trkpt lat="44.5116" lon="-0.81704">
        <ele>20.8056641</ele>
        <time>2015-09-20T09:44:22Z</time>
      </trkpt>
      <trkpt lat="44.51153" lon="-0.81692">
        <ele>18.4023438</ele>
        <time>2015-09-20T09:44:27Z</time>
      </trkpt>
      <trkpt lat="44.51144" lon="-0.81678">
        <ele>18.4023438</ele>
        <time>2015-09-20T09:44:33Z</time>
      </trkpt>
      <trkpt lat="44.51135" lon="-0.81674">
        <ele>18.4023438</ele>
        <time>2015-09-20T09:44:37Z</time>
      </trkpt>
      <trkpt lat="44.51124" lon="-0.81669">
        <ele>16.9604492</ele>
        <time>2015-09-20T09:44:43Z</time>
      </trkpt>
      <trkpt lat="44.51118" lon="-0.81668">
        <ele>15.0377197</ele>
        <time>2015-09-20T09:44:46Z</time>
      </trkpt>
      <trkpt lat="44.51111" lon="-0.81667">
        <ele>11.1925049</ele>
        <time>2015-09-20T09:44:51Z</time>
      </trkpt>
      <trkpt lat="44.51106" lon="-0.81663">
        <ele>12.1538086</ele>
        <time>2015-09-20T09:44:57Z</time>
      </trkpt>
      <trkpt lat="44.51101" lon="-0.81663">
        <ele>17.9217529</ele>
        <time>2015-09-20T09:45:03Z</time>
      </trkpt>
      <trkpt lat="44.51099" lon="-0.81664">
        <ele>19.8443604</ele>
        <time>2015-09-20T09:45:04Z</time>
      </trkpt>
      <trkpt lat="44.5109" lon="-0.81658">
        <ele>22.2475586</ele>
        <time>2015-09-20T09:45:13Z</time>
      </trkpt>
      <trkpt lat="44.5109" lon="-0.81657">
        <ele>22.2475586</ele>
        <time>2015-09-20T09:45:14Z</time>
      </trkpt>
      <trkpt lat="44.51078" lon="-0.81651">
        <ele>21.7669678</ele>
        <time>2015-09-20T09:45:20Z</time>
      </trkpt>
      <trkpt lat="44.5107" lon="-0.81646">
        <ele>18.4023438</ele>
        <time>2015-09-20T09:45:26Z</time>
      </trkpt>
      <trkpt lat="44.51065" lon="-0.81643">
        <ele>22.2475586</ele>
        <time>2015-09-20T09:45:32Z</time>
      </trkpt>
      <trkpt lat="44.51062" lon="-0.81638">
        <ele>18.4023438</ele>
        <time>2015-09-20T09:45:38Z</time>
      </trkpt>
      <trkpt lat="44.51055" lon="-0.8163">
        <ele>17.9217529</ele>
        <time>2015-09-20T09:45:43Z</time>
      </trkpt>
      <trkpt lat="44.51048" lon="-0.81617">
        <ele>17.9217529</ele>
        <time>2015-09-20T09:45:49Z</time>
      </trkpt>
      <trkpt lat="44.51043" lon="-0.81605">
        <ele>18.4023438</ele>
        <time>2015-09-20T09:45:53Z</time>
      </trkpt>
      <trkpt lat="44.51043" lon="-0.81586">
        <ele>18.4023438</ele>
        <time>2015-09-20T09:45:59Z</time>
      </trkpt>
      <trkpt lat="44.51032" lon="-0.81566">
        <ele>19.3637695</ele>
        <time>2015-09-20T09:46:04Z</time>
      </trkpt>
      <trkpt lat="44.51029" lon="-0.81556">
        <ele>19.3637695</ele>
        <time>2015-09-20T09:46:07Z</time>
      </trkpt>
      <trkpt lat="44.51022" lon="-0.81539">
        <ele>18.4023438</ele>
        <time>2015-09-20T09:46:13Z</time>
      </trkpt>
      <trkpt lat="44.51022" lon="-0.81537">
        <ele>17.4411621</ele>
        <time>2015-09-20T09:46:14Z</time>
      </trkpt>
      <trkpt lat="44.51022" lon="-0.81529">
        <ele>15.5184326</ele>
        <time>2015-09-20T09:46:20Z</time>
      </trkpt>
      <trkpt lat="44.51021" lon="-0.81526">
        <ele>15.0377197</ele>
        <time>2015-09-20T09:46:22Z</time>
      </trkpt>
      <trkpt lat="44.51014" lon="-0.81505">
        <ele>14.076416</ele>
        <time>2015-09-20T09:46:30Z</time>
      </trkpt>
      <trkpt lat="44.51014" lon="-0.81489">
        <ele>13.5958252</ele>
        <time>2015-09-20T09:46:35Z</time>
      </trkpt>
      <trkpt lat="44.51013" lon="-0.81484">
        <ele>14.076416</ele>
        <time>2015-09-20T09:46:37Z</time>
      </trkpt>
      <trkpt lat="44.51011" lon="-0.81468">
        <ele>17.9217529</ele>
        <time>2015-09-20T09:46:43Z</time>
      </trkpt>
      <trkpt lat="44.5101" lon="-0.81466">
        <ele>18.4023438</ele>
        <time>2015-09-20T09:46:44Z</time>
      </trkpt>
      <trkpt lat="44.50999" lon="-0.81453">
        <ele>20.8056641</ele>
        <time>2015-09-20T09:46:50Z</time>
      </trkpt>
      <trkpt lat="44.5099" lon="-0.81448">
        <ele>20.8056641</ele>
        <time>2015-09-20T09:46:55Z</time>
      </trkpt>
      <trkpt lat="44.50984" lon="-0.81438">
        <ele>18.8830566</ele>
        <time>2015-09-20T09:47:00Z</time>
      </trkpt>
      <trkpt lat="44.50981" lon="-0.81436">
        <ele>18.8830566</ele>
        <time>2015-09-20T09:47:02Z</time>
      </trkpt>
      <trkpt lat="44.50971" lon="-0.81424">
        <ele>16.9604492</ele>
        <time>2015-09-20T09:47:08Z</time>
      </trkpt>
      <trkpt lat="44.50965" lon="-0.8141">
        <ele>16.9604492</ele>
        <time>2015-09-20T09:47:14Z</time>
      </trkpt>
      <trkpt lat="44.50954" lon="-0.81409">
        <ele>16.9604492</ele>
        <time>2015-09-20T09:47:18Z</time>
      </trkpt>
      <trkpt lat="44.50947" lon="-0.81404">
        <ele>17.9217529</ele>
        <time>2015-09-20T09:47:22Z</time>
      </trkpt>
      <trkpt lat="44.50945" lon="-0.81404">
        <ele>18.4023438</ele>
        <time>2015-09-20T09:47:23Z</time>
      </trkpt>
      <trkpt lat="44.50933" lon="-0.81408">
        <ele>16.4797363</ele>
        <time>2015-09-20T09:47:29Z</time>
      </trkpt>
      <trkpt lat="44.50928" lon="-0.81406">
        <ele>15.9990234</ele>
        <time>2015-09-20T09:47:34Z</time>
      </trkpt>
      <trkpt lat="44.50917" lon="-0.81401">
        <ele>15.5184326</ele>
        <time>2015-09-20T09:47:42Z</time>
      </trkpt>
      <trkpt lat="44.50909" lon="-0.81395">
        <ele>15.9990234</ele>
        <time>2015-09-20T09:47:45Z</time>
      </trkpt>
      <trkpt lat="44.50906" lon="-0.81392">
        <ele>16.4797363</ele>
        <time>2015-09-20T09:47:47Z</time>
      </trkpt>
      <trkpt lat="44.50897" lon="-0.8138">
        <ele>19.3637695</ele>
        <time>2015-09-20T09:47:54Z</time>
      </trkpt>
      <trkpt lat="44.50891" lon="-0.8137">
        <ele>20.3249512</ele>
        <time>2015-09-20T09:48:00Z</time>
      </trkpt>
      <trkpt lat="44.50889" lon="-0.81362">
        <ele>22.2475586</ele>
        <time>2015-09-20T09:48:05Z</time>
      </trkpt>
      <trkpt lat="44.50887" lon="-0.81356">
        <ele>24.1702881</ele>
        <time>2015-09-20T09:48:12Z</time>
      </trkpt>
      <trkpt lat="44.50883" lon="-0.81351">
        <ele>24.1702881</ele>
        <time>2015-09-20T09:48:17Z</time>
      </trkpt>
      <trkpt lat="44.50876" lon="-0.8134">
        <ele>23.6895752</ele>
        <time>2015-09-20T09:48:24Z</time>
      </trkpt>
      <trkpt lat="44.50875" lon="-0.81339">
        <ele>23.6895752</ele>
        <time>2015-09-20T09:48:26Z</time>
      </trkpt>
      <trkpt lat="44.5087" lon="-0.81332">
        <ele>23.6895752</ele>
        <time>2015-09-20T09:48:32Z</time>
      </trkpt>
      <trkpt lat="44.50869" lon="-0.81324">
        <ele>23.2089844</ele>
        <time>2015-09-20T09:48:38Z</time>
      </trkpt>
      <trkpt lat="44.50869" lon="-0.8132">
        <ele>24.1702881</ele>
        <time>2015-09-20T09:48:43Z</time>
      </trkpt>
      <trkpt lat="44.5087" lon="-0.81314">
        <ele>23.2089844</ele>
        <time>2015-09-20T09:48:50Z</time>
      </trkpt>
      <trkpt lat="44.50873" lon="-0.81305">
        <ele>20.3249512</ele>
        <time>2015-09-20T09:48:54Z</time>
      </trkpt>
      <trkpt lat="44.5088" lon="-0.81295">
        <ele>19.8443604</ele>
        <time>2015-09-20T09:48:58Z</time>
      </trkpt>
      <trkpt lat="44.50884" lon="-0.81294">
        <ele>18.8830566</ele>
        <time>2015-09-20T09:49:01Z</time>
      </trkpt>
      <trkpt lat="44.50889" lon="-0.81284">
        <ele>18.4023438</ele>
        <time>2015-09-20T09:49:06Z</time>
      </trkpt>
      <trkpt lat="44.50892" lon="-0.81268">
        <ele>19.3637695</ele>
        <time>2015-09-20T09:49:10Z</time>
      </trkpt>
      <trkpt lat="44.50896" lon="-0.8125">
        <ele>18.8830566</ele>
        <time>2015-09-20T09:49:15Z</time>
      </trkpt>
      <trkpt lat="44.509" lon="-0.8124">
        <ele>19.3637695</ele>
        <time>2015-09-20T09:49:20Z</time>
      </trkpt>
      <trkpt lat="44.50906" lon="-0.81229">
        <ele>21.286377</ele>
        <time>2015-09-20T09:49:26Z</time>
      </trkpt>
      <trkpt lat="44.50916" lon="-0.8122">
        <ele>21.286377</ele>
        <time>2015-09-20T09:49:32Z</time>
      </trkpt>
      <trkpt lat="44.50918" lon="-0.81214">
        <ele>26.5736084</ele>
        <time>2015-09-20T09:49:52Z</time>
      </trkpt>
      <trkpt lat="44.50922" lon="-0.81203">
        <ele>26.5736084</ele>
        <time>2015-09-20T09:49:57Z</time>
      </trkpt>
      <trkpt lat="44.50922" lon="-0.812">
        <ele>28.0155029</ele>
        <time>2015-09-20T09:50:01Z</time>
      </trkpt>
      <trkpt lat="44.5092" lon="-0.81199">
        <ele>27.0543213</ele>
        <time>2015-09-20T09:50:04Z</time>
      </trkpt>
      <trkpt lat="44.50917" lon="-0.81198">
        <ele>25.6123047</ele>
        <time>2015-09-20T09:50:06Z</time>
      </trkpt>
      <trkpt lat="44.50913" lon="-0.81187">
        <ele>22.7282715</ele>
        <time>2015-09-20T09:50:13Z</time>
      </trkpt>
      <trkpt lat="44.5091" lon="-0.81174">
        <ele>18.4023438</ele>
        <time>2015-09-20T09:50:18Z</time>
      </trkpt>
      <trkpt lat="44.50914" lon="-0.81161">
        <ele>17.4411621</ele>
        <time>2015-09-20T09:50:24Z</time>
      </trkpt>
      <trkpt lat="44.50919" lon="-0.81152">
        <ele>17.9217529</ele>
        <time>2015-09-20T09:50:28Z</time>
      </trkpt>
      <trkpt lat="44.50921" lon="-0.81149">
        <ele>18.4023438</ele>
        <time>2015-09-20T09:50:30Z</time>
      </trkpt>
      <trkpt lat="44.50925" lon="-0.81133">
        <ele>18.8830566</ele>
        <time>2015-09-20T09:50:36Z</time>
      </trkpt>
      <trkpt lat="44.50919" lon="-0.81123">
        <ele>18.4023438</ele>
        <time>2015-09-20T09:50:40Z</time>
      </trkpt>
      <trkpt lat="44.5091" lon="-0.81116">
        <ele>15.9990234</ele>
        <time>2015-09-20T09:50:44Z</time>
      </trkpt>
      <trkpt lat="44.50904" lon="-0.81107">
        <ele>15.5184326</ele>
        <time>2015-09-20T09:50:49Z</time>
      </trkpt>
      <trkpt lat="44.50896" lon="-0.81095">
        <ele>15.5184326</ele>
        <time>2015-09-20T09:50:54Z</time>
      </trkpt>
      <trkpt lat="44.50889" lon="-0.81084">
        <ele>15.0377197</ele>
        <time>2015-09-20T09:50:58Z</time>
      </trkpt>
      <trkpt lat="44.50888" lon="-0.81077">
        <ele>15.0377197</ele>
        <time>2015-09-20T09:51:00Z</time>
      </trkpt>
      <trkpt lat="44.5089" lon="-0.81063">
        <ele>14.076416</ele>
        <time>2015-09-20T09:51:03Z</time>
      </trkpt>
      <trkpt lat="44.50901" lon="-0.81054">
        <ele>14.5570068</ele>
        <time>2015-09-20T09:51:07Z</time>
      </trkpt>
      <trkpt lat="44.50903" lon="-0.81052">
        <ele>15.5184326</ele>
        <time>2015-09-20T09:51:08Z</time>
      </trkpt>
      <trkpt lat="44.50908" lon="-0.81047">
        <ele>16.9604492</ele>
        <time>2015-09-20T09:51:10Z</time>
      </trkpt>
      <trkpt lat="44.50907" lon="-0.81032">
        <ele>17.9217529</ele>
        <time>2015-09-20T09:51:16Z</time>
      </trkpt>
      <trkpt lat="44.50906" lon="-0.81024">
        <ele>17.4411621</ele>
        <time>2015-09-20T09:51:19Z</time>
      </trkpt>
      <trkpt lat="44.50905" lon="-0.81015">
        <ele>16.4797363</ele>
        <time>2015-09-20T09:51:22Z</time>
      </trkpt>
      <trkpt lat="44.50904" lon="-0.80999">
        <ele>19.8443604</ele>
        <time>2015-09-20T09:51:26Z</time>
      </trkpt>
      <trkpt lat="44.50896" lon="-0.80986">
        <ele>22.7282715</ele>
        <time>2015-09-20T09:51:31Z</time>
      </trkpt>
      <trkpt lat="44.5089" lon="-0.80969">
        <ele>25.6123047</ele>
        <time>2015-09-20T09:51:36Z</time>
      </trkpt>
      <trkpt lat="44.50887" lon="-0.80959">
        <ele>28.0155029</ele>
        <time>2015-09-20T09:51:40Z</time>
      </trkpt>
      <trkpt lat="44.50884" lon="-0.80945">
        <ele>30.4188232</ele>
        <time>2015-09-20T09:51:45Z</time>
      </trkpt>
      <trkpt lat="44.50882" lon="-0.80944">
        <ele>30.4188232</ele>
        <time>2015-09-20T09:51:46Z</time>
      </trkpt>
      <trkpt lat="44.50869" lon="-0.80934">
        <ele>26.5736084</ele>
        <time>2015-09-20T09:51:51Z</time>
      </trkpt>
      <trkpt lat="44.50865" lon="-0.80925">
        <ele>26.0928955</ele>
        <time>2015-09-20T09:51:53Z</time>
      </trkpt>
      <trkpt lat="44.50854" lon="-0.80912">
        <ele>22.7282715</ele>
        <time>2015-09-20T09:51:57Z</time>
      </trkpt>
      <trkpt lat="44.50849" lon="-0.80906">
        <ele>19.8443604</ele>
        <time>2015-09-20T09:51:59Z</time>
      </trkpt>
      <trkpt lat="44.50847" lon="-0.80892">
        <ele>17.4411621</ele>
        <time>2015-09-20T09:52:03Z</time>
      </trkpt>
      <trkpt lat="44.50853" lon="-0.80887">
        <ele>18.4023438</ele>
        <time>2015-09-20T09:52:07Z</time>
      </trkpt>
      <trkpt lat="44.50862" lon="-0.80878">
        <ele>21.286377</ele>
        <time>2015-09-20T09:52:13Z</time>
      </trkpt>
      <trkpt lat="44.50852" lon="-0.80854">
        <ele>24.1702881</ele>
        <time>2015-09-20T09:52:21Z</time>
      </trkpt>
      <trkpt lat="44.50844" lon="-0.80835">
        <ele>20.8056641</ele>
        <time>2015-09-20T09:52:26Z</time>
      </trkpt>
      <trkpt lat="44.50832" lon="-0.80813">
        <ele>17.9217529</ele>
        <time>2015-09-20T09:52:31Z</time>
      </trkpt>
      <trkpt lat="44.50824" lon="-0.80797">
        <ele>16.9604492</ele>
        <time>2015-09-20T09:52:35Z</time>
      </trkpt>
      <trkpt lat="44.50818" lon="-0.8078">
        <ele>17.4411621</ele>
        <time>2015-09-20T09:52:41Z</time>
      </trkpt>
      <trkpt lat="44.50806" lon="-0.80769">
        <ele>16.9604492</ele>
        <time>2015-09-20T09:52:46Z</time>
      </trkpt>
      <trkpt lat="44.50798" lon="-0.80764">
        <ele>15.9990234</ele>
        <time>2015-09-20T09:52:50Z</time>
      </trkpt>
      <trkpt lat="44.50781" lon="-0.80755">
        <ele>16.9604492</ele>
        <time>2015-09-20T09:52:57Z</time>
      </trkpt>
      <trkpt lat="44.5078" lon="-0.80753">
        <ele>17.9217529</ele>
        <time>2015-09-20T09:52:58Z</time>
      </trkpt>
      <trkpt lat="44.50788" lon="-0.80741">
        <ele>21.7669678</ele>
        <time>2015-09-20T09:53:05Z</time>
      </trkpt>
      <trkpt lat="44.5079" lon="-0.80736">
        <ele>23.2089844</ele>
        <time>2015-09-20T09:53:07Z</time>
      </trkpt>
      <trkpt lat="44.50793" lon="-0.80725">
        <ele>27.5349121</ele>
        <time>2015-09-20T09:53:13Z</time>
      </trkpt>
      <trkpt lat="44.508" lon="-0.80723">
        <ele>29.9381104</ele>
        <time>2015-09-20T09:53:18Z</time>
      </trkpt>
      <trkpt lat="44.50801" lon="-0.80723">
        <ele>29.4575195</ele>
        <time>2015-09-20T09:53:19Z</time>
      </trkpt>
      <trkpt lat="44.50804" lon="-0.80722">
        <ele>31.380127</ele>
        <time>2015-09-20T09:53:25Z</time>
      </trkpt>
      <trkpt lat="44.50807" lon="-0.8072">
        <ele>35.7060547</ele>
        <time>2015-09-20T09:53:32Z</time>
      </trkpt>
      <trkpt lat="44.50812" lon="-0.80719">
        <ele>39.0706787</ele>
        <time>2015-09-20T09:53:41Z</time>
      </trkpt>
      <trkpt lat="44.50816" lon="-0.80715">
        <ele>37.6286621</ele>
        <time>2015-09-20T09:53:52Z</time>
      </trkpt>
      <trkpt lat="44.50821" lon="-0.80711">
        <ele>38.5900879</ele>
        <time>2015-09-20T09:54:01Z</time>
      </trkpt>
      <trkpt lat="44.50823" lon="-0.80704">
        <ele>39.5512695</ele>
        <time>2015-09-20T09:54:09Z</time>
      </trkpt>
      <trkpt lat="44.50822" lon="-0.807">
        <ele>40.5128174</ele>
        <time>2015-09-20T09:54:15Z</time>
      </trkpt>
      <trkpt lat="44.50818" lon="-0.80698">
        <ele>40.0321045</ele>
        <time>2015-09-20T09:54:22Z</time>
      </trkpt>
      <trkpt lat="44.50819" lon="-0.80698">
        <ele>39.0706787</ele>
        <time>2015-09-20T09:54:33Z</time>
      </trkpt>
      <trkpt lat="44.50818" lon="-0.80696">
        <ele>40.5128174</ele>
        <time>2015-09-20T09:54:38Z</time>
      </trkpt>
      <trkpt lat="44.50813" lon="-0.80692">
        <ele>40.5128174</ele>
        <time>2015-09-20T09:54:43Z</time>
      </trkpt>
      <trkpt lat="44.50805" lon="-0.8069">
        <ele>39.5512695</ele>
        <time>2015-09-20T09:54:49Z</time>
      </trkpt>
      <trkpt lat="44.50803" lon="-0.80692">
        <ele>39.5512695</ele>
        <time>2015-09-20T09:54:50Z</time>
      </trkpt>
      <trkpt lat="44.50799" lon="-0.80694">
        <ele>38.109375</ele>
        <time>2015-09-20T09:54:52Z</time>
      </trkpt>
      <trkpt lat="44.5079" lon="-0.8069">
        <ele>34.2641602</ele>
        <time>2015-09-20T09:54:57Z</time>
      </trkpt>
      <trkpt lat="44.50782" lon="-0.80685">
        <ele>32.3415527</ele>
        <time>2015-09-20T09:55:01Z</time>
      </trkpt>
      <trkpt lat="44.50781" lon="-0.8067">
        <ele>33.7834473</ele>
        <time>2015-09-20T09:55:06Z</time>
      </trkpt>
      <trkpt lat="44.50781" lon="-0.80661">
        <ele>35.2254639</ele>
        <time>2015-09-20T09:55:10Z</time>
      </trkpt>
      <trkpt lat="44.5078" lon="-0.80648">
        <ele>37.6286621</ele>
        <time>2015-09-20T09:55:14Z</time>
      </trkpt>
      <trkpt lat="44.50783" lon="-0.8064">
        <ele>38.109375</ele>
        <time>2015-09-20T09:55:18Z</time>
      </trkpt>
      <trkpt lat="44.5079" lon="-0.80628">
        <ele>37.1480713</ele>
        <time>2015-09-20T09:55:22Z</time>
      </trkpt>
      <trkpt lat="44.50795" lon="-0.80616">
        <ele>36.1867676</ele>
        <time>2015-09-20T09:55:26Z</time>
      </trkpt>
      <trkpt lat="44.50799" lon="-0.80604">
        <ele>36.1867676</ele>
        <time>2015-09-20T09:55:30Z</time>
      </trkpt>
      <trkpt lat="44.50804" lon="-0.80599">
        <ele>33.7834473</ele>
        <time>2015-09-20T09:55:32Z</time>
      </trkpt>
      <trkpt lat="44.5081" lon="-0.80594">
        <ele>32.3415527</ele>
        <time>2015-09-20T09:55:35Z</time>
      </trkpt>
      <trkpt lat="44.50818" lon="-0.80579">
        <ele>32.8222656</ele>
        <time>2015-09-20T09:55:40Z</time>
      </trkpt>
      <trkpt lat="44.50837" lon="-0.80563">
        <ele>31.8607178</ele>
        <time>2015-09-20T09:55:47Z</time>
      </trkpt>
      <trkpt lat="44.50853" lon="-0.80551">
        <ele>31.8607178</ele>
        <time>2015-09-20T09:55:52Z</time>
      </trkpt>
      <trkpt lat="44.5086" lon="-0.80543">
        <ele>32.3415527</ele>
        <time>2015-09-20T09:55:56Z</time>
      </trkpt>
      <trkpt lat="44.50862" lon="-0.80542">
        <ele>31.8607178</ele>
        <time>2015-09-20T09:55:57Z</time>
      </trkpt>
      <trkpt lat="44.50875" lon="-0.80528">
        <ele>35.2254639</ele>
        <time>2015-09-20T09:56:04Z</time>
      </trkpt>
      <trkpt lat="44.50876" lon="-0.80526">
        <ele>34.744873</ele>
        <time>2015-09-20T09:56:05Z</time>
      </trkpt>
      <trkpt lat="44.5088" lon="-0.80517">
        <ele>38.5900879</ele>
        <time>2015-09-20T09:56:09Z</time>
      </trkpt>
      <trkpt lat="44.50875" lon="-0.8051">
        <ele>39.5512695</ele>
        <time>2015-09-20T09:56:15Z</time>
      </trkpt>
      <trkpt lat="44.50867" lon="-0.80503">
        <ele>38.5900879</ele>
        <time>2015-09-20T09:56:19Z</time>
      </trkpt>
      <trkpt lat="44.50849" lon="-0.80488">
        <ele>37.6286621</ele>
        <time>2015-09-20T09:56:26Z</time>
      </trkpt>
      <trkpt lat="44.50834" lon="-0.80476">
        <ele>36.1867676</ele>
        <time>2015-09-20T09:56:32Z</time>
      </trkpt>
      <trkpt lat="44.5082" lon="-0.80466">
        <ele>36.1867676</ele>
        <time>2015-09-20T09:56:38Z</time>
      </trkpt>
      <trkpt lat="44.50806" lon="-0.80457">
        <ele>37.1480713</ele>
        <time>2015-09-20T09:56:44Z</time>
      </trkpt>
      <trkpt lat="44.50794" lon="-0.80447">
        <ele>37.1480713</ele>
        <time>2015-09-20T09:56:51Z</time>
      </trkpt>
      <trkpt lat="44.50789" lon="-0.80446">
        <ele>37.1480713</ele>
        <time>2015-09-20T09:56:54Z</time>
      </trkpt>
      <trkpt lat="44.50786" lon="-0.80446">
        <ele>35.7060547</ele>
        <time>2015-09-20T09:57:01Z</time>
      </trkpt>
      <trkpt lat="44.50786" lon="-0.80444">
        <ele>33.3028564</ele>
        <time>2015-09-20T09:57:31Z</time>
      </trkpt>
      <trkpt lat="44.50787" lon="-0.80444">
        <ele>33.3028564</ele>
        <time>2015-09-20T09:57:32Z</time>
      </trkpt>
      <trkpt lat="44.50791" lon="-0.80446">
        <ele>33.7834473</ele>
        <time>2015-09-20T09:57:37Z</time>
      </trkpt>
      <trkpt lat="44.50798" lon="-0.80451">
        <ele>32.3415527</ele>
        <time>2015-09-20T09:58:02Z</time>
      </trkpt>
      <trkpt lat="44.50817" lon="-0.80464">
        <ele>31.8607178</ele>
        <time>2015-09-20T09:58:09Z</time>
      </trkpt>
      <trkpt lat="44.50839" lon="-0.8048">
        <ele>30.8995361</ele>
        <time>2015-09-20T09:58:15Z</time>
      </trkpt>
      <trkpt lat="44.50859" lon="-0.80493">
        <ele>31.8607178</ele>
        <time>2015-09-20T09:58:20Z</time>
      </trkpt>
      <trkpt lat="44.50887" lon="-0.80511">
        <ele>33.7834473</ele>
        <time>2015-09-20T09:58:26Z</time>
      </trkpt>
      <trkpt lat="44.50904" lon="-0.80526">
        <ele>32.3415527</ele>
        <time>2015-09-20T09:58:30Z</time>
      </trkpt>
      <trkpt lat="44.50927" lon="-0.80548">
        <ele>33.3028564</ele>
        <time>2015-09-20T09:58:35Z</time>
      </trkpt>
      <trkpt lat="44.50965" lon="-0.80592">
        <ele>33.7834473</ele>
        <time>2015-09-20T09:58:44Z</time>
      </trkpt>
      <trkpt lat="44.50982" lon="-0.80613">
        <ele>31.8607178</ele>
        <time>2015-09-20T09:58:48Z</time>
      </trkpt>
      <trkpt lat="44.51015" lon="-0.8065">
        <ele>34.2641602</ele>
        <time>2015-09-20T09:58:55Z</time>
      </trkpt>
      <trkpt lat="44.51041" lon="-0.80691">
        <ele>31.8607178</ele>
        <time>2015-09-20T09:59:02Z</time>
      </trkpt>
      <trkpt lat="44.51044" lon="-0.80697">
        <ele>31.380127</ele>
        <time>2015-09-20T09:59:03Z</time>
      </trkpt>
      <trkpt lat="44.51069" lon="-0.80739">
        <ele>31.8607178</ele>
        <time>2015-09-20T09:59:10Z</time>
      </trkpt>
      <trkpt lat="44.51087" lon="-0.80774">
        <ele>32.3415527</ele>
        <time>2015-09-20T09:59:16Z</time>
      </trkpt>
      <trkpt lat="44.51102" lon="-0.80806">
        <ele>31.8607178</ele>
        <time>2015-09-20T09:59:21Z</time>
      </trkpt>
      <trkpt lat="44.51109" lon="-0.80819">
        <ele>33.3028564</ele>
        <time>2015-09-20T09:59:23Z</time>
      </trkpt>
      <trkpt lat="44.51128" lon="-0.80859">
        <ele>33.7834473</ele>
        <time>2015-09-20T09:59:29Z</time>
      </trkpt>
      <trkpt lat="44.51141" lon="-0.80893">
        <ele>33.3028564</ele>
        <time>2015-09-20T09:59:34Z</time>
      </trkpt>
      <trkpt lat="44.51158" lon="-0.80947">
        <ele>32.8222656</ele>
        <time>2015-09-20T09:59:42Z</time>
      </trkpt>
      <trkpt lat="44.51161" lon="-0.80954">
        <ele>32.3415527</ele>
        <time>2015-09-20T09:59:43Z</time>
      </trkpt>
      <trkpt lat="44.51177" lon="-0.81008">
        <ele>31.380127</ele>
        <time>2015-09-20T09:59:50Z</time>
      </trkpt>
      <trkpt lat="44.51195" lon="-0.81068">
        <ele>31.8607178</ele>
        <time>2015-09-20T09:59:58Z</time>
      </trkpt>
      <trkpt lat="44.51216" lon="-0.81134">
        <ele>32.3415527</ele>
        <time>2015-09-20T10:00:07Z</time>
      </trkpt>
      <trkpt lat="44.51235" lon="-0.81195">
        <ele>32.3415527</ele>
        <time>2015-09-20T10:00:15Z</time>
      </trkpt>
      <trkpt lat="44.51254" lon="-0.81255">
        <ele>31.380127</ele>
        <time>2015-09-20T10:00:23Z</time>
      </trkpt>
      <trkpt lat="44.51275" lon="-0.81323">
        <ele>30.8995361</ele>
        <time>2015-09-20T10:00:32Z</time>
      </trkpt>
      <trkpt lat="44.51291" lon="-0.81375">
        <ele>29.9381104</ele>
        <time>2015-09-20T10:00:39Z</time>
      </trkpt>
      <trkpt lat="44.51301" lon="-0.81403">
        <ele>29.9381104</ele>
        <time>2015-09-20T10:00:43Z</time>
      </trkpt>
      <trkpt lat="44.51308" lon="-0.81426">
        <ele>31.380127</ele>
        <time>2015-09-20T10:00:46Z</time>
      </trkpt>
      <trkpt lat="44.51319" lon="-0.81474">
        <ele>33.3028564</ele>
        <time>2015-09-20T10:00:52Z</time>
      </trkpt>
      <trkpt lat="44.51339" lon="-0.81533">
        <ele>31.8607178</ele>
        <time>2015-09-20T10:01:00Z</time>
      </trkpt>
      <trkpt lat="44.51358" lon="-0.81585">
        <ele>29.9381104</ele>
        <time>2015-09-20T10:01:07Z</time>
      </trkpt>
      <trkpt lat="44.51376" lon="-0.81647">
        <ele>30.8995361</ele>
        <time>2015-09-20T10:01:15Z</time>
      </trkpt>
      <trkpt lat="44.51398" lon="-0.81721">
        <ele>29.9381104</ele>
        <time>2015-09-20T10:01:25Z</time>
      </trkpt>
      <trkpt lat="44.51415" lon="-0.81772">
        <ele>28.4962158</ele>
        <time>2015-09-20T10:01:32Z</time>
      </trkpt>
      <trkpt lat="44.51418" lon="-0.81779">
        <ele>28.4962158</ele>
        <time>2015-09-20T10:01:33Z</time>
      </trkpt>
      <trkpt lat="44.51436" lon="-0.81839">
        <ele>27.0543213</ele>
        <time>2015-09-20T10:01:41Z</time>
      </trkpt>
      <trkpt lat="44.5145" lon="-0.81884">
        <ele>27.5349121</ele>
        <time>2015-09-20T10:01:47Z</time>
      </trkpt>
      <trkpt lat="44.51469" lon="-0.81946">
        <ele>27.0543213</ele>
        <time>2015-09-20T10:01:55Z</time>
      </trkpt>
      <trkpt lat="44.51485" lon="-0.81999">
        <ele>27.5349121</ele>
        <time>2015-09-20T10:02:02Z</time>
      </trkpt>
      <trkpt lat="44.51512" lon="-0.82079">
        <ele>25.6123047</ele>
        <time>2015-09-20T10:02:13Z</time>
      </trkpt>
      <trkpt lat="44.51531" lon="-0.8214">
        <ele>25.1317139</ele>
        <time>2015-09-20T10:02:21Z</time>
      </trkpt>
      <trkpt lat="44.51546" lon="-0.82192">
        <ele>26.0928955</ele>
        <time>2015-09-20T10:02:28Z</time>
      </trkpt>
      <trkpt lat="44.51567" lon="-0.8226">
        <ele>26.5736084</ele>
        <time>2015-09-20T10:02:37Z</time>
      </trkpt>
      <trkpt lat="44.51587" lon="-0.82325">
        <ele>26.5736084</ele>
        <time>2015-09-20T10:02:45Z</time>
      </trkpt>
      <trkpt lat="44.51609" lon="-0.82398">
        <ele>26.0928955</ele>
        <time>2015-09-20T10:02:54Z</time>
      </trkpt>
      <trkpt lat="44.5163" lon="-0.82463">
        <ele>23.6895752</ele>
        <time>2015-09-20T10:03:02Z</time>
      </trkpt>
      <trkpt lat="44.51635" lon="-0.82478">
        <ele>22.7282715</ele>
        <time>2015-09-20T10:03:04Z</time>
      </trkpt>
      <trkpt lat="44.51651" lon="-0.82531">
        <ele>23.2089844</ele>
        <time>2015-09-20T10:03:11Z</time>
      </trkpt>
      <trkpt lat="44.5167" lon="-0.82588">
        <ele>25.1317139</ele>
        <time>2015-09-20T10:03:18Z</time>
      </trkpt>
      <trkpt lat="44.51684" lon="-0.82644">
        <ele>25.6123047</ele>
        <time>2015-09-20T10:03:25Z</time>
      </trkpt>
      <trkpt lat="44.51698" lon="-0.82692">
        <ele>26.0928955</ele>
        <time>2015-09-20T10:03:31Z</time>
      </trkpt>
      <trkpt lat="44.51714" lon="-0.82746">
        <ele>25.6123047</ele>
        <time>2015-09-20T10:03:38Z</time>
      </trkpt>
      <trkpt lat="44.51733" lon="-0.82799">
        <ele>24.1702881</ele>
        <time>2015-09-20T10:03:45Z</time>
      </trkpt>
      <trkpt lat="44.51745" lon="-0.82847">
        <ele>25.1317139</ele>
        <time>2015-09-20T10:03:51Z</time>
      </trkpt>
      <trkpt lat="44.51763" lon="-0.82899">
        <ele>25.1317139</ele>
        <time>2015-09-20T10:03:58Z</time>
      </trkpt>
      <trkpt lat="44.51778" lon="-0.82943">
        <ele>23.6895752</ele>
        <time>2015-09-20T10:04:04Z</time>
      </trkpt>
      <trkpt lat="44.51783" lon="-0.82959">
        <ele>23.6895752</ele>
        <time>2015-09-20T10:04:06Z</time>
      </trkpt>
      <trkpt lat="44.51803" lon="-0.83022">
        <ele>23.6895752</ele>
        <time>2015-09-20T10:04:14Z</time>
      </trkpt>
      <trkpt lat="44.51833" lon="-0.83111">
        <ele>23.2089844</ele>
        <time>2015-09-20T10:04:25Z</time>
      </trkpt>
      <trkpt lat="44.51865" lon="-0.83214">
        <ele>23.2089844</ele>
        <time>2015-09-20T10:04:38Z</time>
      </trkpt>
      <trkpt lat="44.51892" lon="-0.83301">
        <ele>23.6895752</ele>
        <time>2015-09-20T10:04:49Z</time>
      </trkpt>
      <trkpt lat="44.51916" lon="-0.83381">
        <ele>24.651001</ele>
        <time>2015-09-20T10:04:59Z</time>
      </trkpt>
      <trkpt lat="44.51948" lon="-0.83486">
        <ele>25.6123047</ele>
        <time>2015-09-20T10:05:12Z</time>
      </trkpt>
      <trkpt lat="44.51972" lon="-0.83562">
        <ele>25.1317139</ele>
        <time>2015-09-20T10:05:21Z</time>
      </trkpt>
      <trkpt lat="44.51994" lon="-0.83635">
        <ele>25.6123047</ele>
        <time>2015-09-20T10:05:30Z</time>
      </trkpt>
      <trkpt lat="44.52015" lon="-0.83698">
        <ele>25.6123047</ele>
        <time>2015-09-20T10:05:38Z</time>
      </trkpt>
      <trkpt lat="44.52037" lon="-0.83757">
        <ele>24.651001</ele>
        <time>2015-09-20T10:05:46Z</time>
      </trkpt>
      <trkpt lat="44.5205" lon="-0.83791">
        <ele>23.2089844</ele>
        <time>2015-09-20T10:05:51Z</time>
      </trkpt>
      <trkpt lat="44.52052" lon="-0.83812">
        <ele>22.7282715</ele>
        <time>2015-09-20T10:05:55Z</time>
      </trkpt>
      <trkpt lat="44.52041" lon="-0.83816">
        <ele>22.2475586</ele>
        <time>2015-09-20T10:05:57Z</time>
      </trkpt>
      <trkpt lat="44.51987" lon="-0.8383">
        <ele>22.2475586</ele>
        <time>2015-09-20T10:06:06Z</time>
      </trkpt>
      <trkpt lat="44.51939" lon="-0.83847">
        <ele>22.2475586</ele>
        <time>2015-09-20T10:06:15Z</time>
      </trkpt>
      <trkpt lat="44.51904" lon="-0.83863">
        <ele>22.7282715</ele>
        <time>2015-09-20T10:06:21Z</time>
      </trkpt>
      <trkpt lat="44.51869" lon="-0.83878">
        <ele>22.2475586</ele>
        <time>2015-09-20T10:06:27Z</time>
      </trkpt>
      <trkpt lat="44.51823" lon="-0.83898">
        <ele>20.8056641</ele>
        <time>2015-09-20T10:06:35Z</time>
      </trkpt>
      <trkpt lat="44.51811" lon="-0.83904">
        <ele>19.8443604</ele>
        <time>2015-09-20T10:06:37Z</time>
      </trkpt>
      <trkpt lat="44.5177" lon="-0.83929">
        <ele>16.4797363</ele>
        <time>2015-09-20T10:06:43Z</time>
      </trkpt>
      <trkpt lat="44.51714" lon="-0.83951">
        <ele>15.5184326</ele>
        <time>2015-09-20T10:06:50Z</time>
      </trkpt>
      <trkpt lat="44.51673" lon="-0.83966">
        <ele>14.5570068</ele>
        <time>2015-09-20T10:06:56Z</time>
      </trkpt>
      <trkpt lat="44.51641" lon="-0.83978">
        <ele>13.5958252</ele>
        <time>2015-09-20T10:07:01Z</time>
      </trkpt>
      <trkpt lat="44.51608" lon="-0.83988">
        <ele>12.6343994</ele>
        <time>2015-09-20T10:07:06Z</time>
      </trkpt>
      <trkpt lat="44.51589" lon="-0.84011">
        <ele>11.6732178</ele>
        <time>2015-09-20T10:07:10Z</time>
      </trkpt>
      <trkpt lat="44.51584" lon="-0.84025">
        <ele>11.1925049</ele>
        <time>2015-09-20T10:07:12Z</time>
      </trkpt>
      <trkpt lat="44.5159" lon="-0.84059">
        <ele>9.2698975</ele>
        <time>2015-09-20T10:07:15Z</time>
      </trkpt>
      <trkpt lat="44.5161" lon="-0.84072">
        <ele>9.7506104</ele>
        <time>2015-09-20T10:07:18Z</time>
      </trkpt>
      <trkpt lat="44.51627" lon="-0.8407">
        <ele>9.2698975</ele>
        <time>2015-09-20T10:07:21Z</time>
      </trkpt>
      <trkpt lat="44.51668" lon="-0.84053">
        <ele>8.3085938</ele>
        <time>2015-09-20T10:07:28Z</time>
      </trkpt>
      <trkpt lat="44.5171" lon="-0.84035">
        <ele>11.1925049</ele>
        <time>2015-09-20T10:07:35Z</time>
      </trkpt>
      <trkpt lat="44.51758" lon="-0.84014">
        <ele>12.6343994</ele>
        <time>2015-09-20T10:07:43Z</time>
      </trkpt>
      <trkpt lat="44.51807" lon="-0.83991">
        <ele>14.076416</ele>
        <time>2015-09-20T10:07:51Z</time>
      </trkpt>
      <trkpt lat="44.51855" lon="-0.83972">
        <ele>16.9604492</ele>
        <time>2015-09-20T10:07:59Z</time>
      </trkpt>
      <trkpt lat="44.51898" lon="-0.83955">
        <ele>20.8056641</ele>
        <time>2015-09-20T10:08:06Z</time>
      </trkpt>
      <trkpt lat="44.51936" lon="-0.83941">
        <ele>21.7669678</ele>
        <time>2015-09-20T10:08:12Z</time>
      </trkpt>
      <trkpt lat="44.51981" lon="-0.83924">
        <ele>22.2475586</ele>
        <time>2015-09-20T10:08:20Z</time>
      </trkpt>
      <trkpt lat="44.52017" lon="-0.83911">
        <ele>21.7669678</ele>
        <time>2015-09-20T10:08:27Z</time>
      </trkpt>
      <trkpt lat="44.52062" lon="-0.83896">
        <ele>22.2475586</ele>
        <time>2015-09-20T10:08:36Z</time>
      </trkpt>
      <trkpt lat="44.52091" lon="-0.83887">
        <ele>23.6895752</ele>
        <time>2015-09-20T10:08:42Z</time>
      </trkpt>
      <trkpt lat="44.52108" lon="-0.83896">
        <ele>24.1702881</ele>
        <time>2015-09-20T10:08:46Z</time>
      </trkpt>
      <trkpt lat="44.52111" lon="-0.83902">
        <ele>23.6895752</ele>
        <time>2015-09-20T10:08:47Z</time>
      </trkpt>
      <trkpt lat="44.52136" lon="-0.83945">
        <ele>22.7282715</ele>
        <time>2015-09-20T10:08:55Z</time>
      </trkpt>
      <trkpt lat="44.52153" lon="-0.8397">
        <ele>21.286377</ele>
        <time>2015-09-20T10:09:00Z</time>
      </trkpt>
      <trkpt lat="44.52172" lon="-0.83993">
        <ele>22.2475586</ele>
        <time>2015-09-20T10:09:05Z</time>
      </trkpt>
      <trkpt lat="44.52188" lon="-0.8402">
        <ele>22.7282715</ele>
        <time>2015-09-20T10:09:10Z</time>
      </trkpt>
      <trkpt lat="44.52195" lon="-0.84031">
        <ele>23.2089844</ele>
        <time>2015-09-20T10:09:12Z</time>
      </trkpt>
      <trkpt lat="44.52208" lon="-0.84047">
        <ele>22.7282715</ele>
        <time>2015-09-20T10:09:15Z</time>
      </trkpt>
      <trkpt lat="44.52242" lon="-0.84089">
        <ele>20.8056641</ele>
        <time>2015-09-20T10:09:23Z</time>
      </trkpt>
      <trkpt lat="44.52267" lon="-0.84121">
        <ele>20.8056641</ele>
        <time>2015-09-20T10:09:29Z</time>
      </trkpt>
      <trkpt lat="44.52286" lon="-0.8414">
        <ele>21.286377</ele>
        <time>2015-09-20T10:09:33Z</time>
      </trkpt>
      <trkpt lat="44.52303" lon="-0.84157">
        <ele>22.2475586</ele>
        <time>2015-09-20T10:09:37Z</time>
      </trkpt>
      <trkpt lat="44.52337" lon="-0.84188">
        <ele>23.2089844</ele>
        <time>2015-09-20T10:09:44Z</time>
      </trkpt>
      <trkpt lat="44.52364" lon="-0.8421">
        <ele>22.2475586</ele>
        <time>2015-09-20T10:09:50Z</time>
      </trkpt>
      <trkpt lat="44.52397" lon="-0.84237">
        <ele>20.3249512</ele>
        <time>2015-09-20T10:09:57Z</time>
      </trkpt>
      <trkpt lat="44.52425" lon="-0.84259">
        <ele>20.8056641</ele>
        <time>2015-09-20T10:10:03Z</time>
      </trkpt>
      <trkpt lat="44.52452" lon="-0.84281">
        <ele>21.286377</ele>
        <time>2015-09-20T10:10:09Z</time>
      </trkpt>
      <trkpt lat="44.52473" lon="-0.84296">
        <ele>20.3249512</ele>
        <time>2015-09-20T10:10:13Z</time>
      </trkpt>
      <trkpt lat="44.52502" lon="-0.84321">
        <ele>19.3637695</ele>
        <time>2015-09-20T10:10:19Z</time>
      </trkpt>
      <trkpt lat="44.52547" lon="-0.84357">
        <ele>19.3637695</ele>
        <time>2015-09-20T10:10:28Z</time>
      </trkpt>
      <trkpt lat="44.52599" lon="-0.84397">
        <ele>20.3249512</ele>
        <time>2015-09-20T10:10:38Z</time>
      </trkpt>
      <trkpt lat="44.52651" lon="-0.84437">
        <ele>21.7669678</ele>
        <time>2015-09-20T10:10:48Z</time>
      </trkpt>
      <trkpt lat="44.52699" lon="-0.84474">
        <ele>22.2475586</ele>
        <time>2015-09-20T10:10:57Z</time>
      </trkpt>
      <trkpt lat="44.5275" lon="-0.84516">
        <ele>21.286377</ele>
        <time>2015-09-20T10:11:07Z</time>
      </trkpt>
      <trkpt lat="44.52797" lon="-0.84552">
        <ele>21.286377</ele>
        <time>2015-09-20T10:11:16Z</time>
      </trkpt>
      <trkpt lat="44.52843" lon="-0.84589">
        <ele>21.7669678</ele>
        <time>2015-09-20T10:11:25Z</time>
      </trkpt>
      <trkpt lat="44.52893" lon="-0.84628">
        <ele>22.7282715</ele>
        <time>2015-09-20T10:11:35Z</time>
      </trkpt>
      <trkpt lat="44.52948" lon="-0.84672">
        <ele>24.651001</ele>
        <time>2015-09-20T10:11:46Z</time>
      </trkpt>
      <trkpt lat="44.52978" lon="-0.84696">
        <ele>24.1702881</ele>
        <time>2015-09-20T10:11:52Z</time>
      </trkpt>
      <trkpt lat="44.53025" lon="-0.84733">
        <ele>22.7282715</ele>
        <time>2015-09-20T10:12:01Z</time>
      </trkpt>
      <trkpt lat="44.53077" lon="-0.84773">
        <ele>21.7669678</ele>
        <time>2015-09-20T10:12:11Z</time>
      </trkpt>
      <trkpt lat="44.5313" lon="-0.84815">
        <ele>21.286377</ele>
        <time>2015-09-20T10:12:21Z</time>
      </trkpt>
      <trkpt lat="44.53151" lon="-0.84832">
        <ele>20.8056641</ele>
        <time>2015-09-20T10:12:25Z</time>
      </trkpt>
      <trkpt lat="44.53193" lon="-0.84865">
        <ele>19.8443604</ele>
        <time>2015-09-20T10:12:33Z</time>
      </trkpt>
      <trkpt lat="44.53246" lon="-0.84906">
        <ele>18.8830566</ele>
        <time>2015-09-20T10:12:43Z</time>
      </trkpt>
      <trkpt lat="44.53287" lon="-0.8494">
        <ele>17.9217529</ele>
        <time>2015-09-20T10:12:51Z</time>
      </trkpt>
      <trkpt lat="44.53322" lon="-0.84967">
        <ele>16.9604492</ele>
        <time>2015-09-20T10:12:58Z</time>
      </trkpt>
      <trkpt lat="44.53364" lon="-0.85003">
        <ele>18.4023438</ele>
        <time>2015-09-20T10:13:06Z</time>
      </trkpt>
      <trkpt lat="44.53402" lon="-0.85037">
        <ele>20.3249512</ele>
        <time>2015-09-20T10:13:14Z</time>
      </trkpt>
      <trkpt lat="44.53429" lon="-0.85067">
        <ele>19.3637695</ele>
        <time>2015-09-20T10:13:20Z</time>
      </trkpt>
      <trkpt lat="44.53456" lon="-0.85094">
        <ele>22.2475586</ele>
        <time>2015-09-20T10:13:26Z</time>
      </trkpt>
      <trkpt lat="44.53487" lon="-0.85123">
        <ele>24.651001</ele>
        <time>2015-09-20T10:13:32Z</time>
      </trkpt>
      <trkpt lat="44.53514" lon="-0.85154">
        <ele>24.651001</ele>
        <time>2015-09-20T10:13:38Z</time>
      </trkpt>
      <trkpt lat="44.53529" lon="-0.85176">
        <ele>22.7282715</ele>
        <time>2015-09-20T10:13:42Z</time>
      </trkpt>
      <trkpt lat="44.53557" lon="-0.85219">
        <ele>19.3637695</ele>
        <time>2015-09-20T10:13:49Z</time>
      </trkpt>
      <trkpt lat="44.53573" lon="-0.85243">
        <ele>18.8830566</ele>
        <time>2015-09-20T10:13:53Z</time>
      </trkpt>
      <trkpt lat="44.53593" lon="-0.85273">
        <ele>19.8443604</ele>
        <time>2015-09-20T10:13:58Z</time>
      </trkpt>
      <trkpt lat="44.53619" lon="-0.85309">
        <ele>16.4797363</ele>
        <time>2015-09-20T10:14:04Z</time>
      </trkpt>
      <trkpt lat="44.53647" lon="-0.85352">
        <ele>16.4797363</ele>
        <time>2015-09-20T10:14:11Z</time>
      </trkpt>
      <trkpt lat="44.5368" lon="-0.85392">
        <ele>15.0377197</ele>
        <time>2015-09-20T10:14:18Z</time>
      </trkpt>
      <trkpt lat="44.53709" lon="-0.85434">
        <ele>15.9990234</ele>
        <time>2015-09-20T10:14:25Z</time>
      </trkpt>
      <trkpt lat="44.53713" lon="-0.8544">
        <ele>16.4797363</ele>
        <time>2015-09-20T10:14:26Z</time>
      </trkpt>
      <trkpt lat="44.53741" lon="-0.85493">
        <ele>19.3637695</ele>
        <time>2015-09-20T10:14:34Z</time>
      </trkpt>
      <trkpt lat="44.53767" lon="-0.85537">
        <ele>21.286377</ele>
        <time>2015-09-20T10:14:41Z</time>
      </trkpt>
      <trkpt lat="44.53793" lon="-0.85573">
        <ele>22.7282715</ele>
        <time>2015-09-20T10:14:47Z</time>
      </trkpt>
      <trkpt lat="44.53823" lon="-0.85614">
        <ele>21.286377</ele>
        <time>2015-09-20T10:14:54Z</time>
      </trkpt>
      <trkpt lat="44.53852" lon="-0.8565">
        <ele>19.8443604</ele>
        <time>2015-09-20T10:15:00Z</time>
      </trkpt>
      <trkpt lat="44.53879" lon="-0.85682">
        <ele>18.4023438</ele>
        <time>2015-09-20T10:15:06Z</time>
      </trkpt>
      <trkpt lat="44.5391" lon="-0.8572">
        <ele>18.8830566</ele>
        <time>2015-09-20T10:15:13Z</time>
      </trkpt>
      <trkpt lat="44.53939" lon="-0.8575">
        <ele>18.8830566</ele>
        <time>2015-09-20T10:15:19Z</time>
      </trkpt>
      <trkpt lat="44.53972" lon="-0.85785">
        <ele>19.3637695</ele>
        <time>2015-09-20T10:15:26Z</time>
      </trkpt>
      <trkpt lat="44.54007" lon="-0.85818">
        <ele>18.8830566</ele>
        <time>2015-09-20T10:15:33Z</time>
      </trkpt>
      <trkpt lat="44.54048" lon="-0.85855">
        <ele>17.9217529</ele>
        <time>2015-09-20T10:15:41Z</time>
      </trkpt>
      <trkpt lat="44.54089" lon="-0.85889">
        <ele>19.3637695</ele>
        <time>2015-09-20T10:15:49Z</time>
      </trkpt>
      <trkpt lat="44.54124" lon="-0.85919">
        <ele>18.8830566</ele>
        <time>2015-09-20T10:15:56Z</time>
      </trkpt>
      <trkpt lat="44.54176" lon="-0.85957">
        <ele>16.9604492</ele>
        <time>2015-09-20T10:16:06Z</time>
      </trkpt>
      <trkpt lat="44.54213" lon="-0.85981">
        <ele>18.4023438</ele>
        <time>2015-09-20T10:16:13Z</time>
      </trkpt>
      <trkpt lat="44.54247" lon="-0.86001">
        <ele>17.9217529</ele>
        <time>2015-09-20T10:16:19Z</time>
      </trkpt>
      <trkpt lat="44.54267" lon="-0.86014">
        <ele>17.4411621</ele>
        <time>2015-09-20T10:16:23Z</time>
      </trkpt>
      <trkpt lat="44.54293" lon="-0.86032">
        <ele>16.4797363</ele>
        <time>2015-09-20T10:16:28Z</time>
      </trkpt>
      <trkpt lat="44.54325" lon="-0.8605">
        <ele>17.9217529</ele>
        <time>2015-09-20T10:16:34Z</time>
      </trkpt>
      <trkpt lat="44.54363" lon="-0.86071">
        <ele>22.7282715</ele>
        <time>2015-09-20T10:16:40Z</time>
      </trkpt>
      <trkpt lat="44.54395" lon="-0.8609">
        <ele>22.7282715</ele>
        <time>2015-09-20T10:16:46Z</time>
      </trkpt>
      <trkpt lat="44.54436" lon="-0.86115">
        <ele>22.7282715</ele>
        <time>2015-09-20T10:16:54Z</time>
      </trkpt>
      <trkpt lat="44.54467" lon="-0.86134">
        <ele>22.7282715</ele>
        <time>2015-09-20T10:17:00Z</time>
      </trkpt>
      <trkpt lat="44.54507" lon="-0.86158">
        <ele>23.2089844</ele>
        <time>2015-09-20T10:17:08Z</time>
      </trkpt>
      <trkpt lat="44.54542" lon="-0.86178">
        <ele>24.1702881</ele>
        <time>2015-09-20T10:17:15Z</time>
      </trkpt>
      <trkpt lat="44.54576" lon="-0.862">
        <ele>24.651001</ele>
        <time>2015-09-20T10:17:22Z</time>
      </trkpt>
      <trkpt lat="44.54616" lon="-0.86226">
        <ele>22.7282715</ele>
        <time>2015-09-20T10:17:30Z</time>
      </trkpt>
      <trkpt lat="44.54664" lon="-0.86254">
        <ele>22.7282715</ele>
        <time>2015-09-20T10:17:39Z</time>
      </trkpt>
      <trkpt lat="44.54705" lon="-0.8628">
        <ele>22.2475586</ele>
        <time>2015-09-20T10:17:47Z</time>
      </trkpt>
      <trkpt lat="44.54747" lon="-0.86305">
        <ele>22.7282715</ele>
        <time>2015-09-20T10:17:55Z</time>
      </trkpt>
      <trkpt lat="44.54791" lon="-0.86333">
        <ele>22.7282715</ele>
        <time>2015-09-20T10:18:04Z</time>
      </trkpt>
      <trkpt lat="44.5482" lon="-0.8635">
        <ele>24.651001</ele>
        <time>2015-09-20T10:18:10Z</time>
      </trkpt>
      <trkpt lat="44.54838" lon="-0.86365">
        <ele>25.1317139</ele>
        <time>2015-09-20T10:18:15Z</time>
      </trkpt>
      <trkpt lat="44.5484" lon="-0.86367">
        <ele>25.1317139</ele>
        <time>2015-09-20T10:18:16Z</time>
      </trkpt>
      <trkpt lat="44.54846" lon="-0.86372">
        <ele>25.6123047</ele>
        <time>2015-09-20T10:18:20Z</time>
      </trkpt>
      <trkpt lat="44.54853" lon="-0.86371">
        <ele>26.0928955</ele>
        <time>2015-09-20T10:18:25Z</time>
      </trkpt>
      <trkpt lat="44.54871" lon="-0.8638">
        <ele>26.0928955</ele>
        <time>2015-09-20T10:18:31Z</time>
      </trkpt>
      <trkpt lat="44.54894" lon="-0.86394">
        <ele>25.6123047</ele>
        <time>2015-09-20T10:18:36Z</time>
      </trkpt>
      <trkpt lat="44.54933" lon="-0.86417">
        <ele>26.0928955</ele>
        <time>2015-09-20T10:18:44Z</time>
      </trkpt>
      <trkpt lat="44.54977" lon="-0.86443">
        <ele>26.5736084</ele>
        <time>2015-09-20T10:18:53Z</time>
      </trkpt>
      <trkpt lat="44.5502" lon="-0.86469">
        <ele>26.0928955</ele>
        <time>2015-09-20T10:19:02Z</time>
      </trkpt>
      <trkpt lat="44.55054" lon="-0.86489">
        <ele>25.6123047</ele>
        <time>2015-09-20T10:19:09Z</time>
      </trkpt>
      <trkpt lat="44.55096" lon="-0.86518">
        <ele>26.0928955</ele>
        <time>2015-09-20T10:19:18Z</time>
      </trkpt>
      <trkpt lat="44.55136" lon="-0.86547">
        <ele>26.0928955</ele>
        <time>2015-09-20T10:19:27Z</time>
      </trkpt>
      <trkpt lat="44.55143" lon="-0.86557">
        <ele>26.0928955</ele>
        <time>2015-09-20T10:19:30Z</time>
      </trkpt>
      <trkpt lat="44.55159" lon="-0.86561">
        <ele>26.0928955</ele>
        <time>2015-09-20T10:19:35Z</time>
      </trkpt>
      <trkpt lat="44.55163" lon="-0.86562">
        <ele>25.6123047</ele>
        <time>2015-09-20T10:19:36Z</time>
      </trkpt>
      <trkpt lat="44.55178" lon="-0.8658">
        <ele>25.6123047</ele>
        <time>2015-09-20T10:19:40Z</time>
      </trkpt>
      <trkpt lat="44.55222" lon="-0.86619">
        <ele>25.1317139</ele>
        <time>2015-09-20T10:19:49Z</time>
      </trkpt>
      <trkpt lat="44.55251" lon="-0.86645">
        <ele>25.1317139</ele>
        <time>2015-09-20T10:19:55Z</time>
      </trkpt>
      <trkpt lat="44.55285" lon="-0.86679">
        <ele>23.2089844</ele>
        <time>2015-09-20T10:20:02Z</time>
      </trkpt>
      <trkpt lat="44.55324" lon="-0.86721">
        <ele>22.2475586</ele>
        <time>2015-09-20T10:20:10Z</time>
      </trkpt>
      <trkpt lat="44.55361" lon="-0.86766">
        <ele>20.3249512</ele>
        <time>2015-09-20T10:20:18Z</time>
      </trkpt>
      <trkpt lat="44.55399" lon="-0.86811">
        <ele>20.8056641</ele>
        <time>2015-09-20T10:20:26Z</time>
      </trkpt>
      <trkpt lat="44.55408" lon="-0.86822">
        <ele>20.8056641</ele>
        <time>2015-09-20T10:20:28Z</time>
      </trkpt>
      <trkpt lat="44.55417" lon="-0.86831">
        <ele>20.8056641</ele>
        <time>2015-09-20T10:20:30Z</time>
      </trkpt>
      <trkpt lat="44.55425" lon="-0.86841">
        <ele>20.8056641</ele>
        <time>2015-09-20T10:20:32Z</time>
      </trkpt>
      <trkpt lat="44.55451" lon="-0.86871">
        <ele>21.7669678</ele>
        <time>2015-09-20T10:20:38Z</time>
      </trkpt>
      <trkpt lat="44.55475" lon="-0.86903">
        <ele>20.3249512</ele>
        <time>2015-09-20T10:20:45Z</time>
      </trkpt>
      <trkpt lat="44.55508" lon="-0.86942">
        <ele>20.8056641</ele>
        <time>2015-09-20T10:20:52Z</time>
      </trkpt>
      <trkpt lat="44.55562" lon="-0.87005">
        <ele>22.2475586</ele>
        <time>2015-09-20T10:21:04Z</time>
      </trkpt>
      <trkpt lat="44.55612" lon="-0.87064">
        <ele>22.2475586</ele>
        <time>2015-09-20T10:21:15Z</time>
      </trkpt>
      <trkpt lat="44.55659" lon="-0.87119">
        <ele>22.2475586</ele>
        <time>2015-09-20T10:21:25Z</time>
      </trkpt>
      <trkpt lat="44.55685" lon="-0.87151">
        <ele>22.2475586</ele>
        <time>2015-09-20T10:21:31Z</time>
      </trkpt>
      <trkpt lat="44.55709" lon="-0.87179">
        <ele>22.7282715</ele>
        <time>2015-09-20T10:21:37Z</time>
      </trkpt>
      <trkpt lat="44.55726" lon="-0.87201">
        <ele>22.7282715</ele>
        <time>2015-09-20T10:21:42Z</time>
      </trkpt>
      <trkpt lat="44.55761" lon="-0.87244">
        <ele>23.2089844</ele>
        <time>2015-09-20T10:21:50Z</time>
      </trkpt>
      <trkpt lat="44.55796" lon="-0.87291">
        <ele>23.2089844</ele>
        <time>2015-09-20T10:21:58Z</time>
      </trkpt>
      <trkpt lat="44.55812" lon="-0.87307">
        <ele>23.2089844</ele>
        <time>2015-09-20T10:22:02Z</time>
      </trkpt>
      <trkpt lat="44.55818" lon="-0.87324">
        <ele>23.2089844</ele>
        <time>2015-09-20T10:22:06Z</time>
      </trkpt>
      <trkpt lat="44.55831" lon="-0.87359">
        <ele>21.7669678</ele>
        <time>2015-09-20T10:22:12Z</time>
      </trkpt>
      <trkpt lat="44.55853" lon="-0.87402">
        <ele>20.8056641</ele>
        <time>2015-09-20T10:22:18Z</time>
      </trkpt>
      <trkpt lat="44.55884" lon="-0.87462">
        <ele>20.8056641</ele>
        <time>2015-09-20T10:22:26Z</time>
      </trkpt>
      <trkpt lat="44.559" lon="-0.87489">
        <ele>19.3637695</ele>
        <time>2015-09-20T10:22:30Z</time>
      </trkpt>
      <trkpt lat="44.55918" lon="-0.87539">
        <ele>18.4023438</ele>
        <time>2015-09-20T10:22:36Z</time>
      </trkpt>
      <trkpt lat="44.55923" lon="-0.87557">
        <ele>18.4023438</ele>
        <time>2015-09-20T10:22:38Z</time>
      </trkpt>
      <trkpt lat="44.55941" lon="-0.87611">
        <ele>15.9990234</ele>
        <time>2015-09-20T10:22:45Z</time>
      </trkpt>
      <trkpt lat="44.55947" lon="-0.87627">
        <ele>15.5184326</ele>
        <time>2015-09-20T10:22:47Z</time>
      </trkpt>
      <trkpt lat="44.5596" lon="-0.87666">
        <ele>15.9990234</ele>
        <time>2015-09-20T10:22:52Z</time>
      </trkpt>
      <trkpt lat="44.55975" lon="-0.87711">
        <ele>15.5184326</ele>
        <time>2015-09-20T10:22:57Z</time>
      </trkpt>
      <trkpt lat="44.55978" lon="-0.87718">
        <ele>15.0377197</ele>
        <time>2015-09-20T10:22:58Z</time>
      </trkpt>
      <trkpt lat="44.56004" lon="-0.87769">
        <ele>15.9990234</ele>
        <time>2015-09-20T10:23:05Z</time>
      </trkpt>
      <trkpt lat="44.56029" lon="-0.8782">
        <ele>16.4797363</ele>
        <time>2015-09-20T10:23:12Z</time>
      </trkpt>
      <trkpt lat="44.56059" lon="-0.87869">
        <ele>15.9990234</ele>
        <time>2015-09-20T10:23:19Z</time>
      </trkpt>
      <trkpt lat="44.56068" lon="-0.87881">
        <ele>16.4797363</ele>
        <time>2015-09-20T10:23:21Z</time>
      </trkpt>
      <trkpt lat="44.56099" lon="-0.87925">
        <ele>17.4411621</ele>
        <time>2015-09-20T10:23:28Z</time>
      </trkpt>
      <trkpt lat="44.5613" lon="-0.87972">
        <ele>18.4023438</ele>
        <time>2015-09-20T10:23:35Z</time>
      </trkpt>
      <trkpt lat="44.56158" lon="-0.88017">
        <ele>16.4797363</ele>
        <time>2015-09-20T10:23:42Z</time>
      </trkpt>
      <trkpt lat="44.56194" lon="-0.88069">
        <ele>15.9990234</ele>
        <time>2015-09-20T10:23:50Z</time>
      </trkpt>
      <trkpt lat="44.56233" lon="-0.8812">
        <ele>18.4023438</ele>
        <time>2015-09-20T10:23:58Z</time>
      </trkpt>
      <trkpt lat="44.5624" lon="-0.88132">
        <ele>17.9217529</ele>
        <time>2015-09-20T10:24:00Z</time>
      </trkpt>
      <trkpt lat="44.56269" lon="-0.88172">
        <ele>16.9604492</ele>
        <time>2015-09-20T10:24:06Z</time>
      </trkpt>
      <trkpt lat="44.56287" lon="-0.88199">
        <ele>16.4797363</ele>
        <time>2015-09-20T10:24:10Z</time>
      </trkpt>
      <trkpt lat="44.56324" lon="-0.88253">
        <ele>18.4023438</ele>
        <time>2015-09-20T10:24:18Z</time>
      </trkpt>
      <trkpt lat="44.56366" lon="-0.88313">
        <ele>18.4023438</ele>
        <time>2015-09-20T10:24:27Z</time>
      </trkpt>
      <trkpt lat="44.56403" lon="-0.88366">
        <ele>16.4797363</ele>
        <time>2015-09-20T10:24:35Z</time>
      </trkpt>
      <trkpt lat="44.56448" lon="-0.88432">
        <ele>15.9990234</ele>
        <time>2015-09-20T10:24:45Z</time>
      </trkpt>
      <trkpt lat="44.56488" lon="-0.88491">
        <ele>15.5184326</ele>
        <time>2015-09-20T10:24:54Z</time>
      </trkpt>
      <trkpt lat="44.56525" lon="-0.88544">
        <ele>15.0377197</ele>
        <time>2015-09-20T10:25:02Z</time>
      </trkpt>
      <trkpt lat="44.56529" lon="-0.88551">
        <ele>15.0377197</ele>
        <time>2015-09-20T10:25:03Z</time>
      </trkpt>
      <trkpt lat="44.56557" lon="-0.8859">
        <ele>13.5958252</ele>
        <time>2015-09-20T10:25:09Z</time>
      </trkpt>
      <trkpt lat="44.56592" lon="-0.88641">
        <ele>12.6343994</ele>
        <time>2015-09-20T10:25:17Z</time>
      </trkpt>
      <trkpt lat="44.56626" lon="-0.88692">
        <ele>12.6343994</ele>
        <time>2015-09-20T10:25:25Z</time>
      </trkpt>
      <trkpt lat="44.56639" lon="-0.88711">
        <ele>12.1538086</ele>
        <time>2015-09-20T10:25:28Z</time>
      </trkpt>
      <trkpt lat="44.56672" lon="-0.88756">
        <ele>11.6732178</ele>
        <time>2015-09-20T10:25:35Z</time>
      </trkpt>
      <trkpt lat="44.56699" lon="-0.88795">
        <ele>12.1538086</ele>
        <time>2015-09-20T10:25:41Z</time>
      </trkpt>
      <trkpt lat="44.56739" lon="-0.88849">
        <ele>14.5570068</ele>
        <time>2015-09-20T10:25:49Z</time>
      </trkpt>
      <trkpt lat="44.56769" lon="-0.88888">
        <ele>14.076416</ele>
        <time>2015-09-20T10:25:55Z</time>
      </trkpt>
      <trkpt lat="44.56792" lon="-0.88921">
        <ele>14.5570068</ele>
        <time>2015-09-20T10:26:00Z</time>
      </trkpt>
      <trkpt lat="44.56826" lon="-0.88968">
        <ele>16.4797363</ele>
        <time>2015-09-20T10:26:07Z</time>
      </trkpt>
      <trkpt lat="44.56836" lon="-0.88981">
        <ele>17.4411621</ele>
        <time>2015-09-20T10:26:09Z</time>
      </trkpt>
      <trkpt lat="44.56861" lon="-0.89014">
        <ele>19.8443604</ele>
        <time>2015-09-20T10:26:14Z</time>
      </trkpt>
      <trkpt lat="44.56871" lon="-0.89026">
        <ele>20.3249512</ele>
        <time>2015-09-20T10:26:16Z</time>
      </trkpt>
      <trkpt lat="44.56893" lon="-0.8906">
        <ele>18.4023438</ele>
        <time>2015-09-20T10:26:21Z</time>
      </trkpt>
      <trkpt lat="44.56907" lon="-0.89086">
        <ele>17.4411621</ele>
        <time>2015-09-20T10:26:25Z</time>
      </trkpt>
      <trkpt lat="44.56934" lon="-0.89126">
        <ele>13.5958252</ele>
        <time>2015-09-20T10:26:31Z</time>
      </trkpt>
      <trkpt lat="44.56949" lon="-0.89147">
        <ele>13.1151123</ele>
        <time>2015-09-20T10:26:34Z</time>
      </trkpt>
      <trkpt lat="44.5697" lon="-0.8918">
        <ele>10.711792</ele>
        <time>2015-09-20T10:26:39Z</time>
      </trkpt>
      <trkpt lat="44.56997" lon="-0.89217">
        <ele>10.711792</ele>
        <time>2015-09-20T10:26:45Z</time>
      </trkpt>
      <trkpt lat="44.57025" lon="-0.89254">
        <ele>12.1538086</ele>
        <time>2015-09-20T10:26:51Z</time>
      </trkpt>
      <trkpt lat="44.57035" lon="-0.89267">
        <ele>12.6343994</ele>
        <time>2015-09-20T10:26:53Z</time>
      </trkpt>
      <trkpt lat="44.57049" lon="-0.89285">
        <ele>12.6343994</ele>
        <time>2015-09-20T10:26:56Z</time>
      </trkpt>
      <trkpt lat="44.57075" lon="-0.89323">
        <ele>12.1538086</ele>
        <time>2015-09-20T10:27:02Z</time>
      </trkpt>
      <trkpt lat="44.57083" lon="-0.89336">
        <ele>12.1538086</ele>
        <time>2015-09-20T10:27:04Z</time>
      </trkpt>
      <trkpt lat="44.57104" lon="-0.89366">
        <ele>12.1538086</ele>
        <time>2015-09-20T10:27:09Z</time>
      </trkpt>
      <trkpt lat="44.57118" lon="-0.89389">
        <ele>13.5958252</ele>
        <time>2015-09-20T10:27:13Z</time>
      </trkpt>
      <trkpt lat="44.57153" lon="-0.89433">
        <ele>15.9990234</ele>
        <time>2015-09-20T10:27:20Z</time>
      </trkpt>
      <trkpt lat="44.57182" lon="-0.89475">
        <ele>16.4797363</ele>
        <time>2015-09-20T10:27:27Z</time>
      </trkpt>
      <trkpt lat="44.57211" lon="-0.89511">
        <ele>20.3249512</ele>
        <time>2015-09-20T10:27:33Z</time>
      </trkpt>
      <trkpt lat="44.57236" lon="-0.89547">
        <ele>20.3249512</ele>
        <time>2015-09-20T10:27:39Z</time>
      </trkpt>
      <trkpt lat="44.57259" lon="-0.89582">
        <ele>17.4411621</ele>
        <time>2015-09-20T10:27:45Z</time>
      </trkpt>
      <trkpt lat="44.57287" lon="-0.89622">
        <ele>15.9990234</ele>
        <time>2015-09-20T10:27:52Z</time>
      </trkpt>
      <trkpt lat="44.57295" lon="-0.89633">
        <ele>15.5184326</ele>
        <time>2015-09-20T10:27:54Z</time>
      </trkpt>
      <trkpt lat="44.57316" lon="-0.8966">
        <ele>15.9990234</ele>
        <time>2015-09-20T10:27:59Z</time>
      </trkpt>
      <trkpt lat="44.57345" lon="-0.89704">
        <ele>16.4797363</ele>
        <time>2015-09-20T10:28:06Z</time>
      </trkpt>
      <trkpt lat="44.5739" lon="-0.89772">
        <ele>15.0377197</ele>
        <time>2015-09-20T10:28:17Z</time>
      </trkpt>
      <trkpt lat="44.57424" lon="-0.8982">
        <ele>14.5570068</ele>
        <time>2015-09-20T10:28:25Z</time>
      </trkpt>
      <trkpt lat="44.57458" lon="-0.89868">
        <ele>14.076416</ele>
        <time>2015-09-20T10:28:33Z</time>
      </trkpt>
      <trkpt lat="44.57495" lon="-0.89923">
        <ele>13.5958252</ele>
        <time>2015-09-20T10:28:42Z</time>
      </trkpt>
      <trkpt lat="44.57532" lon="-0.89976">
        <ele>13.5958252</ele>
        <time>2015-09-20T10:28:51Z</time>
      </trkpt>
      <trkpt lat="44.57557" lon="-0.90011">
        <ele>14.5570068</ele>
        <time>2015-09-20T10:28:57Z</time>
      </trkpt>
      <trkpt lat="44.57575" lon="-0.90034">
        <ele>15.5184326</ele>
        <time>2015-09-20T10:29:01Z</time>
      </trkpt>
      <trkpt lat="44.57584" lon="-0.90046">
        <ele>15.0377197</ele>
        <time>2015-09-20T10:29:03Z</time>
      </trkpt>
      <trkpt lat="44.57615" lon="-0.90086">
        <ele>14.076416</ele>
        <time>2015-09-20T10:29:10Z</time>
      </trkpt>
      <trkpt lat="44.57637" lon="-0.90114">
        <ele>13.5958252</ele>
        <time>2015-09-20T10:29:15Z</time>
      </trkpt>
      <trkpt lat="44.57669" lon="-0.90153">
        <ele>12.6343994</ele>
        <time>2015-09-20T10:29:22Z</time>
      </trkpt>
      <trkpt lat="44.57704" lon="-0.90196">
        <ele>13.5958252</ele>
        <time>2015-09-20T10:29:30Z</time>
      </trkpt>
      <trkpt lat="44.57736" lon="-0.90233">
        <ele>13.1151123</ele>
        <time>2015-09-20T10:29:37Z</time>
      </trkpt>
      <trkpt lat="44.57761" lon="-0.90263">
        <ele>13.5958252</ele>
        <time>2015-09-20T10:29:43Z</time>
      </trkpt>
      <trkpt lat="44.57785" lon="-0.90291">
        <ele>13.1151123</ele>
        <time>2015-09-20T10:29:48Z</time>
      </trkpt>
      <trkpt lat="44.57829" lon="-0.90341">
        <ele>14.076416</ele>
        <time>2015-09-20T10:29:58Z</time>
      </trkpt>
      <trkpt lat="44.57866" lon="-0.9038">
        <ele>13.5958252</ele>
        <time>2015-09-20T10:30:06Z</time>
      </trkpt>
      <trkpt lat="44.57928" lon="-0.90441">
        <ele>15.5184326</ele>
        <time>2015-09-20T10:30:19Z</time>
      </trkpt>
      <trkpt lat="44.57965" lon="-0.90475">
        <ele>16.4797363</ele>
        <time>2015-09-20T10:30:27Z</time>
      </trkpt>
      <trkpt lat="44.57983" lon="-0.90492">
        <ele>16.4797363</ele>
        <time>2015-09-20T10:30:31Z</time>
      </trkpt>
      <trkpt lat="44.58003" lon="-0.90511">
        <ele>17.9217529</ele>
        <time>2015-09-20T10:30:35Z</time>
      </trkpt>
      <trkpt lat="44.58016" lon="-0.9053">
        <ele>18.4023438</ele>
        <time>2015-09-20T10:30:39Z</time>
      </trkpt>
      <trkpt lat="44.58028" lon="-0.90548">
        <ele>15.9990234</ele>
        <time>2015-09-20T10:30:43Z</time>
      </trkpt>
      <trkpt lat="44.58043" lon="-0.90568">
        <ele>9.2698975</ele>
        <time>2015-09-20T10:30:48Z</time>
      </trkpt>
      <trkpt lat="44.58075" lon="-0.90592">
        <ele>4.4632568</ele>
        <time>2015-09-20T10:30:54Z</time>
      </trkpt>
      <trkpt lat="44.58105" lon="-0.90618">
        <ele>5.9052734</ele>
        <time>2015-09-20T10:31:00Z</time>
      </trkpt>
      <trkpt lat="44.58129" lon="-0.90641">
        <ele>9.7506104</ele>
        <time>2015-09-20T10:31:05Z</time>
      </trkpt>
      <trkpt lat="44.58159" lon="-0.90665">
        <ele>12.1538086</ele>
        <time>2015-09-20T10:31:11Z</time>
      </trkpt>
      <trkpt lat="44.58178" lon="-0.9068">
        <ele>12.1538086</ele>
        <time>2015-09-20T10:31:15Z</time>
      </trkpt>
      <trkpt lat="44.58216" lon="-0.90717">
        <ele>18.8830566</ele>
        <time>2015-09-20T10:31:23Z</time>
      </trkpt>
      <trkpt lat="44.58242" lon="-0.90745">
        <ele>18.8830566</ele>
        <time>2015-09-20T10:31:29Z</time>
      </trkpt>
      <trkpt lat="44.58266" lon="-0.90773">
        <ele>17.9217529</ele>
        <time>2015-09-20T10:31:36Z</time>
      </trkpt>
      <trkpt lat="44.58288" lon="-0.90796">
        <ele>19.3637695</ele>
        <time>2015-09-20T10:31:41Z</time>
      </trkpt>
      <trkpt lat="44.58296" lon="-0.90806">
        <ele>19.8443604</ele>
        <time>2015-09-20T10:31:43Z</time>
      </trkpt>
      <trkpt lat="44.58322" lon="-0.90832">
        <ele>19.3637695</ele>
        <time>2015-09-20T10:31:49Z</time>
      </trkpt>
      <trkpt lat="44.58353" lon="-0.90859">
        <ele>17.9217529</ele>
        <time>2015-09-20T10:31:56Z</time>
      </trkpt>
      <trkpt lat="44.5838" lon="-0.90884">
        <ele>18.4023438</ele>
        <time>2015-09-20T10:32:01Z</time>
      </trkpt>
      <trkpt lat="44.58397" lon="-0.90902">
        <ele>16.4797363</ele>
        <time>2015-09-20T10:32:05Z</time>
      </trkpt>
      <trkpt lat="44.5843" lon="-0.90927">
        <ele>18.4023438</ele>
        <time>2015-09-20T10:32:11Z</time>
      </trkpt>
      <trkpt lat="44.58457" lon="-0.90948">
        <ele>20.8056641</ele>
        <time>2015-09-20T10:32:16Z</time>
      </trkpt>
      <trkpt lat="44.58491" lon="-0.90981">
        <ele>23.2089844</ele>
        <time>2015-09-20T10:32:23Z</time>
      </trkpt>
      <trkpt lat="44.585" lon="-0.90991">
        <ele>23.6895752</ele>
        <time>2015-09-20T10:32:25Z</time>
      </trkpt>
      <trkpt lat="44.58526" lon="-0.91021">
        <ele>22.7282715</ele>
        <time>2015-09-20T10:32:31Z</time>
      </trkpt>
      <trkpt lat="44.58554" lon="-0.91046">
        <ele>22.2475586</ele>
        <time>2015-09-20T10:32:37Z</time>
      </trkpt>
      <trkpt lat="44.58563" lon="-0.91055">
        <ele>22.2475586</ele>
        <time>2015-09-20T10:32:39Z</time>
      </trkpt>
      <trkpt lat="44.58593" lon="-0.91082">
        <ele>22.2475586</ele>
        <time>2015-09-20T10:32:45Z</time>
      </trkpt>
      <trkpt lat="44.58606" lon="-0.91095">
        <ele>22.7282715</ele>
        <time>2015-09-20T10:32:48Z</time>
      </trkpt>
      <trkpt lat="44.58629" lon="-0.91117">
        <ele>21.286377</ele>
        <time>2015-09-20T10:32:53Z</time>
      </trkpt>
      <trkpt lat="44.58634" lon="-0.91122">
        <ele>20.8056641</ele>
        <time>2015-09-20T10:32:54Z</time>
      </trkpt>
      <trkpt lat="44.5867" lon="-0.91157">
        <ele>19.8443604</ele>
        <time>2015-09-20T10:33:01Z</time>
      </trkpt>
      <trkpt lat="44.58685" lon="-0.91171">
        <ele>18.8830566</ele>
        <time>2015-09-20T10:33:04Z</time>
      </trkpt>
      <trkpt lat="44.58697" lon="-0.91185">
        <ele>16.9604492</ele>
        <time>2015-09-20T10:33:07Z</time>
      </trkpt>
      <trkpt lat="44.58717" lon="-0.91204">
        <ele>16.9604492</ele>
        <time>2015-09-20T10:33:11Z</time>
      </trkpt>
      <trkpt lat="44.58753" lon="-0.91238">
        <ele>16.9604492</ele>
        <time>2015-09-20T10:33:18Z</time>
      </trkpt>
      <trkpt lat="44.58778" lon="-0.91261">
        <ele>15.9990234</ele>
        <time>2015-09-20T10:33:23Z</time>
      </trkpt>
      <trkpt lat="44.58813" lon="-0.91294">
        <ele>15.9990234</ele>
        <time>2015-09-20T10:33:30Z</time>
      </trkpt>
      <trkpt lat="44.58854" lon="-0.91332">
        <ele>16.4797363</ele>
        <time>2015-09-20T10:33:38Z</time>
      </trkpt>
      <trkpt lat="44.58859" lon="-0.91336">
        <ele>16.9604492</ele>
        <time>2015-09-20T10:33:39Z</time>
      </trkpt>
      <trkpt lat="44.58891" lon="-0.91365">
        <ele>17.9217529</ele>
        <time>2015-09-20T10:33:45Z</time>
      </trkpt>
      <trkpt lat="44.58926" lon="-0.91399">
        <ele>18.8830566</ele>
        <time>2015-09-20T10:33:52Z</time>
      </trkpt>
      <trkpt lat="44.58943" lon="-0.91418">
        <ele>17.9217529</ele>
        <time>2015-09-20T10:33:56Z</time>
      </trkpt>
      <trkpt lat="44.58968" lon="-0.91442">
        <ele>15.9990234</ele>
        <time>2015-09-20T10:34:01Z</time>
      </trkpt>
      <trkpt lat="44.59" lon="-0.91471">
        <ele>16.9604492</ele>
        <time>2015-09-20T10:34:07Z</time>
      </trkpt>
      <trkpt lat="44.59058" lon="-0.91522">
        <ele>18.4023438</ele>
        <time>2015-09-20T10:34:18Z</time>
      </trkpt>
      <trkpt lat="44.59075" lon="-0.91534">
        <ele>17.9217529</ele>
        <time>2015-09-20T10:34:21Z</time>
      </trkpt>
      <trkpt lat="44.59109" lon="-0.9157">
        <ele>18.4023438</ele>
        <time>2015-09-20T10:34:28Z</time>
      </trkpt>
      <trkpt lat="44.59164" lon="-0.91622">
        <ele>16.4797363</ele>
        <time>2015-09-20T10:34:39Z</time>
      </trkpt>
      <trkpt lat="44.59206" lon="-0.91661">
        <ele>17.9217529</ele>
        <time>2015-09-20T10:34:47Z</time>
      </trkpt>
      <trkpt lat="44.59231" lon="-0.91685">
        <ele>16.9604492</ele>
        <time>2015-09-20T10:34:52Z</time>
      </trkpt>
      <trkpt lat="44.59265" lon="-0.9172">
        <ele>15.5184326</ele>
        <time>2015-09-20T10:34:59Z</time>
      </trkpt>
      <trkpt lat="44.59308" lon="-0.91766">
        <ele>15.5184326</ele>
        <time>2015-09-20T10:35:08Z</time>
      </trkpt>
      <trkpt lat="44.59355" lon="-0.91819">
        <ele>15.0377197</ele>
        <time>2015-09-20T10:35:18Z</time>
      </trkpt>
      <trkpt lat="44.59382" lon="-0.91853">
        <ele>15.0377197</ele>
        <time>2015-09-20T10:35:24Z</time>
      </trkpt>
      <trkpt lat="44.59395" lon="-0.91869">
        <ele>15.0377197</ele>
        <time>2015-09-20T10:35:27Z</time>
      </trkpt>
      <trkpt lat="44.59411" lon="-0.91893">
        <ele>15.5184326</ele>
        <time>2015-09-20T10:35:31Z</time>
      </trkpt>
      <trkpt lat="44.59445" lon="-0.91932">
        <ele>21.286377</ele>
        <time>2015-09-20T10:35:38Z</time>
      </trkpt>
      <trkpt lat="44.59471" lon="-0.91974">
        <ele>17.9217529</ele>
        <time>2015-09-20T10:35:45Z</time>
      </trkpt>
      <trkpt lat="44.59504" lon="-0.92022">
        <ele>15.5184326</ele>
        <time>2015-09-20T10:35:53Z</time>
      </trkpt>
      <trkpt lat="44.59522" lon="-0.92053">
        <ele>14.076416</ele>
        <time>2015-09-20T10:35:58Z</time>
      </trkpt>
      <trkpt lat="44.59549" lon="-0.92096">
        <ele>12.6343994</ele>
        <time>2015-09-20T10:36:05Z</time>
      </trkpt>
      <trkpt lat="44.59557" lon="-0.92108">
        <ele>12.6343994</ele>
        <time>2015-09-20T10:36:07Z</time>
      </trkpt>
      <trkpt lat="44.59568" lon="-0.92126">
        <ele>12.6343994</ele>
        <time>2015-09-20T10:36:10Z</time>
      </trkpt>
      <trkpt lat="44.59581" lon="-0.92152">
        <ele>12.6343994</ele>
        <time>2015-09-20T10:36:14Z</time>
      </trkpt>
      <trkpt lat="44.59587" lon="-0.92165">
        <ele>11.6732178</ele>
        <time>2015-09-20T10:36:16Z</time>
      </trkpt>
      <trkpt lat="44.5961" lon="-0.92209">
        <ele>8.7891846</ele>
        <time>2015-09-20T10:36:23Z</time>
      </trkpt>
      <trkpt lat="44.5963" lon="-0.92252">
        <ele>8.7891846</ele>
        <time>2015-09-20T10:36:29Z</time>
      </trkpt>
      <trkpt lat="44.59638" lon="-0.92273">
        <ele>10.711792</ele>
        <time>2015-09-20T10:36:32Z</time>
      </trkpt>
      <trkpt lat="44.59649" lon="-0.92302">
        <ele>10.2312012</ele>
        <time>2015-09-20T10:36:36Z</time>
      </trkpt>
      <trkpt lat="44.59663" lon="-0.9233">
        <ele>12.1538086</ele>
        <time>2015-09-20T10:36:40Z</time>
      </trkpt>
      <trkpt lat="44.59672" lon="-0.92354">
        <ele>12.6343994</ele>
        <time>2015-09-20T10:36:43Z</time>
      </trkpt>
      <trkpt lat="44.59691" lon="-0.924">
        <ele>9.2698975</ele>
        <time>2015-09-20T10:36:50Z</time>
      </trkpt>
      <trkpt lat="44.59709" lon="-0.92442">
        <ele>9.2698975</ele>
        <time>2015-09-20T10:36:56Z</time>
      </trkpt>
      <trkpt lat="44.5972" lon="-0.9247">
        <ele>8.7891846</ele>
        <time>2015-09-20T10:37:00Z</time>
      </trkpt>
      <trkpt lat="44.59736" lon="-0.92503">
        <ele>5.9052734</ele>
        <time>2015-09-20T10:37:05Z</time>
      </trkpt>
      <trkpt lat="44.59762" lon="-0.92555">
        <ele>7.347168</ele>
        <time>2015-09-20T10:37:13Z</time>
      </trkpt>
      <trkpt lat="44.59786" lon="-0.92616">
        <ele>9.7506104</ele>
        <time>2015-09-20T10:37:22Z</time>
      </trkpt>
      <trkpt lat="44.5981" lon="-0.92677">
        <ele>9.7506104</ele>
        <time>2015-09-20T10:37:31Z</time>
      </trkpt>
      <trkpt lat="44.5983" lon="-0.92724">
        <ele>10.711792</ele>
        <time>2015-09-20T10:37:38Z</time>
      </trkpt>
      <trkpt lat="44.59847" lon="-0.92766">
        <ele>9.7506104</ele>
        <time>2015-09-20T10:37:44Z</time>
      </trkpt>
      <trkpt lat="44.59866" lon="-0.92805">
        <ele>9.7506104</ele>
        <time>2015-09-20T10:37:50Z</time>
      </trkpt>
      <trkpt lat="44.59886" lon="-0.92853">
        <ele>9.7506104</ele>
        <time>2015-09-20T10:37:57Z</time>
      </trkpt>
      <trkpt lat="44.59916" lon="-0.92921">
        <ele>10.711792</ele>
        <time>2015-09-20T10:38:07Z</time>
      </trkpt>
      <trkpt lat="44.59919" lon="-0.92927">
        <ele>10.711792</ele>
        <time>2015-09-20T10:38:08Z</time>
      </trkpt>
      <trkpt lat="44.59924" lon="-0.92938">
        <ele>10.711792</ele>
        <time>2015-09-20T10:38:10Z</time>
      </trkpt>
      <trkpt lat="44.59927" lon="-0.92945">
        <ele>11.1925049</ele>
        <time>2015-09-20T10:38:12Z</time>
      </trkpt>
      <trkpt lat="44.59931" lon="-0.92949">
        <ele>10.711792</ele>
        <time>2015-09-20T10:38:17Z</time>
      </trkpt>
      <trkpt lat="44.59933" lon="-0.92948">
        <ele>11.6732178</ele>
        <time>2015-09-20T10:38:21Z</time>
      </trkpt>
      <trkpt lat="44.5994" lon="-0.92937">
        <ele>12.1538086</ele>
        <time>2015-09-20T10:38:26Z</time>
      </trkpt>
      <trkpt lat="44.59946" lon="-0.92923">
        <ele>11.6732178</ele>
        <time>2015-09-20T10:38:30Z</time>
      </trkpt>
      <trkpt lat="44.59948" lon="-0.9292">
        <ele>11.1925049</ele>
        <time>2015-09-20T10:38:31Z</time>
      </trkpt>
      <trkpt lat="44.59964" lon="-0.92893">
        <ele>12.1538086</ele>
        <time>2015-09-20T10:38:38Z</time>
      </trkpt>
      <trkpt lat="44.59976" lon="-0.92877">
        <ele>11.6732178</ele>
        <time>2015-09-20T10:38:43Z</time>
      </trkpt>
      <trkpt lat="44.59988" lon="-0.92853">
        <ele>12.6343994</ele>
        <time>2015-09-20T10:38:49Z</time>
      </trkpt>
      <trkpt lat="44.60011" lon="-0.92829">
        <ele>13.5958252</ele>
        <time>2015-09-20T10:38:55Z</time>
      </trkpt>
      <trkpt lat="44.60037" lon="-0.9281">
        <ele>14.076416</ele>
        <time>2015-09-20T10:39:01Z</time>
      </trkpt>
      <trkpt lat="44.60045" lon="-0.92803">
        <ele>14.5570068</ele>
        <time>2015-09-20T10:39:03Z</time>
      </trkpt>
      <trkpt lat="44.60061" lon="-0.92792">
        <ele>13.5958252</ele>
        <time>2015-09-20T10:39:07Z</time>
      </trkpt>
      <trkpt lat="44.60077" lon="-0.92781">
        <ele>13.1151123</ele>
        <time>2015-09-20T10:39:11Z</time>
      </trkpt>
      <trkpt lat="44.60089" lon="-0.92777">
        <ele>13.5958252</ele>
        <time>2015-09-20T10:39:14Z</time>
      </trkpt>
      <trkpt lat="44.60117" lon="-0.92776">
        <ele>14.5570068</ele>
        <time>2015-09-20T10:39:20Z</time>
      </trkpt>
      <trkpt lat="44.60143" lon="-0.92783">
        <ele>14.076416</ele>
        <time>2015-09-20T10:39:26Z</time>
      </trkpt>
      <trkpt lat="44.60163" lon="-0.92789">
        <ele>13.1151123</ele>
        <time>2015-09-20T10:39:31Z</time>
      </trkpt>
      <trkpt lat="44.6018" lon="-0.9279">
        <ele>12.6343994</ele>
        <time>2015-09-20T10:39:35Z</time>
      </trkpt>
      <trkpt lat="44.60196" lon="-0.92781">
        <ele>12.6343994</ele>
        <time>2015-09-20T10:39:40Z</time>
      </trkpt>
      <trkpt lat="44.60216" lon="-0.92747">
        <ele>13.5958252</ele>
        <time>2015-09-20T10:39:47Z</time>
      </trkpt>
      <trkpt lat="44.60241" lon="-0.92711">
        <ele>14.5570068</ele>
        <time>2015-09-20T10:39:55Z</time>
      </trkpt>
      <trkpt lat="44.60262" lon="-0.92679">
        <ele>15.9990234</ele>
        <time>2015-09-20T10:40:03Z</time>
      </trkpt>
      <trkpt lat="44.60269" lon="-0.92665">
        <ele>16.9604492</ele>
        <time>2015-09-20T10:40:09Z</time>
      </trkpt>
      <trkpt lat="44.6027" lon="-0.92664">
        <ele>16.9604492</ele>
        <time>2015-09-20T10:40:14Z</time>
      </trkpt>
      <trkpt lat="44.60274" lon="-0.92657">
        <ele>17.4411621</ele>
        <time>2015-09-20T10:40:18Z</time>
      </trkpt>
      <trkpt lat="44.60286" lon="-0.92635">
        <ele>17.9217529</ele>
        <time>2015-09-20T10:40:24Z</time>
      </trkpt>
      <trkpt lat="44.60299" lon="-0.92613">
        <ele>18.4023438</ele>
        <time>2015-09-20T10:40:29Z</time>
      </trkpt>
      <trkpt lat="44.6032" lon="-0.92584">
        <ele>18.8830566</ele>
        <time>2015-09-20T10:40:35Z</time>
      </trkpt>
      <trkpt lat="44.60349" lon="-0.92547">
        <ele>19.3637695</ele>
        <time>2015-09-20T10:40:42Z</time>
      </trkpt>
      <trkpt lat="44.6038" lon="-0.92512">
        <ele>20.3249512</ele>
        <time>2015-09-20T10:40:49Z</time>
      </trkpt>
      <trkpt lat="44.60403" lon="-0.92492">
        <ele>21.286377</ele>
        <time>2015-09-20T10:40:54Z</time>
      </trkpt>
      <trkpt lat="44.60431" lon="-0.92475">
        <ele>21.7669678</ele>
        <time>2015-09-20T10:40:59Z</time>
      </trkpt>
      <trkpt lat="44.60473" lon="-0.92449">
        <ele>21.7669678</ele>
        <time>2015-09-20T10:41:07Z</time>
      </trkpt>
      <trkpt lat="44.60493" lon="-0.92434">
        <ele>21.7669678</ele>
        <time>2015-09-20T10:41:11Z</time>
      </trkpt>
      <trkpt lat="44.6052" lon="-0.92401">
        <ele>22.2475586</ele>
        <time>2015-09-20T10:41:17Z</time>
      </trkpt>
      <trkpt lat="44.60549" lon="-0.92365">
        <ele>23.2089844</ele>
        <time>2015-09-20T10:41:24Z</time>
      </trkpt>
      <trkpt lat="44.60582" lon="-0.92332">
        <ele>23.2089844</ele>
        <time>2015-09-20T10:41:31Z</time>
      </trkpt>
      <trkpt lat="44.60617" lon="-0.92308">
        <ele>23.2089844</ele>
        <time>2015-09-20T10:41:38Z</time>
      </trkpt>
      <trkpt lat="44.60637" lon="-0.92297">
        <ele>22.7282715</ele>
        <time>2015-09-20T10:41:42Z</time>
      </trkpt>
      <trkpt lat="44.60675" lon="-0.92265">
        <ele>22.7282715</ele>
        <time>2015-09-20T10:41:50Z</time>
      </trkpt>
      <trkpt lat="44.60713" lon="-0.92233">
        <ele>23.6895752</ele>
        <time>2015-09-20T10:41:58Z</time>
      </trkpt>
      <trkpt lat="44.60751" lon="-0.92203">
        <ele>24.1702881</ele>
        <time>2015-09-20T10:42:06Z</time>
      </trkpt>
      <trkpt lat="44.60782" lon="-0.92181">
        <ele>24.651001</ele>
        <time>2015-09-20T10:42:12Z</time>
      </trkpt>
      <trkpt lat="44.60817" lon="-0.92163">
        <ele>24.1702881</ele>
        <time>2015-09-20T10:42:19Z</time>
      </trkpt>
      <trkpt lat="44.60862" lon="-0.9214">
        <ele>24.1702881</ele>
        <time>2015-09-20T10:42:28Z</time>
      </trkpt>
      <trkpt lat="44.60886" lon="-0.92123">
        <ele>24.651001</ele>
        <time>2015-09-20T10:42:34Z</time>
      </trkpt>
      <trkpt lat="44.60914" lon="-0.92103">
        <ele>24.1702881</ele>
        <time>2015-09-20T10:42:42Z</time>
      </trkpt>
      <trkpt lat="44.60926" lon="-0.92108">
        <ele>23.6895752</ele>
        <time>2015-09-20T10:42:46Z</time>
      </trkpt>
      <trkpt lat="44.60944" lon="-0.92127">
        <ele>24.651001</ele>
        <time>2015-09-20T10:42:51Z</time>
      </trkpt>
      <trkpt lat="44.60977" lon="-0.92156">
        <ele>25.6123047</ele>
        <time>2015-09-20T10:42:59Z</time>
      </trkpt>
      <trkpt lat="44.60998" lon="-0.92171">
        <ele>25.6123047</ele>
        <time>2015-09-20T10:43:04Z</time>
      </trkpt>
      <trkpt lat="44.61009" lon="-0.92178">
        <ele>25.6123047</ele>
        <time>2015-09-20T10:43:07Z</time>
      </trkpt>
      <trkpt lat="44.61019" lon="-0.92178">
        <ele>25.1317139</ele>
        <time>2015-09-20T10:43:11Z</time>
      </trkpt>
      <trkpt lat="44.61018" lon="-0.92176">
        <ele>25.1317139</ele>
        <time>2015-09-20T10:43:23Z</time>
      </trkpt>
    </trkseg>
  </trk>
</gpx>